<?xml version="1.0" encoding="UTF-8"?>
<gpx version="1.1" creator="https://www.youtrack.es" xsi:schemaLocation="http://www.topografix.com/GPX/1/1 http://www.topografix.com/GPX/1/1/gpx.xsd http://www.garmin.com/xmlschemas/GpxExtensions/v3 http://www.garmin.com/xmlschemas/GpxExtensionsv3.xsd http://www.garmin.com/xmlschemas/TrackPointExtension/v1 http://www.garmin.com/xmlschemas/TrackPointExtensionv1.xsd" xmlns:gpxtpx="http://www.garmin.com/xmlschemas/TrackPointExtension/v1" xmlns:gpxx="http://www.garmin.com/xmlschemas/GpxExtensions/v3" xmlns:xsi="http://www.w3.org/2001/XMLSchema-instance">
  <metadata>
    <author>
      <name>jairo beltran</name>
      <email id="jaibega" domain="gmail.com"/>
    </author>
    <link href="https://www.youtrack.es">
      <text>YouTrack.es</text>
    </link>
    <time>2026-05-09T03:12:05Z</time>
  </metadata>
  <trk>
    <src>https://www.youtrack.es</src>
    <link href="https://www.youtrack.es/ruta/1012-a">
      <text>YouTrack.es</text>
    </link>
    <trkseg>
      <trkpt lat="4.5749580" lon="-74.2183440">
        <ele>2558.0</ele>
        <time>2018-06-17T11:57:57Z</time>
      </trkpt>
      <trkpt lat="4.5750100" lon="-74.2183980">
        <ele>2558.0</ele>
        <time>2018-06-17T11:58:02Z</time>
      </trkpt>
      <trkpt lat="4.5754970" lon="-74.2187100">
        <ele>2557.4</ele>
        <time>2018-06-17T11:58:22Z</time>
      </trkpt>
      <trkpt lat="4.5758000" lon="-74.2188620">
        <ele>2558.0</ele>
        <time>2018-06-17T11:58:33Z</time>
      </trkpt>
      <trkpt lat="4.5759970" lon="-74.2189750">
        <ele>2557.4</ele>
        <time>2018-06-17T11:58:42Z</time>
      </trkpt>
      <trkpt lat="4.5765030" lon="-74.2191970">
        <ele>2558.0</ele>
        <time>2018-06-17T11:58:58Z</time>
      </trkpt>
      <trkpt lat="4.5765710" lon="-74.2192010">
        <ele>2558.0</ele>
        <time>2018-06-17T11:59:01Z</time>
      </trkpt>
      <trkpt lat="4.5766170" lon="-74.2191060">
        <ele>2560.2</ele>
        <time>2018-06-17T11:59:05Z</time>
      </trkpt>
      <trkpt lat="4.5768670" lon="-74.2186180">
        <ele>2565.0</ele>
        <time>2018-06-17T11:59:24Z</time>
      </trkpt>
      <trkpt lat="4.5769350" lon="-74.2185480">
        <ele>2565.3</ele>
        <time>2018-06-17T11:59:28Z</time>
      </trkpt>
      <trkpt lat="4.5774500" lon="-74.2187640">
        <ele>2565.1</ele>
        <time>2018-06-17T11:59:46Z</time>
      </trkpt>
      <trkpt lat="4.5779430" lon="-74.2189890">
        <ele>2566.9</ele>
        <time>2018-06-17T12:00:01Z</time>
      </trkpt>
      <trkpt lat="4.5783560" lon="-74.2191610">
        <ele>2566.0</ele>
        <time>2018-06-17T12:00:15Z</time>
      </trkpt>
      <trkpt lat="4.5784350" lon="-74.2190660">
        <ele>2566.2</ele>
        <time>2018-06-17T12:00:19Z</time>
      </trkpt>
      <trkpt lat="4.5787230" lon="-74.2185740">
        <ele>2566.7</ele>
        <time>2018-06-17T12:00:33Z</time>
      </trkpt>
      <trkpt lat="4.5788780" lon="-74.2182900">
        <ele>2567.7</ele>
        <time>2018-06-17T12:00:43Z</time>
      </trkpt>
      <trkpt lat="4.5791990" lon="-74.2178380">
        <ele>2567.3</ele>
        <time>2018-06-17T12:00:59Z</time>
      </trkpt>
      <trkpt lat="4.5794970" lon="-74.2173780">
        <ele>2566.0</ele>
        <time>2018-06-17T12:01:12Z</time>
      </trkpt>
      <trkpt lat="4.5796490" lon="-74.2172060">
        <ele>2566.0</ele>
        <time>2018-06-17T12:01:39Z</time>
      </trkpt>
      <trkpt lat="4.5796410" lon="-74.2173510">
        <ele>2566.0</ele>
        <time>2018-06-17T12:01:45Z</time>
      </trkpt>
      <trkpt lat="4.5796290" lon="-74.2174310">
        <ele>2566.0</ele>
        <time>2018-06-17T12:01:48Z</time>
      </trkpt>
      <trkpt lat="4.5797600" lon="-74.2174880">
        <ele>2567.0</ele>
        <time>2018-06-17T12:01:52Z</time>
      </trkpt>
      <trkpt lat="4.5802940" lon="-74.2176640">
        <ele>2563.0</ele>
        <time>2018-06-17T12:02:09Z</time>
      </trkpt>
      <trkpt lat="4.5808480" lon="-74.2178040">
        <ele>2563.0</ele>
        <time>2018-06-17T12:02:24Z</time>
      </trkpt>
      <trkpt lat="4.5813840" lon="-74.2179500">
        <ele>2564.7</ele>
        <time>2018-06-17T12:02:40Z</time>
      </trkpt>
      <trkpt lat="4.5819020" lon="-74.2181120">
        <ele>2562.0</ele>
        <time>2018-06-17T12:02:56Z</time>
      </trkpt>
      <trkpt lat="4.5824220" lon="-74.2182780">
        <ele>2561.6</ele>
        <time>2018-06-17T12:03:13Z</time>
      </trkpt>
      <trkpt lat="4.5825050" lon="-74.2183010">
        <ele>2561.5</ele>
        <time>2018-06-17T12:03:15Z</time>
      </trkpt>
      <trkpt lat="4.5829300" lon="-74.2184070">
        <ele>2560.2</ele>
        <time>2018-06-17T12:03:27Z</time>
      </trkpt>
      <trkpt lat="4.5829670" lon="-74.2183380">
        <ele>2560.2</ele>
        <time>2018-06-17T12:03:31Z</time>
      </trkpt>
      <trkpt lat="4.5830920" lon="-74.2178110">
        <ele>2562.3</ele>
        <time>2018-06-17T12:03:43Z</time>
      </trkpt>
      <trkpt lat="4.5831560" lon="-74.2175930">
        <ele>2562.0</ele>
        <time>2018-06-17T12:03:49Z</time>
      </trkpt>
      <trkpt lat="4.5832700" lon="-74.2176230">
        <ele>2561.8</ele>
        <time>2018-06-17T12:03:53Z</time>
      </trkpt>
      <trkpt lat="4.5838240" lon="-74.2177790">
        <ele>2559.1</ele>
        <time>2018-06-17T12:04:09Z</time>
      </trkpt>
      <trkpt lat="4.5843410" lon="-74.2178180">
        <ele>2558.5</ele>
        <time>2018-06-17T12:04:26Z</time>
      </trkpt>
      <trkpt lat="4.5844650" lon="-74.2178320">
        <ele>2558.2</ele>
        <time>2018-06-17T12:04:29Z</time>
      </trkpt>
      <trkpt lat="4.5845780" lon="-74.2178770">
        <ele>2557.8</ele>
        <time>2018-06-17T12:04:32Z</time>
      </trkpt>
      <trkpt lat="4.5851390" lon="-74.2179960">
        <ele>2554.8</ele>
        <time>2018-06-17T12:04:48Z</time>
      </trkpt>
      <trkpt lat="4.5857070" lon="-74.2180990">
        <ele>2554.4</ele>
        <time>2018-06-17T12:05:01Z</time>
      </trkpt>
      <trkpt lat="4.5858870" lon="-74.2181350">
        <ele>2552.7</ele>
        <time>2018-06-17T12:05:05Z</time>
      </trkpt>
      <trkpt lat="4.5859690" lon="-74.2181510">
        <ele>2552.0</ele>
        <time>2018-06-17T12:05:07Z</time>
      </trkpt>
      <trkpt lat="4.5862300" lon="-74.2181930">
        <ele>2552.0</ele>
        <time>2018-06-17T12:05:15Z</time>
      </trkpt>
      <trkpt lat="4.5863300" lon="-74.2177000">
        <ele>2552.0</ele>
        <time>2018-06-17T12:05:25Z</time>
      </trkpt>
      <trkpt lat="4.5863890" lon="-74.2173260">
        <ele>2549.9</ele>
        <time>2018-06-17T12:05:31Z</time>
      </trkpt>
      <trkpt lat="4.5865320" lon="-74.2167470">
        <ele>2549.4</ele>
        <time>2018-06-17T12:05:40Z</time>
      </trkpt>
      <trkpt lat="4.5866540" lon="-74.2161820">
        <ele>2549.0</ele>
        <time>2018-06-17T12:05:48Z</time>
      </trkpt>
      <trkpt lat="4.5867160" lon="-74.2158890">
        <ele>2549.0</ele>
        <time>2018-06-17T12:05:53Z</time>
      </trkpt>
      <trkpt lat="4.5868300" lon="-74.2153180">
        <ele>2550.0</ele>
        <time>2018-06-17T12:06:02Z</time>
      </trkpt>
      <trkpt lat="4.5869620" lon="-74.2147740">
        <ele>2550.0</ele>
        <time>2018-06-17T12:06:10Z</time>
      </trkpt>
      <trkpt lat="4.5870480" lon="-74.2142000">
        <ele>2549.0</ele>
        <time>2018-06-17T12:06:19Z</time>
      </trkpt>
      <trkpt lat="4.5870810" lon="-74.2136210">
        <ele>2548.0</ele>
        <time>2018-06-17T12:06:28Z</time>
      </trkpt>
      <trkpt lat="4.5870980" lon="-74.2130620">
        <ele>2547.0</ele>
        <time>2018-06-17T12:06:37Z</time>
      </trkpt>
      <trkpt lat="4.5873330" lon="-74.2130590">
        <ele>2547.0</ele>
        <time>2018-06-17T12:06:42Z</time>
      </trkpt>
      <trkpt lat="4.5873870" lon="-74.2130640">
        <ele>2547.0</ele>
        <time>2018-06-17T12:06:43Z</time>
      </trkpt>
      <trkpt lat="4.5879010" lon="-74.2130470">
        <ele>2548.0</ele>
        <time>2018-06-17T12:06:51Z</time>
      </trkpt>
      <trkpt lat="4.5879770" lon="-74.2128940">
        <ele>2548.0</ele>
        <time>2018-06-17T12:06:56Z</time>
      </trkpt>
      <trkpt lat="4.5879790" lon="-74.2128510">
        <ele>2548.0</ele>
        <time>2018-06-17T12:06:57Z</time>
      </trkpt>
      <trkpt lat="4.5879870" lon="-74.2127610">
        <ele>2548.0</ele>
        <time>2018-06-17T12:06:59Z</time>
      </trkpt>
      <trkpt lat="4.5879760" lon="-74.2124220">
        <ele>2548.0</ele>
        <time>2018-06-17T12:07:05Z</time>
      </trkpt>
      <trkpt lat="4.5878960" lon="-74.2121400">
        <ele>2548.2</ele>
        <time>2018-06-17T12:07:10Z</time>
      </trkpt>
      <trkpt lat="4.5878780" lon="-74.2119110">
        <ele>2549.0</ele>
        <time>2018-06-17T12:07:14Z</time>
      </trkpt>
      <trkpt lat="4.5878530" lon="-74.2118070">
        <ele>2548.6</ele>
        <time>2018-06-17T12:07:16Z</time>
      </trkpt>
      <trkpt lat="4.5877220" lon="-74.2114900">
        <ele>2548.8</ele>
        <time>2018-06-17T12:07:22Z</time>
      </trkpt>
      <trkpt lat="4.5875800" lon="-74.2111140">
        <ele>2548.6</ele>
        <time>2018-06-17T12:07:29Z</time>
      </trkpt>
      <trkpt lat="4.5875350" lon="-74.2108980">
        <ele>2549.1</ele>
        <time>2018-06-17T12:07:33Z</time>
      </trkpt>
      <trkpt lat="4.5874760" lon="-74.2104640">
        <ele>2548.0</ele>
        <time>2018-06-17T12:07:41Z</time>
      </trkpt>
      <trkpt lat="4.5872800" lon="-74.2101440">
        <ele>2548.1</ele>
        <time>2018-06-17T12:07:49Z</time>
      </trkpt>
      <trkpt lat="4.5870580" lon="-74.2096460">
        <ele>2551.0</ele>
        <time>2018-06-17T12:07:58Z</time>
      </trkpt>
      <trkpt lat="4.5869730" lon="-74.2094450">
        <ele>2551.0</ele>
        <time>2018-06-17T12:08:03Z</time>
      </trkpt>
      <trkpt lat="4.5869350" lon="-74.2092880">
        <ele>2550.5</ele>
        <time>2018-06-17T12:08:07Z</time>
      </trkpt>
      <trkpt lat="4.5868440" lon="-74.2087250">
        <ele>2547.0</ele>
        <time>2018-06-17T12:08:16Z</time>
      </trkpt>
      <trkpt lat="4.5866930" lon="-74.2081510">
        <ele>2546.8</ele>
        <time>2018-06-17T12:08:23Z</time>
      </trkpt>
      <trkpt lat="4.5866280" lon="-74.2079950">
        <ele>2548.0</ele>
        <time>2018-06-17T12:08:25Z</time>
      </trkpt>
      <trkpt lat="4.5863580" lon="-74.2074870">
        <ele>2548.0</ele>
        <time>2018-06-17T12:08:32Z</time>
      </trkpt>
      <trkpt lat="4.5862440" lon="-74.2072530">
        <ele>2546.0</ele>
        <time>2018-06-17T12:08:36Z</time>
      </trkpt>
      <trkpt lat="4.5865290" lon="-74.2070240">
        <ele>2546.0</ele>
        <time>2018-06-17T12:08:42Z</time>
      </trkpt>
      <trkpt lat="4.5870670" lon="-74.2067330">
        <ele>2547.3</ele>
        <time>2018-06-17T12:08:49Z</time>
      </trkpt>
      <trkpt lat="4.5875550" lon="-74.2063460">
        <ele>2541.4</ele>
        <time>2018-06-17T12:08:57Z</time>
      </trkpt>
      <trkpt lat="4.5877830" lon="-74.2060570">
        <ele>2542.0</ele>
        <time>2018-06-17T12:09:01Z</time>
      </trkpt>
      <trkpt lat="4.5879410" lon="-74.2056450">
        <ele>2542.0</ele>
        <time>2018-06-17T12:09:06Z</time>
      </trkpt>
      <trkpt lat="4.5878070" lon="-74.2052760">
        <ele>2539.0</ele>
        <time>2018-06-17T12:09:11Z</time>
      </trkpt>
      <trkpt lat="4.5877630" lon="-74.2052160">
        <ele>2538.1</ele>
        <time>2018-06-17T12:09:12Z</time>
      </trkpt>
      <trkpt lat="4.5873770" lon="-74.2047460">
        <ele>2542.7</ele>
        <time>2018-06-17T12:09:20Z</time>
      </trkpt>
      <trkpt lat="4.5870290" lon="-74.2044150">
        <ele>2543.6</ele>
        <time>2018-06-17T12:09:27Z</time>
      </trkpt>
      <trkpt lat="4.5870620" lon="-74.2041350">
        <ele>2548.6</ele>
        <time>2018-06-17T12:09:33Z</time>
      </trkpt>
      <trkpt lat="4.5871560" lon="-74.2038900">
        <ele>2549.2</ele>
        <time>2018-06-17T12:09:40Z</time>
      </trkpt>
      <trkpt lat="4.5872250" lon="-74.2037160">
        <ele>2545.9</ele>
        <time>2018-06-17T12:09:44Z</time>
      </trkpt>
      <trkpt lat="4.5875240" lon="-74.2032480">
        <ele>2544.3</ele>
        <time>2018-06-17T12:09:54Z</time>
      </trkpt>
      <trkpt lat="4.5876080" lon="-74.2031240">
        <ele>2545.3</ele>
        <time>2018-06-17T12:09:57Z</time>
      </trkpt>
      <trkpt lat="4.5877320" lon="-74.2030130">
        <ele>2545.3</ele>
        <time>2018-06-17T12:10:01Z</time>
      </trkpt>
      <trkpt lat="4.5877580" lon="-74.2029670">
        <ele>2545.3</ele>
        <time>2018-06-17T12:10:02Z</time>
      </trkpt>
      <trkpt lat="4.5879050" lon="-74.2027880">
        <ele>2545.7</ele>
        <time>2018-06-17T12:10:06Z</time>
      </trkpt>
      <trkpt lat="4.5879360" lon="-74.2027380">
        <ele>2546.1</ele>
        <time>2018-06-17T12:10:07Z</time>
      </trkpt>
      <trkpt lat="4.5881380" lon="-74.2024180">
        <ele>2548.8</ele>
        <time>2018-06-17T12:10:15Z</time>
      </trkpt>
      <trkpt lat="4.5881790" lon="-74.2023510">
        <ele>2549.0</ele>
        <time>2018-06-17T12:10:17Z</time>
      </trkpt>
      <trkpt lat="4.5882360" lon="-74.2021480">
        <ele>2549.6</ele>
        <time>2018-06-17T12:10:23Z</time>
      </trkpt>
      <trkpt lat="4.5882810" lon="-74.2020460">
        <ele>2549.5</ele>
        <time>2018-06-17T12:10:25Z</time>
      </trkpt>
      <trkpt lat="4.5885500" lon="-74.2015150">
        <ele>2549.7</ele>
        <time>2018-06-17T12:10:33Z</time>
      </trkpt>
      <trkpt lat="4.5887950" lon="-74.2010120">
        <ele>2540.4</ele>
        <time>2018-06-17T12:10:40Z</time>
      </trkpt>
      <trkpt lat="4.5890640" lon="-74.2004720">
        <ele>2544.0</ele>
        <time>2018-06-17T12:10:48Z</time>
      </trkpt>
      <trkpt lat="4.5893140" lon="-74.1999680">
        <ele>2546.8</ele>
        <time>2018-06-17T12:10:56Z</time>
      </trkpt>
      <trkpt lat="4.5893740" lon="-74.1998560">
        <ele>2545.0</ele>
        <time>2018-06-17T12:10:58Z</time>
      </trkpt>
      <trkpt lat="4.5896240" lon="-74.1994010">
        <ele>2546.2</ele>
        <time>2018-06-17T12:11:06Z</time>
      </trkpt>
      <trkpt lat="4.5898330" lon="-74.1989650">
        <ele>2546.4</ele>
        <time>2018-06-17T12:11:14Z</time>
      </trkpt>
      <trkpt lat="4.5900650" lon="-74.1987610">
        <ele>2550.2</ele>
        <time>2018-06-17T12:11:23Z</time>
      </trkpt>
      <trkpt lat="4.5900560" lon="-74.1986970">
        <ele>2550.0</ele>
        <time>2018-06-17T12:11:25Z</time>
      </trkpt>
      <trkpt lat="4.5900370" lon="-74.1986020">
        <ele>2550.6</ele>
        <time>2018-06-17T12:11:27Z</time>
      </trkpt>
      <trkpt lat="4.5903830" lon="-74.1984770">
        <ele>2551.0</ele>
        <time>2018-06-17T12:11:37Z</time>
      </trkpt>
      <trkpt lat="4.5904230" lon="-74.1985270">
        <ele>2551.0</ele>
        <time>2018-06-17T12:11:38Z</time>
      </trkpt>
      <trkpt lat="4.5905020" lon="-74.1986460">
        <ele>2551.3</ele>
        <time>2018-06-17T12:11:40Z</time>
      </trkpt>
      <trkpt lat="4.5907900" lon="-74.1991660">
        <ele>2551.2</ele>
        <time>2018-06-17T12:11:47Z</time>
      </trkpt>
      <trkpt lat="4.5910640" lon="-74.1996880">
        <ele>2549.0</ele>
        <time>2018-06-17T12:11:54Z</time>
      </trkpt>
      <trkpt lat="4.5911180" lon="-74.1997770">
        <ele>2549.0</ele>
        <time>2018-06-17T12:11:56Z</time>
      </trkpt>
      <trkpt lat="4.5913390" lon="-74.1997440">
        <ele>2549.0</ele>
        <time>2018-06-17T12:12:01Z</time>
      </trkpt>
      <trkpt lat="4.5916860" lon="-74.1995680">
        <ele>2549.4</ele>
        <time>2018-06-17T12:12:07Z</time>
      </trkpt>
      <trkpt lat="4.5922030" lon="-74.1993130">
        <ele>2549.7</ele>
        <time>2018-06-17T12:12:15Z</time>
      </trkpt>
      <trkpt lat="4.5927480" lon="-74.1990380">
        <ele>2548.0</ele>
        <time>2018-06-17T12:12:25Z</time>
      </trkpt>
      <trkpt lat="4.5932930" lon="-74.1987650">
        <ele>2549.4</ele>
        <time>2018-06-17T12:12:34Z</time>
      </trkpt>
      <trkpt lat="4.5936650" lon="-74.1985900">
        <ele>2547.9</ele>
        <time>2018-06-17T12:12:39Z</time>
      </trkpt>
      <trkpt lat="4.5941760" lon="-74.1983070">
        <ele>2548.0</ele>
        <time>2018-06-17T12:12:45Z</time>
      </trkpt>
      <trkpt lat="4.5946750" lon="-74.1980560">
        <ele>2549.4</ele>
        <time>2018-06-17T12:12:51Z</time>
      </trkpt>
      <trkpt lat="4.5948770" lon="-74.1979300">
        <ele>2549.1</ele>
        <time>2018-06-17T12:12:55Z</time>
      </trkpt>
      <trkpt lat="4.5951090" lon="-74.1975370">
        <ele>2548.4</ele>
        <time>2018-06-17T12:13:07Z</time>
      </trkpt>
      <trkpt lat="4.5951710" lon="-74.1975070">
        <ele>2547.9</ele>
        <time>2018-06-17T12:13:08Z</time>
      </trkpt>
      <trkpt lat="4.5956680" lon="-74.1972500">
        <ele>2547.1</ele>
        <time>2018-06-17T12:13:15Z</time>
      </trkpt>
      <trkpt lat="4.5961020" lon="-74.1970450">
        <ele>2549.7</ele>
        <time>2018-06-17T12:13:22Z</time>
      </trkpt>
      <trkpt lat="4.5966060" lon="-74.1967880">
        <ele>2546.9</ele>
        <time>2018-06-17T12:13:30Z</time>
      </trkpt>
      <trkpt lat="4.5971270" lon="-74.1965370">
        <ele>2547.2</ele>
        <time>2018-06-17T12:13:37Z</time>
      </trkpt>
      <trkpt lat="4.5976190" lon="-74.1962750">
        <ele>2549.9</ele>
        <time>2018-06-17T12:13:46Z</time>
      </trkpt>
      <trkpt lat="4.5981360" lon="-74.1960310">
        <ele>2549.3</ele>
        <time>2018-06-17T12:13:57Z</time>
      </trkpt>
      <trkpt lat="4.5982940" lon="-74.1959480">
        <ele>2548.5</ele>
        <time>2018-06-17T12:14:00Z</time>
      </trkpt>
      <trkpt lat="4.5988110" lon="-74.1956850">
        <ele>2550.4</ele>
        <time>2018-06-17T12:14:10Z</time>
      </trkpt>
      <trkpt lat="4.5990380" lon="-74.1956180">
        <ele>2550.0</ele>
        <time>2018-06-17T12:14:17Z</time>
      </trkpt>
      <trkpt lat="4.5991850" lon="-74.1961810">
        <ele>2548.8</ele>
        <time>2018-06-17T12:14:31Z</time>
      </trkpt>
      <trkpt lat="4.5992910" lon="-74.1967370">
        <ele>2549.0</ele>
        <time>2018-06-17T12:14:38Z</time>
      </trkpt>
      <trkpt lat="4.5994260" lon="-74.1972770">
        <ele>2549.0</ele>
        <time>2018-06-17T12:14:45Z</time>
      </trkpt>
      <trkpt lat="4.5995520" lon="-74.1978330">
        <ele>2549.0</ele>
        <time>2018-06-17T12:14:52Z</time>
      </trkpt>
      <trkpt lat="4.5996100" lon="-74.1980130">
        <ele>2548.7</ele>
        <time>2018-06-17T12:14:55Z</time>
      </trkpt>
      <trkpt lat="4.5998610" lon="-74.1980610">
        <ele>2549.0</ele>
        <time>2018-06-17T12:14:59Z</time>
      </trkpt>
      <trkpt lat="4.6004640" lon="-74.1981480">
        <ele>2548.5</ele>
        <time>2018-06-17T12:15:06Z</time>
      </trkpt>
      <trkpt lat="4.6010260" lon="-74.1982360">
        <ele>2549.7</ele>
        <time>2018-06-17T12:15:12Z</time>
      </trkpt>
      <trkpt lat="4.6016200" lon="-74.1983250">
        <ele>2548.3</ele>
        <time>2018-06-17T12:15:18Z</time>
      </trkpt>
      <trkpt lat="4.6021650" lon="-74.1984120">
        <ele>2547.0</ele>
        <time>2018-06-17T12:15:24Z</time>
      </trkpt>
      <trkpt lat="4.6023390" lon="-74.1984310">
        <ele>2547.0</ele>
        <time>2018-06-17T12:15:27Z</time>
      </trkpt>
      <trkpt lat="4.6023420" lon="-74.1982030">
        <ele>2548.3</ele>
        <time>2018-06-17T12:15:33Z</time>
      </trkpt>
      <trkpt lat="4.6023490" lon="-74.1981740">
        <ele>2550.0</ele>
        <time>2018-06-17T12:15:34Z</time>
      </trkpt>
      <trkpt lat="4.6025360" lon="-74.1981120">
        <ele>2549.8</ele>
        <time>2018-06-17T12:15:39Z</time>
      </trkpt>
      <trkpt lat="4.6026400" lon="-74.1980900">
        <ele>2549.6</ele>
        <time>2018-06-17T12:15:41Z</time>
      </trkpt>
      <trkpt lat="4.6030980" lon="-74.1980200">
        <ele>2549.2</ele>
        <time>2018-06-17T12:15:48Z</time>
      </trkpt>
      <trkpt lat="4.6032300" lon="-74.1980050">
        <ele>2549.0</ele>
        <time>2018-06-17T12:15:50Z</time>
      </trkpt>
      <trkpt lat="4.6037850" lon="-74.1979300">
        <ele>2549.0</ele>
        <time>2018-06-17T12:16:01Z</time>
      </trkpt>
      <trkpt lat="4.6038640" lon="-74.1981100">
        <ele>2549.0</ele>
        <time>2018-06-17T12:16:06Z</time>
      </trkpt>
      <trkpt lat="4.6043880" lon="-74.1979710">
        <ele>2548.4</ele>
        <time>2018-06-17T12:16:14Z</time>
      </trkpt>
      <trkpt lat="4.6049620" lon="-74.1978360">
        <ele>2550.3</ele>
        <time>2018-06-17T12:16:21Z</time>
      </trkpt>
      <trkpt lat="4.6055050" lon="-74.1976910">
        <ele>2549.2</ele>
        <time>2018-06-17T12:16:29Z</time>
      </trkpt>
      <trkpt lat="4.6056450" lon="-74.1976670">
        <ele>2549.0</ele>
        <time>2018-06-17T12:16:34Z</time>
      </trkpt>
      <trkpt lat="4.6062280" lon="-74.1975480">
        <ele>2547.8</ele>
        <time>2018-06-17T12:16:43Z</time>
      </trkpt>
      <trkpt lat="4.6067670" lon="-74.1974250">
        <ele>2547.6</ele>
        <time>2018-06-17T12:16:50Z</time>
      </trkpt>
      <trkpt lat="4.6073510" lon="-74.1973030">
        <ele>2546.3</ele>
        <time>2018-06-17T12:16:58Z</time>
      </trkpt>
      <trkpt lat="4.6079080" lon="-74.1971920">
        <ele>2547.0</ele>
        <time>2018-06-17T12:17:06Z</time>
      </trkpt>
      <trkpt lat="4.6079590" lon="-74.1971910">
        <ele>2547.0</ele>
        <time>2018-06-17T12:17:07Z</time>
      </trkpt>
      <trkpt lat="4.6080500" lon="-74.1973630">
        <ele>2547.0</ele>
        <time>2018-06-17T12:17:11Z</time>
      </trkpt>
      <trkpt lat="4.6080940" lon="-74.1976560">
        <ele>2547.0</ele>
        <time>2018-06-17T12:17:16Z</time>
      </trkpt>
      <trkpt lat="4.6081800" lon="-74.1979710">
        <ele>2546.9</ele>
        <time>2018-06-17T12:17:23Z</time>
      </trkpt>
      <trkpt lat="4.6083260" lon="-74.1979540">
        <ele>2546.7</ele>
        <time>2018-06-17T12:17:27Z</time>
      </trkpt>
      <trkpt lat="4.6088950" lon="-74.1978470">
        <ele>2547.3</ele>
        <time>2018-06-17T12:17:41Z</time>
      </trkpt>
      <trkpt lat="4.6091410" lon="-74.1977840">
        <ele>2547.1</ele>
        <time>2018-06-17T12:17:47Z</time>
      </trkpt>
      <trkpt lat="4.6097280" lon="-74.1976730">
        <ele>2548.0</ele>
        <time>2018-06-17T12:17:58Z</time>
      </trkpt>
      <trkpt lat="4.6102970" lon="-74.1975720">
        <ele>2547.4</ele>
        <time>2018-06-17T12:18:09Z</time>
      </trkpt>
      <trkpt lat="4.6105080" lon="-74.1975340">
        <ele>2547.0</ele>
        <time>2018-06-17T12:18:15Z</time>
      </trkpt>
      <trkpt lat="4.6105380" lon="-74.1974560">
        <ele>2547.0</ele>
        <time>2018-06-17T12:18:20Z</time>
      </trkpt>
      <trkpt lat="4.6105190" lon="-74.1973730">
        <ele>2547.5</ele>
        <time>2018-06-17T12:18:22Z</time>
      </trkpt>
      <trkpt lat="4.6103930" lon="-74.1967960">
        <ele>2549.7</ele>
        <time>2018-06-17T12:18:33Z</time>
      </trkpt>
      <trkpt lat="4.6102770" lon="-74.1962560">
        <ele>2548.8</ele>
        <time>2018-06-17T12:18:43Z</time>
      </trkpt>
      <trkpt lat="4.6102350" lon="-74.1960320">
        <ele>2549.0</ele>
        <time>2018-06-17T12:18:47Z</time>
      </trkpt>
      <trkpt lat="4.6101200" lon="-74.1955010">
        <ele>2548.9</ele>
        <time>2018-06-17T12:18:56Z</time>
      </trkpt>
      <trkpt lat="4.6099890" lon="-74.1949400">
        <ele>2547.5</ele>
        <time>2018-06-17T12:19:05Z</time>
      </trkpt>
      <trkpt lat="4.6098820" lon="-74.1944190">
        <ele>2548.0</ele>
        <time>2018-06-17T12:19:14Z</time>
      </trkpt>
      <trkpt lat="4.6097570" lon="-74.1938910">
        <ele>2548.0</ele>
        <time>2018-06-17T12:19:22Z</time>
      </trkpt>
      <trkpt lat="4.6096370" lon="-74.1933030">
        <ele>2550.0</ele>
        <time>2018-06-17T12:19:30Z</time>
      </trkpt>
      <trkpt lat="4.6095660" lon="-74.1927740">
        <ele>2552.8</ele>
        <time>2018-06-17T12:19:37Z</time>
      </trkpt>
      <trkpt lat="4.6097260" lon="-74.1922220">
        <ele>2550.0</ele>
        <time>2018-06-17T12:19:44Z</time>
      </trkpt>
      <trkpt lat="4.6099060" lon="-74.1916830">
        <ele>2549.2</ele>
        <time>2018-06-17T12:19:51Z</time>
      </trkpt>
      <trkpt lat="4.6099550" lon="-74.1914690">
        <ele>2549.0</ele>
        <time>2018-06-17T12:19:54Z</time>
      </trkpt>
      <trkpt lat="4.6099960" lon="-74.1912670">
        <ele>2549.0</ele>
        <time>2018-06-17T12:19:57Z</time>
      </trkpt>
      <trkpt lat="4.6100790" lon="-74.1909160">
        <ele>2549.1</ele>
        <time>2018-06-17T12:20:02Z</time>
      </trkpt>
      <trkpt lat="4.6101780" lon="-74.1903510">
        <ele>2548.0</ele>
        <time>2018-06-17T12:20:10Z</time>
      </trkpt>
      <trkpt lat="4.6102090" lon="-74.1900760">
        <ele>2548.5</ele>
        <time>2018-06-17T12:20:14Z</time>
      </trkpt>
      <trkpt lat="4.6101880" lon="-74.1898480">
        <ele>2549.0</ele>
        <time>2018-06-17T12:20:17Z</time>
      </trkpt>
      <trkpt lat="4.6100960" lon="-74.1894920">
        <ele>2549.0</ele>
        <time>2018-06-17T12:20:22Z</time>
      </trkpt>
      <trkpt lat="4.6100290" lon="-74.1892420">
        <ele>2549.0</ele>
        <time>2018-06-17T12:20:26Z</time>
      </trkpt>
      <trkpt lat="4.6099570" lon="-74.1886700">
        <ele>2550.9</ele>
        <time>2018-06-17T12:20:35Z</time>
      </trkpt>
      <trkpt lat="4.6098940" lon="-74.1883340">
        <ele>2552.0</ele>
        <time>2018-06-17T12:20:44Z</time>
      </trkpt>
      <trkpt lat="4.6098670" lon="-74.1883380">
        <ele>2552.0</ele>
        <time>2018-06-17T12:21:50Z</time>
      </trkpt>
      <trkpt lat="4.6099140" lon="-74.1883110">
        <ele>2552.0</ele>
        <time>2018-06-17T12:22:07Z</time>
      </trkpt>
      <trkpt lat="4.6098640" lon="-74.1877650">
        <ele>2552.6</ele>
        <time>2018-06-17T12:22:23Z</time>
      </trkpt>
      <trkpt lat="4.6098390" lon="-74.1877200">
        <ele>2552.3</ele>
        <time>2018-06-17T12:22:25Z</time>
      </trkpt>
      <trkpt lat="4.6097080" lon="-74.1877500">
        <ele>2552.9</ele>
        <time>2018-06-17T12:22:29Z</time>
      </trkpt>
      <trkpt lat="4.6096710" lon="-74.1877690">
        <ele>2553.1</ele>
        <time>2018-06-17T12:22:30Z</time>
      </trkpt>
      <trkpt lat="4.6095350" lon="-74.1878680">
        <ele>2552.7</ele>
        <time>2018-06-17T12:22:34Z</time>
      </trkpt>
      <trkpt lat="4.6090460" lon="-74.1881230">
        <ele>2554.7</ele>
        <time>2018-06-17T12:22:48Z</time>
      </trkpt>
      <trkpt lat="4.6087280" lon="-74.1882700">
        <ele>2553.6</ele>
        <time>2018-06-17T12:22:58Z</time>
      </trkpt>
      <trkpt lat="4.6092300" lon="-74.1880070">
        <ele>2554.5</ele>
        <time>2018-06-17T12:23:15Z</time>
      </trkpt>
      <trkpt lat="4.6097210" lon="-74.1877470">
        <ele>2552.9</ele>
        <time>2018-06-17T12:23:26Z</time>
      </trkpt>
      <trkpt lat="4.6097710" lon="-74.1877250">
        <ele>2552.6</ele>
        <time>2018-06-17T12:23:27Z</time>
      </trkpt>
      <trkpt lat="4.6098530" lon="-74.1877010">
        <ele>2552.2</ele>
        <time>2018-06-17T12:23:29Z</time>
      </trkpt>
      <trkpt lat="4.6099240" lon="-74.1878650">
        <ele>2552.7</ele>
        <time>2018-06-17T12:23:34Z</time>
      </trkpt>
      <trkpt lat="4.6099660" lon="-74.1884300">
        <ele>2551.3</ele>
        <time>2018-06-17T12:23:42Z</time>
      </trkpt>
      <trkpt lat="4.6100180" lon="-74.1889930">
        <ele>2551.9</ele>
        <time>2018-06-17T12:23:49Z</time>
      </trkpt>
      <trkpt lat="4.6100740" lon="-74.1893800">
        <ele>2549.0</ele>
        <time>2018-06-17T12:23:54Z</time>
      </trkpt>
      <trkpt lat="4.6102320" lon="-74.1899730">
        <ele>2548.6</ele>
        <time>2018-06-17T12:24:02Z</time>
      </trkpt>
      <trkpt lat="4.6101700" lon="-74.1905610">
        <ele>2551.0</ele>
        <time>2018-06-17T12:24:10Z</time>
      </trkpt>
      <trkpt lat="4.6100520" lon="-74.1911200">
        <ele>2549.0</ele>
        <time>2018-06-17T12:24:17Z</time>
      </trkpt>
      <trkpt lat="4.6099260" lon="-74.1917390">
        <ele>2549.0</ele>
        <time>2018-06-17T12:24:24Z</time>
      </trkpt>
      <trkpt lat="4.6097400" lon="-74.1922720">
        <ele>2544.9</ele>
        <time>2018-06-17T12:24:30Z</time>
      </trkpt>
      <trkpt lat="4.6095670" lon="-74.1928690">
        <ele>2550.0</ele>
        <time>2018-06-17T12:24:37Z</time>
      </trkpt>
      <trkpt lat="4.6096770" lon="-74.1934050">
        <ele>2549.4</ele>
        <time>2018-06-17T12:24:43Z</time>
      </trkpt>
      <trkpt lat="4.6098040" lon="-74.1939350">
        <ele>2548.0</ele>
        <time>2018-06-17T12:24:49Z</time>
      </trkpt>
      <trkpt lat="4.6099050" lon="-74.1944490">
        <ele>2548.0</ele>
        <time>2018-06-17T12:24:55Z</time>
      </trkpt>
      <trkpt lat="4.6100330" lon="-74.1950390">
        <ele>2548.1</ele>
        <time>2018-06-17T12:25:04Z</time>
      </trkpt>
      <trkpt lat="4.6101750" lon="-74.1956380">
        <ele>2549.5</ele>
        <time>2018-06-17T12:25:11Z</time>
      </trkpt>
      <trkpt lat="4.6102990" lon="-74.1962010">
        <ele>2548.8</ele>
        <time>2018-06-17T12:25:17Z</time>
      </trkpt>
      <trkpt lat="4.6104160" lon="-74.1967910">
        <ele>2549.7</ele>
        <time>2018-06-17T12:25:23Z</time>
      </trkpt>
      <trkpt lat="4.6105250" lon="-74.1973620">
        <ele>2547.6</ele>
        <time>2018-06-17T12:25:29Z</time>
      </trkpt>
      <trkpt lat="4.6106480" lon="-74.1979630">
        <ele>2547.0</ele>
        <time>2018-06-17T12:25:36Z</time>
      </trkpt>
      <trkpt lat="4.6107600" lon="-74.1985360">
        <ele>2549.5</ele>
        <time>2018-06-17T12:25:42Z</time>
      </trkpt>
      <trkpt lat="4.6108810" lon="-74.1991230">
        <ele>2547.2</ele>
        <time>2018-06-17T12:25:48Z</time>
      </trkpt>
      <trkpt lat="4.6110000" lon="-74.1997050">
        <ele>2548.0</ele>
        <time>2018-06-17T12:25:54Z</time>
      </trkpt>
      <trkpt lat="4.6111100" lon="-74.2002580">
        <ele>2547.0</ele>
        <time>2018-06-17T12:26:00Z</time>
      </trkpt>
      <trkpt lat="4.6111900" lon="-74.2006370">
        <ele>2547.1</ele>
        <time>2018-06-17T12:26:06Z</time>
      </trkpt>
      <trkpt lat="4.6112990" lon="-74.2012340">
        <ele>2545.8</ele>
        <time>2018-06-17T12:26:15Z</time>
      </trkpt>
      <trkpt lat="4.6114050" lon="-74.2017680">
        <ele>2543.0</ele>
        <time>2018-06-17T12:26:22Z</time>
      </trkpt>
      <trkpt lat="4.6114350" lon="-74.2018270">
        <ele>2544.0</ele>
        <time>2018-06-17T12:26:23Z</time>
      </trkpt>
      <trkpt lat="4.6117310" lon="-74.2017670">
        <ele>2542.5</ele>
        <time>2018-06-17T12:26:29Z</time>
      </trkpt>
      <trkpt lat="4.6121800" lon="-74.2014260">
        <ele>2545.1</ele>
        <time>2018-06-17T12:26:39Z</time>
      </trkpt>
      <trkpt lat="4.6126580" lon="-74.2011050">
        <ele>2545.8</ele>
        <time>2018-06-17T12:26:51Z</time>
      </trkpt>
      <trkpt lat="4.6127930" lon="-74.2010380">
        <ele>2547.2</ele>
        <time>2018-06-17T12:26:54Z</time>
      </trkpt>
      <trkpt lat="4.6129440" lon="-74.2008890">
        <ele>2548.8</ele>
        <time>2018-06-17T12:26:58Z</time>
      </trkpt>
      <trkpt lat="4.6132580" lon="-74.2005000">
        <ele>2545.6</ele>
        <time>2018-06-17T12:27:07Z</time>
      </trkpt>
      <trkpt lat="4.6134310" lon="-74.1999560">
        <ele>2546.1</ele>
        <time>2018-06-17T12:27:18Z</time>
      </trkpt>
      <trkpt lat="4.6134350" lon="-74.1998510">
        <ele>2546.7</ele>
        <time>2018-06-17T12:27:20Z</time>
      </trkpt>
      <trkpt lat="4.6133390" lon="-74.1993100">
        <ele>2549.9</ele>
        <time>2018-06-17T12:27:30Z</time>
      </trkpt>
      <trkpt lat="4.6132150" lon="-74.1987600">
        <ele>2548.2</ele>
        <time>2018-06-17T12:27:40Z</time>
      </trkpt>
      <trkpt lat="4.6131030" lon="-74.1981920">
        <ele>2546.7</ele>
        <time>2018-06-17T12:27:54Z</time>
      </trkpt>
      <trkpt lat="4.6130110" lon="-74.1976080">
        <ele>2546.0</ele>
        <time>2018-06-17T12:28:05Z</time>
      </trkpt>
      <trkpt lat="4.6130240" lon="-74.1970550">
        <ele>2548.5</ele>
        <time>2018-06-17T12:28:15Z</time>
      </trkpt>
      <trkpt lat="4.6130520" lon="-74.1964750">
        <ele>2547.0</ele>
        <time>2018-06-17T12:28:26Z</time>
      </trkpt>
      <trkpt lat="4.6130030" lon="-74.1958940">
        <ele>2546.3</ele>
        <time>2018-06-17T12:28:37Z</time>
      </trkpt>
      <trkpt lat="4.6129890" lon="-74.1953960">
        <ele>2545.8</ele>
        <time>2018-06-17T12:28:46Z</time>
      </trkpt>
      <trkpt lat="4.6130200" lon="-74.1951920">
        <ele>2546.0</ele>
        <time>2018-06-17T12:28:50Z</time>
      </trkpt>
      <trkpt lat="4.6133920" lon="-74.1948180">
        <ele>2546.0</ele>
        <time>2018-06-17T12:29:01Z</time>
      </trkpt>
      <trkpt lat="4.6135510" lon="-74.1945630">
        <ele>2545.5</ele>
        <time>2018-06-17T12:29:07Z</time>
      </trkpt>
      <trkpt lat="4.6139590" lon="-74.1941730">
        <ele>2543.3</ele>
        <time>2018-06-17T12:29:18Z</time>
      </trkpt>
      <trkpt lat="4.6143720" lon="-74.1937890">
        <ele>2543.8</ele>
        <time>2018-06-17T12:29:28Z</time>
      </trkpt>
      <trkpt lat="4.6147900" lon="-74.1933960">
        <ele>2543.9</ele>
        <time>2018-06-17T12:29:38Z</time>
      </trkpt>
      <trkpt lat="4.6151960" lon="-74.1930190">
        <ele>2547.5</ele>
        <time>2018-06-17T12:29:47Z</time>
      </trkpt>
      <trkpt lat="4.6155840" lon="-74.1925840">
        <ele>2542.7</ele>
        <time>2018-06-17T12:29:57Z</time>
      </trkpt>
      <trkpt lat="4.6158720" lon="-74.1921250">
        <ele>2544.1</ele>
        <time>2018-06-17T12:30:08Z</time>
      </trkpt>
      <trkpt lat="4.6160850" lon="-74.1915940">
        <ele>2542.9</ele>
        <time>2018-06-17T12:30:21Z</time>
      </trkpt>
      <trkpt lat="4.6162230" lon="-74.1910240">
        <ele>2545.0</ele>
        <time>2018-06-17T12:30:34Z</time>
      </trkpt>
      <trkpt lat="4.6163830" lon="-74.1904360">
        <ele>2547.0</ele>
        <time>2018-06-17T12:30:43Z</time>
      </trkpt>
      <trkpt lat="4.6164080" lon="-74.1903630">
        <ele>2547.0</ele>
        <time>2018-06-17T12:30:44Z</time>
      </trkpt>
      <trkpt lat="4.6166550" lon="-74.1898190">
        <ele>2548.7</ele>
        <time>2018-06-17T12:30:53Z</time>
      </trkpt>
      <trkpt lat="4.6169790" lon="-74.1893620">
        <ele>2546.0</ele>
        <time>2018-06-17T12:31:03Z</time>
      </trkpt>
      <trkpt lat="4.6174000" lon="-74.1889820">
        <ele>2546.5</ele>
        <time>2018-06-17T12:31:13Z</time>
      </trkpt>
      <trkpt lat="4.6174810" lon="-74.1889200">
        <ele>2546.2</ele>
        <time>2018-06-17T12:31:15Z</time>
      </trkpt>
      <trkpt lat="4.6176320" lon="-74.1887940">
        <ele>2545.4</ele>
        <time>2018-06-17T12:31:19Z</time>
      </trkpt>
      <trkpt lat="4.6176130" lon="-74.1886530">
        <ele>2546.0</ele>
        <time>2018-06-17T12:31:31Z</time>
      </trkpt>
      <trkpt lat="4.6175670" lon="-74.1886500">
        <ele>2546.0</ele>
        <time>2018-06-17T12:31:34Z</time>
      </trkpt>
      <trkpt lat="4.6175920" lon="-74.1885700">
        <ele>2546.0</ele>
        <time>2018-06-17T12:32:16Z</time>
      </trkpt>
      <trkpt lat="4.6177410" lon="-74.1884630">
        <ele>2546.6</ele>
        <time>2018-06-17T12:32:22Z</time>
      </trkpt>
      <trkpt lat="4.6178820" lon="-74.1882370">
        <ele>2548.0</ele>
        <time>2018-06-17T12:32:28Z</time>
      </trkpt>
      <trkpt lat="4.6179830" lon="-74.1880680">
        <ele>2548.0</ele>
        <time>2018-06-17T12:32:32Z</time>
      </trkpt>
      <trkpt lat="4.6182420" lon="-74.1875730">
        <ele>2547.4</ele>
        <time>2018-06-17T12:32:43Z</time>
      </trkpt>
      <trkpt lat="4.6184690" lon="-74.1870390">
        <ele>2544.7</ele>
        <time>2018-06-17T12:32:51Z</time>
      </trkpt>
      <trkpt lat="4.6182210" lon="-74.1865430">
        <ele>2548.0</ele>
        <time>2018-06-17T12:32:58Z</time>
      </trkpt>
      <trkpt lat="4.6181750" lon="-74.1864720">
        <ele>2548.0</ele>
        <time>2018-06-17T12:32:59Z</time>
      </trkpt>
      <trkpt lat="4.6177530" lon="-74.1861080">
        <ele>2545.7</ele>
        <time>2018-06-17T12:33:05Z</time>
      </trkpt>
      <trkpt lat="4.6172810" lon="-74.1857290">
        <ele>2546.0</ele>
        <time>2018-06-17T12:33:11Z</time>
      </trkpt>
      <trkpt lat="4.6167930" lon="-74.1853390">
        <ele>2545.6</ele>
        <time>2018-06-17T12:33:17Z</time>
      </trkpt>
      <trkpt lat="4.6163290" lon="-74.1849700">
        <ele>2543.2</ele>
        <time>2018-06-17T12:33:23Z</time>
      </trkpt>
      <trkpt lat="4.6158470" lon="-74.1845640">
        <ele>2545.6</ele>
        <time>2018-06-17T12:33:30Z</time>
      </trkpt>
      <trkpt lat="4.6154020" lon="-74.1842280">
        <ele>2546.5</ele>
        <time>2018-06-17T12:33:36Z</time>
      </trkpt>
      <trkpt lat="4.6149190" lon="-74.1839670">
        <ele>2545.8</ele>
        <time>2018-06-17T12:33:41Z</time>
      </trkpt>
      <trkpt lat="4.6143750" lon="-74.1837220">
        <ele>2549.6</ele>
        <time>2018-06-17T12:33:46Z</time>
      </trkpt>
      <trkpt lat="4.6138320" lon="-74.1834770">
        <ele>2551.9</ele>
        <time>2018-06-17T12:33:51Z</time>
      </trkpt>
      <trkpt lat="4.6132840" lon="-74.1832260">
        <ele>2553.2</ele>
        <time>2018-06-17T12:33:56Z</time>
      </trkpt>
      <trkpt lat="4.6127320" lon="-74.1829780">
        <ele>2548.7</ele>
        <time>2018-06-17T12:34:01Z</time>
      </trkpt>
      <trkpt lat="4.6121620" lon="-74.1827240">
        <ele>2548.0</ele>
        <time>2018-06-17T12:34:06Z</time>
      </trkpt>
      <trkpt lat="4.6115900" lon="-74.1824620">
        <ele>2546.0</ele>
        <time>2018-06-17T12:34:11Z</time>
      </trkpt>
      <trkpt lat="4.6110380" lon="-74.1822270">
        <ele>2546.0</ele>
        <time>2018-06-17T12:34:16Z</time>
      </trkpt>
      <trkpt lat="4.6105010" lon="-74.1820290">
        <ele>2551.1</ele>
        <time>2018-06-17T12:34:21Z</time>
      </trkpt>
      <trkpt lat="4.6099870" lon="-74.1818290">
        <ele>2555.0</ele>
        <time>2018-06-17T12:34:26Z</time>
      </trkpt>
      <trkpt lat="4.6094490" lon="-74.1816180">
        <ele>2555.1</ele>
        <time>2018-06-17T12:34:32Z</time>
      </trkpt>
      <trkpt lat="4.6091770" lon="-74.1815200">
        <ele>2555.5</ele>
        <time>2018-06-17T12:34:36Z</time>
      </trkpt>
      <trkpt lat="4.6089270" lon="-74.1815540">
        <ele>2555.2</ele>
        <time>2018-06-17T12:34:41Z</time>
      </trkpt>
      <trkpt lat="4.6088090" lon="-74.1816020">
        <ele>2554.0</ele>
        <time>2018-06-17T12:34:44Z</time>
      </trkpt>
      <trkpt lat="4.6085480" lon="-74.1815770">
        <ele>2554.0</ele>
        <time>2018-06-17T12:34:51Z</time>
      </trkpt>
      <trkpt lat="4.6084210" lon="-74.1814520">
        <ele>2554.0</ele>
        <time>2018-06-17T12:34:55Z</time>
      </trkpt>
      <trkpt lat="4.6083650" lon="-74.1812540">
        <ele>2554.0</ele>
        <time>2018-06-17T12:34:59Z</time>
      </trkpt>
      <trkpt lat="4.6083670" lon="-74.1812040">
        <ele>2554.0</ele>
        <time>2018-06-17T12:35:00Z</time>
      </trkpt>
      <trkpt lat="4.6086040" lon="-74.1809150">
        <ele>2554.0</ele>
        <time>2018-06-17T12:35:07Z</time>
      </trkpt>
      <trkpt lat="4.6090710" lon="-74.1806240">
        <ele>2549.8</ele>
        <time>2018-06-17T12:35:16Z</time>
      </trkpt>
      <trkpt lat="4.6094470" lon="-74.1801940">
        <ele>2547.2</ele>
        <time>2018-06-17T12:35:24Z</time>
      </trkpt>
      <trkpt lat="4.6098580" lon="-74.1797540">
        <ele>2547.0</ele>
        <time>2018-06-17T12:35:32Z</time>
      </trkpt>
      <trkpt lat="4.6102170" lon="-74.1793280">
        <ele>2543.3</ele>
        <time>2018-06-17T12:35:39Z</time>
      </trkpt>
      <trkpt lat="4.6106080" lon="-74.1788660">
        <ele>2545.8</ele>
        <time>2018-06-17T12:35:46Z</time>
      </trkpt>
      <trkpt lat="4.6109910" lon="-74.1784200">
        <ele>2550.7</ele>
        <time>2018-06-17T12:35:53Z</time>
      </trkpt>
      <trkpt lat="4.6113910" lon="-74.1779700">
        <ele>2551.6</ele>
        <time>2018-06-17T12:36:00Z</time>
      </trkpt>
      <trkpt lat="4.6118060" lon="-74.1775130">
        <ele>2553.0</ele>
        <time>2018-06-17T12:36:07Z</time>
      </trkpt>
      <trkpt lat="4.6121870" lon="-74.1771050">
        <ele>2550.9</ele>
        <time>2018-06-17T12:36:14Z</time>
      </trkpt>
      <trkpt lat="4.6125650" lon="-74.1767050">
        <ele>2552.0</ele>
        <time>2018-06-17T12:36:21Z</time>
      </trkpt>
      <trkpt lat="4.6127540" lon="-74.1764930">
        <ele>2552.0</ele>
        <time>2018-06-17T12:36:25Z</time>
      </trkpt>
      <trkpt lat="4.6128620" lon="-74.1763650">
        <ele>2552.0</ele>
        <time>2018-06-17T12:36:28Z</time>
      </trkpt>
      <trkpt lat="4.6126650" lon="-74.1760260">
        <ele>2557.3</ele>
        <time>2018-06-17T12:36:42Z</time>
      </trkpt>
      <trkpt lat="4.6122580" lon="-74.1756340">
        <ele>2558.0</ele>
        <time>2018-06-17T12:36:51Z</time>
      </trkpt>
      <trkpt lat="4.6119770" lon="-74.1753800">
        <ele>2558.0</ele>
        <time>2018-06-17T12:36:57Z</time>
      </trkpt>
      <trkpt lat="4.6117990" lon="-74.1751900">
        <ele>2558.0</ele>
        <time>2018-06-17T12:37:01Z</time>
      </trkpt>
      <trkpt lat="4.6113930" lon="-74.1748260">
        <ele>2559.0</ele>
        <time>2018-06-17T12:37:09Z</time>
      </trkpt>
      <trkpt lat="4.6110590" lon="-74.1745200">
        <ele>2559.0</ele>
        <time>2018-06-17T12:37:18Z</time>
      </trkpt>
      <trkpt lat="4.6110190" lon="-74.1745150">
        <ele>2559.0</ele>
        <time>2018-06-17T12:37:20Z</time>
      </trkpt>
      <trkpt lat="4.6109890" lon="-74.1745170">
        <ele>2559.0</ele>
        <time>2018-06-17T12:37:25Z</time>
      </trkpt>
      <trkpt lat="4.6109130" lon="-74.1744620">
        <ele>2559.0</ele>
        <time>2018-06-17T12:37:30Z</time>
      </trkpt>
      <trkpt lat="4.6108910" lon="-74.1744080">
        <ele>2559.0</ele>
        <time>2018-06-17T12:37:34Z</time>
      </trkpt>
      <trkpt lat="4.6108500" lon="-74.1742800">
        <ele>2558.9</ele>
        <time>2018-06-17T12:37:39Z</time>
      </trkpt>
      <trkpt lat="4.6106800" lon="-74.1741920">
        <ele>2558.0</ele>
        <time>2018-06-17T12:37:45Z</time>
      </trkpt>
      <trkpt lat="4.6105550" lon="-74.1740750">
        <ele>2557.6</ele>
        <time>2018-06-17T12:37:49Z</time>
      </trkpt>
      <trkpt lat="4.6104200" lon="-74.1739570">
        <ele>2558.3</ele>
        <time>2018-06-17T12:37:55Z</time>
      </trkpt>
      <trkpt lat="4.6102070" lon="-74.1737720">
        <ele>2558.3</ele>
        <time>2018-06-17T12:38:01Z</time>
      </trkpt>
      <trkpt lat="4.6098760" lon="-74.1736180">
        <ele>2559.0</ele>
        <time>2018-06-17T12:38:11Z</time>
      </trkpt>
      <trkpt lat="4.6096370" lon="-74.1734520">
        <ele>2559.8</ele>
        <time>2018-06-17T12:38:17Z</time>
      </trkpt>
      <trkpt lat="4.6091590" lon="-74.1731170">
        <ele>2559.8</ele>
        <time>2018-06-17T12:38:26Z</time>
      </trkpt>
      <trkpt lat="4.6089020" lon="-74.1728970">
        <ele>2559.0</ele>
        <time>2018-06-17T12:38:31Z</time>
      </trkpt>
      <trkpt lat="4.6088150" lon="-74.1728350">
        <ele>2559.0</ele>
        <time>2018-06-17T12:38:33Z</time>
      </trkpt>
      <trkpt lat="4.6087200" lon="-74.1727810">
        <ele>2559.0</ele>
        <time>2018-06-17T12:38:36Z</time>
      </trkpt>
      <trkpt lat="4.6085290" lon="-74.1727160">
        <ele>2559.0</ele>
        <time>2018-06-17T12:38:41Z</time>
      </trkpt>
      <trkpt lat="4.6081040" lon="-74.1723480">
        <ele>2556.5</ele>
        <time>2018-06-17T12:38:50Z</time>
      </trkpt>
      <trkpt lat="4.6077220" lon="-74.1720400">
        <ele>2554.0</ele>
        <time>2018-06-17T12:38:58Z</time>
      </trkpt>
      <trkpt lat="4.6077860" lon="-74.1717900">
        <ele>2552.7</ele>
        <time>2018-06-17T12:39:03Z</time>
      </trkpt>
      <trkpt lat="4.6080980" lon="-74.1713450">
        <ele>2554.5</ele>
        <time>2018-06-17T12:39:10Z</time>
      </trkpt>
      <trkpt lat="4.6084460" lon="-74.1708440">
        <ele>2556.1</ele>
        <time>2018-06-17T12:39:17Z</time>
      </trkpt>
      <trkpt lat="4.6087120" lon="-74.1704390">
        <ele>2554.8</ele>
        <time>2018-06-17T12:39:24Z</time>
      </trkpt>
      <trkpt lat="4.6088950" lon="-74.1702020">
        <ele>2555.0</ele>
        <time>2018-06-17T12:39:31Z</time>
      </trkpt>
      <trkpt lat="4.6091040" lon="-74.1699840">
        <ele>2553.9</ele>
        <time>2018-06-17T12:39:36Z</time>
      </trkpt>
      <trkpt lat="4.6094770" lon="-74.1698690">
        <ele>2552.0</ele>
        <time>2018-06-17T12:39:42Z</time>
      </trkpt>
      <trkpt lat="4.6097460" lon="-74.1697400">
        <ele>2552.0</ele>
        <time>2018-06-17T12:39:47Z</time>
      </trkpt>
      <trkpt lat="4.6098030" lon="-74.1694480">
        <ele>2553.8</ele>
        <time>2018-06-17T12:39:52Z</time>
      </trkpt>
      <trkpt lat="4.6097870" lon="-74.1688590">
        <ele>2554.0</ele>
        <time>2018-06-17T12:40:01Z</time>
      </trkpt>
      <trkpt lat="4.6098700" lon="-74.1686460">
        <ele>2553.2</ele>
        <time>2018-06-17T12:40:07Z</time>
      </trkpt>
      <trkpt lat="4.6099800" lon="-74.1686070">
        <ele>2552.0</ele>
        <time>2018-06-17T12:40:10Z</time>
      </trkpt>
      <trkpt lat="4.6100040" lon="-74.1684590">
        <ele>2552.4</ele>
        <time>2018-06-17T12:40:14Z</time>
      </trkpt>
      <trkpt lat="4.6100070" lon="-74.1678600">
        <ele>2551.3</ele>
        <time>2018-06-17T12:40:25Z</time>
      </trkpt>
      <trkpt lat="4.6100230" lon="-74.1676010">
        <ele>2553.1</ele>
        <time>2018-06-17T12:40:30Z</time>
      </trkpt>
      <trkpt lat="4.6100230" lon="-74.1670020">
        <ele>2554.0</ele>
        <time>2018-06-17T12:40:40Z</time>
      </trkpt>
      <trkpt lat="4.6099860" lon="-74.1666910">
        <ele>2554.9</ele>
        <time>2018-06-17T12:40:47Z</time>
      </trkpt>
      <trkpt lat="4.6098870" lon="-74.1665500">
        <ele>2553.3</ele>
        <time>2018-06-17T12:40:53Z</time>
      </trkpt>
      <trkpt lat="4.6098840" lon="-74.1661560">
        <ele>2552.9</ele>
        <time>2018-06-17T12:41:02Z</time>
      </trkpt>
      <trkpt lat="4.6098740" lon="-74.1660170">
        <ele>2553.1</ele>
        <time>2018-06-17T12:41:06Z</time>
      </trkpt>
      <trkpt lat="4.6098670" lon="-74.1659160">
        <ele>2553.4</ele>
        <time>2018-06-17T12:41:08Z</time>
      </trkpt>
      <trkpt lat="4.6098710" lon="-74.1656080">
        <ele>2554.0</ele>
        <time>2018-06-17T12:41:15Z</time>
      </trkpt>
      <trkpt lat="4.6102450" lon="-74.1655590">
        <ele>2553.0</ele>
        <time>2018-06-17T12:41:23Z</time>
      </trkpt>
      <trkpt lat="4.6104820" lon="-74.1655670">
        <ele>2553.0</ele>
        <time>2018-06-17T12:41:27Z</time>
      </trkpt>
      <trkpt lat="4.6106160" lon="-74.1653580">
        <ele>2553.0</ele>
        <time>2018-06-17T12:41:33Z</time>
      </trkpt>
      <trkpt lat="4.6106020" lon="-74.1647630">
        <ele>2552.5</ele>
        <time>2018-06-17T12:41:42Z</time>
      </trkpt>
      <trkpt lat="4.6105830" lon="-74.1641930">
        <ele>2550.0</ele>
        <time>2018-06-17T12:41:51Z</time>
      </trkpt>
      <trkpt lat="4.6106030" lon="-74.1636250">
        <ele>2552.0</ele>
        <time>2018-06-17T12:42:00Z</time>
      </trkpt>
      <trkpt lat="4.6106170" lon="-74.1635220">
        <ele>2552.0</ele>
        <time>2018-06-17T12:42:02Z</time>
      </trkpt>
      <trkpt lat="4.6106760" lon="-74.1633230">
        <ele>2551.7</ele>
        <time>2018-06-17T12:42:07Z</time>
      </trkpt>
      <trkpt lat="4.6106420" lon="-74.1629200">
        <ele>2551.9</ele>
        <time>2018-06-17T12:42:15Z</time>
      </trkpt>
      <trkpt lat="4.6106250" lon="-74.1624540">
        <ele>2552.3</ele>
        <time>2018-06-17T12:42:24Z</time>
      </trkpt>
      <trkpt lat="4.6106230" lon="-74.1623560">
        <ele>2552.2</ele>
        <time>2018-06-17T12:42:26Z</time>
      </trkpt>
      <trkpt lat="4.6105870" lon="-74.1621010">
        <ele>2551.9</ele>
        <time>2018-06-17T12:42:36Z</time>
      </trkpt>
      <trkpt lat="4.6105610" lon="-74.1619100">
        <ele>2552.8</ele>
        <time>2018-06-17T12:42:43Z</time>
      </trkpt>
      <trkpt lat="4.6105570" lon="-74.1618700">
        <ele>2553.2</ele>
        <time>2018-06-17T12:42:44Z</time>
      </trkpt>
      <trkpt lat="4.6104330" lon="-74.1614310">
        <ele>2556.0</ele>
        <time>2018-06-17T12:42:58Z</time>
      </trkpt>
      <trkpt lat="4.6102800" lon="-74.1614230">
        <ele>2558.6</ele>
        <time>2018-06-17T12:43:02Z</time>
      </trkpt>
      <trkpt lat="4.6097270" lon="-74.1614690">
        <ele>2559.1</ele>
        <time>2018-06-17T12:43:11Z</time>
      </trkpt>
      <trkpt lat="4.6091250" lon="-74.1615080">
        <ele>2552.9</ele>
        <time>2018-06-17T12:43:19Z</time>
      </trkpt>
      <trkpt lat="4.6085670" lon="-74.1615360">
        <ele>2551.0</ele>
        <time>2018-06-17T12:43:26Z</time>
      </trkpt>
      <trkpt lat="4.6079760" lon="-74.1615800">
        <ele>2551.0</ele>
        <time>2018-06-17T12:43:33Z</time>
      </trkpt>
      <trkpt lat="4.6073630" lon="-74.1616310">
        <ele>2555.4</ele>
        <time>2018-06-17T12:43:40Z</time>
      </trkpt>
      <trkpt lat="4.6067670" lon="-74.1616810">
        <ele>2552.5</ele>
        <time>2018-06-17T12:43:47Z</time>
      </trkpt>
      <trkpt lat="4.6061380" lon="-74.1617260">
        <ele>2554.3</ele>
        <time>2018-06-17T12:43:54Z</time>
      </trkpt>
      <trkpt lat="4.6055260" lon="-74.1617750">
        <ele>2551.1</ele>
        <time>2018-06-17T12:44:01Z</time>
      </trkpt>
      <trkpt lat="4.6049290" lon="-74.1618230">
        <ele>2556.5</ele>
        <time>2018-06-17T12:44:08Z</time>
      </trkpt>
      <trkpt lat="4.6043490" lon="-74.1618670">
        <ele>2560.2</ele>
        <time>2018-06-17T12:44:15Z</time>
      </trkpt>
      <trkpt lat="4.6037990" lon="-74.1619150">
        <ele>2560.8</ele>
        <time>2018-06-17T12:44:23Z</time>
      </trkpt>
      <trkpt lat="4.6034150" lon="-74.1619650">
        <ele>2563.9</ele>
        <time>2018-06-17T12:44:33Z</time>
      </trkpt>
      <trkpt lat="4.6028360" lon="-74.1620090">
        <ele>2561.0</ele>
        <time>2018-06-17T12:44:45Z</time>
      </trkpt>
      <trkpt lat="4.6022580" lon="-74.1620550">
        <ele>2561.7</ele>
        <time>2018-06-17T12:44:57Z</time>
      </trkpt>
      <trkpt lat="4.6017720" lon="-74.1621050">
        <ele>2560.3</ele>
        <time>2018-06-17T12:45:06Z</time>
      </trkpt>
      <trkpt lat="4.6015650" lon="-74.1620590">
        <ele>2560.8</ele>
        <time>2018-06-17T12:45:10Z</time>
      </trkpt>
      <trkpt lat="4.6015160" lon="-74.1620500">
        <ele>2561.1</ele>
        <time>2018-06-17T12:45:11Z</time>
      </trkpt>
      <trkpt lat="4.6009640" lon="-74.1620860">
        <ele>2558.8</ele>
        <time>2018-06-17T12:45:22Z</time>
      </trkpt>
      <trkpt lat="4.6004050" lon="-74.1621000">
        <ele>2561.2</ele>
        <time>2018-06-17T12:45:34Z</time>
      </trkpt>
      <trkpt lat="4.5998360" lon="-74.1621400">
        <ele>2560.0</ele>
        <time>2018-06-17T12:45:47Z</time>
      </trkpt>
      <trkpt lat="4.5997860" lon="-74.1621280">
        <ele>2560.0</ele>
        <time>2018-06-17T12:45:49Z</time>
      </trkpt>
      <trkpt lat="4.5998870" lon="-74.1620980">
        <ele>2560.1</ele>
        <time>2018-06-17T12:45:53Z</time>
      </trkpt>
      <trkpt lat="4.5999320" lon="-74.1620980">
        <ele>2560.3</ele>
        <time>2018-06-17T12:45:54Z</time>
      </trkpt>
      <trkpt lat="4.6004780" lon="-74.1620540">
        <ele>2559.2</ele>
        <time>2018-06-17T12:46:02Z</time>
      </trkpt>
      <trkpt lat="4.6010740" lon="-74.1620110">
        <ele>2559.0</ele>
        <time>2018-06-17T12:46:09Z</time>
      </trkpt>
      <trkpt lat="4.6016280" lon="-74.1619670">
        <ele>2557.0</ele>
        <time>2018-06-17T12:46:15Z</time>
      </trkpt>
      <trkpt lat="4.6021910" lon="-74.1619220">
        <ele>2558.3</ele>
        <time>2018-06-17T12:46:21Z</time>
      </trkpt>
      <trkpt lat="4.6028070" lon="-74.1618750">
        <ele>2558.7</ele>
        <time>2018-06-17T12:46:27Z</time>
      </trkpt>
      <trkpt lat="4.6034590" lon="-74.1618320">
        <ele>2562.0</ele>
        <time>2018-06-17T12:46:33Z</time>
      </trkpt>
      <trkpt lat="4.6040470" lon="-74.1618070">
        <ele>2558.4</ele>
        <time>2018-06-17T12:46:38Z</time>
      </trkpt>
      <trkpt lat="4.6046500" lon="-74.1617580">
        <ele>2557.7</ele>
        <time>2018-06-17T12:46:43Z</time>
      </trkpt>
      <trkpt lat="4.6052400" lon="-74.1617120">
        <ele>2553.4</ele>
        <time>2018-06-17T12:46:48Z</time>
      </trkpt>
      <trkpt lat="4.6058290" lon="-74.1616620">
        <ele>2553.1</ele>
        <time>2018-06-17T12:46:53Z</time>
      </trkpt>
      <trkpt lat="4.6063980" lon="-74.1616160">
        <ele>2554.7</ele>
        <time>2018-06-17T12:46:58Z</time>
      </trkpt>
      <trkpt lat="4.6069690" lon="-74.1615690">
        <ele>2556.7</ele>
        <time>2018-06-17T12:47:03Z</time>
      </trkpt>
      <trkpt lat="4.6075430" lon="-74.1615290">
        <ele>2553.8</ele>
        <time>2018-06-17T12:47:08Z</time>
      </trkpt>
      <trkpt lat="4.6081490" lon="-74.1614790">
        <ele>2551.0</ele>
        <time>2018-06-17T12:47:13Z</time>
      </trkpt>
      <trkpt lat="4.6087630" lon="-74.1614260">
        <ele>2552.8</ele>
        <time>2018-06-17T12:47:18Z</time>
      </trkpt>
      <trkpt lat="4.6093700" lon="-74.1613630">
        <ele>2555.4</ele>
        <time>2018-06-17T12:47:23Z</time>
      </trkpt>
      <trkpt lat="4.6099620" lon="-74.1613150">
        <ele>2557.7</ele>
        <time>2018-06-17T12:47:28Z</time>
      </trkpt>
      <trkpt lat="4.6105350" lon="-74.1612680">
        <ele>2555.7</ele>
        <time>2018-06-17T12:47:33Z</time>
      </trkpt>
      <trkpt lat="4.6110970" lon="-74.1611990">
        <ele>2555.5</ele>
        <time>2018-06-17T12:47:38Z</time>
      </trkpt>
      <trkpt lat="4.6116590" lon="-74.1611560">
        <ele>2553.0</ele>
        <time>2018-06-17T12:47:44Z</time>
      </trkpt>
      <trkpt lat="4.6122350" lon="-74.1611890">
        <ele>2552.2</ele>
        <time>2018-06-17T12:47:51Z</time>
      </trkpt>
      <trkpt lat="4.6128420" lon="-74.1612940">
        <ele>2555.0</ele>
        <time>2018-06-17T12:47:58Z</time>
      </trkpt>
      <trkpt lat="4.6134300" lon="-74.1614770">
        <ele>2558.0</ele>
        <time>2018-06-17T12:48:05Z</time>
      </trkpt>
      <trkpt lat="4.6139630" lon="-74.1617380">
        <ele>2558.4</ele>
        <time>2018-06-17T12:48:12Z</time>
      </trkpt>
      <trkpt lat="4.6144460" lon="-74.1620150">
        <ele>2556.1</ele>
        <time>2018-06-17T12:48:19Z</time>
      </trkpt>
      <trkpt lat="4.6147630" lon="-74.1621650">
        <ele>2555.9</ele>
        <time>2018-06-17T12:48:24Z</time>
      </trkpt>
      <trkpt lat="4.6149780" lon="-74.1622710">
        <ele>2557.8</ele>
        <time>2018-06-17T12:48:28Z</time>
      </trkpt>
      <trkpt lat="4.6150580" lon="-74.1623430">
        <ele>2558.0</ele>
        <time>2018-06-17T12:48:31Z</time>
      </trkpt>
      <trkpt lat="4.6151120" lon="-74.1624080">
        <ele>2558.0</ele>
        <time>2018-06-17T12:48:35Z</time>
      </trkpt>
      <trkpt lat="4.6151390" lon="-74.1624330">
        <ele>2558.0</ele>
        <time>2018-06-17T12:48:40Z</time>
      </trkpt>
      <trkpt lat="4.6152380" lon="-74.1625050">
        <ele>2558.0</ele>
        <time>2018-06-17T12:48:44Z</time>
      </trkpt>
      <trkpt lat="4.6157350" lon="-74.1627910">
        <ele>2558.0</ele>
        <time>2018-06-17T12:48:52Z</time>
      </trkpt>
      <trkpt lat="4.6162710" lon="-74.1631070">
        <ele>2557.0</ele>
        <time>2018-06-17T12:48:59Z</time>
      </trkpt>
      <trkpt lat="4.6167940" lon="-74.1634120">
        <ele>2556.2</ele>
        <time>2018-06-17T12:49:05Z</time>
      </trkpt>
      <trkpt lat="4.6173260" lon="-74.1637360">
        <ele>2555.4</ele>
        <time>2018-06-17T12:49:11Z</time>
      </trkpt>
      <trkpt lat="4.6178800" lon="-74.1640580">
        <ele>2554.4</ele>
        <time>2018-06-17T12:49:17Z</time>
      </trkpt>
      <trkpt lat="4.6183650" lon="-74.1643340">
        <ele>2555.6</ele>
        <time>2018-06-17T12:49:22Z</time>
      </trkpt>
      <trkpt lat="4.6188430" lon="-74.1646210">
        <ele>2556.6</ele>
        <time>2018-06-17T12:49:27Z</time>
      </trkpt>
      <trkpt lat="4.6193970" lon="-74.1649610">
        <ele>2555.7</ele>
        <time>2018-06-17T12:49:33Z</time>
      </trkpt>
      <trkpt lat="4.6199480" lon="-74.1652720">
        <ele>2552.1</ele>
        <time>2018-06-17T12:49:39Z</time>
      </trkpt>
      <trkpt lat="4.6204770" lon="-74.1655730">
        <ele>2554.3</ele>
        <time>2018-06-17T12:49:45Z</time>
      </trkpt>
      <trkpt lat="4.6209300" lon="-74.1658260">
        <ele>2553.0</ele>
        <time>2018-06-17T12:49:52Z</time>
      </trkpt>
      <trkpt lat="4.6250090" lon="-74.1688460">
        <ele>2546.0</ele>
        <time>2018-06-17T12:51:56Z</time>
      </trkpt>
      <trkpt lat="4.6254980" lon="-74.1691250">
        <ele>2546.2</ele>
        <time>2018-06-17T12:52:05Z</time>
      </trkpt>
      <trkpt lat="4.6259250" lon="-74.1692960">
        <ele>2547.0</ele>
        <time>2018-06-17T12:52:13Z</time>
      </trkpt>
      <trkpt lat="4.6264560" lon="-74.1694740">
        <ele>2550.7</ele>
        <time>2018-06-17T12:52:28Z</time>
      </trkpt>
      <trkpt lat="4.6269840" lon="-74.1696350">
        <ele>2549.0</ele>
        <time>2018-06-17T12:52:46Z</time>
      </trkpt>
      <trkpt lat="4.6273810" lon="-74.1699190">
        <ele>2547.5</ele>
        <time>2018-06-17T12:53:01Z</time>
      </trkpt>
      <trkpt lat="4.6278270" lon="-74.1702410">
        <ele>2546.0</ele>
        <time>2018-06-17T12:53:13Z</time>
      </trkpt>
      <trkpt lat="4.6281700" lon="-74.1704770">
        <ele>2543.8</ele>
        <time>2018-06-17T12:53:24Z</time>
      </trkpt>
      <trkpt lat="4.6285040" lon="-74.1706120">
        <ele>2544.0</ele>
        <time>2018-06-17T12:53:48Z</time>
      </trkpt>
      <trkpt lat="4.6286550" lon="-74.1707270">
        <ele>2544.0</ele>
        <time>2018-06-17T12:53:54Z</time>
      </trkpt>
      <trkpt lat="4.6287000" lon="-74.1707650">
        <ele>2544.1</ele>
        <time>2018-06-17T12:53:55Z</time>
      </trkpt>
      <trkpt lat="4.6289660" lon="-74.1709110">
        <ele>2545.0</ele>
        <time>2018-06-17T12:53:59Z</time>
      </trkpt>
      <trkpt lat="4.6294700" lon="-74.1711600">
        <ele>2539.8</ele>
        <time>2018-06-17T12:54:05Z</time>
      </trkpt>
      <trkpt lat="4.6300200" lon="-74.1714520">
        <ele>2539.0</ele>
        <time>2018-06-17T12:54:11Z</time>
      </trkpt>
      <trkpt lat="4.6301140" lon="-74.1714920">
        <ele>2542.0</ele>
        <time>2018-06-17T12:54:12Z</time>
      </trkpt>
      <trkpt lat="4.6306700" lon="-74.1717680">
        <ele>2537.9</ele>
        <time>2018-06-17T12:54:18Z</time>
      </trkpt>
      <trkpt lat="4.6312290" lon="-74.1720660">
        <ele>2538.0</ele>
        <time>2018-06-17T12:54:24Z</time>
      </trkpt>
      <trkpt lat="4.6317460" lon="-74.1723400">
        <ele>2542.2</ele>
        <time>2018-06-17T12:54:30Z</time>
      </trkpt>
      <trkpt lat="4.6322880" lon="-74.1726170">
        <ele>2541.7</ele>
        <time>2018-06-17T12:54:38Z</time>
      </trkpt>
      <trkpt lat="4.6327710" lon="-74.1728680">
        <ele>2541.9</ele>
        <time>2018-06-17T12:54:47Z</time>
      </trkpt>
      <trkpt lat="4.6332910" lon="-74.1731420">
        <ele>2543.0</ele>
        <time>2018-06-17T12:54:57Z</time>
      </trkpt>
      <trkpt lat="4.6337770" lon="-74.1734140">
        <ele>2546.0</ele>
        <time>2018-06-17T12:55:07Z</time>
      </trkpt>
      <trkpt lat="4.6342670" lon="-74.1736790">
        <ele>2549.1</ele>
        <time>2018-06-17T12:55:17Z</time>
      </trkpt>
      <trkpt lat="4.6347870" lon="-74.1739620">
        <ele>2546.8</ele>
        <time>2018-06-17T12:55:28Z</time>
      </trkpt>
      <trkpt lat="4.6350640" lon="-74.1741090">
        <ele>2542.3</ele>
        <time>2018-06-17T12:55:34Z</time>
      </trkpt>
      <trkpt lat="4.6353020" lon="-74.1742510">
        <ele>2544.0</ele>
        <time>2018-06-17T12:55:41Z</time>
      </trkpt>
      <trkpt lat="4.6353050" lon="-74.1742520">
        <ele>2544.0</ele>
        <time>2018-06-17T12:55:44Z</time>
      </trkpt>
      <trkpt lat="4.6358170" lon="-74.1745180">
        <ele>2541.8</ele>
        <time>2018-06-17T12:56:00Z</time>
      </trkpt>
      <trkpt lat="4.6358960" lon="-74.1745670">
        <ele>2542.0</ele>
        <time>2018-06-17T12:56:02Z</time>
      </trkpt>
      <trkpt lat="4.6360340" lon="-74.1746740">
        <ele>2542.0</ele>
        <time>2018-06-17T12:56:06Z</time>
      </trkpt>
      <trkpt lat="4.6359920" lon="-74.1748740">
        <ele>2542.0</ele>
        <time>2018-06-17T12:56:11Z</time>
      </trkpt>
      <trkpt lat="4.6359240" lon="-74.1749410">
        <ele>2541.5</ele>
        <time>2018-06-17T12:56:13Z</time>
      </trkpt>
      <trkpt lat="4.6357020" lon="-74.1748700">
        <ele>2540.2</ele>
        <time>2018-06-17T12:56:17Z</time>
      </trkpt>
      <trkpt lat="4.6356440" lon="-74.1748320">
        <ele>2539.6</ele>
        <time>2018-06-17T12:56:18Z</time>
      </trkpt>
      <trkpt lat="4.6351220" lon="-74.1745580">
        <ele>2540.2</ele>
        <time>2018-06-17T12:56:25Z</time>
      </trkpt>
      <trkpt lat="4.6346210" lon="-74.1743020">
        <ele>2539.0</ele>
        <time>2018-06-17T12:56:31Z</time>
      </trkpt>
      <trkpt lat="4.6340940" lon="-74.1740120">
        <ele>2546.8</ele>
        <time>2018-06-17T12:56:38Z</time>
      </trkpt>
      <trkpt lat="4.6338090" lon="-74.1738660">
        <ele>2544.0</ele>
        <time>2018-06-17T12:56:42Z</time>
      </trkpt>
      <trkpt lat="4.6333290" lon="-74.1736080">
        <ele>2545.6</ele>
        <time>2018-06-17T12:56:49Z</time>
      </trkpt>
      <trkpt lat="4.6328400" lon="-74.1733530">
        <ele>2541.2</ele>
        <time>2018-06-17T12:56:56Z</time>
      </trkpt>
      <trkpt lat="4.6323590" lon="-74.1731020">
        <ele>2543.7</ele>
        <time>2018-06-17T12:57:02Z</time>
      </trkpt>
      <trkpt lat="4.6318420" lon="-74.1728310">
        <ele>2545.2</ele>
        <time>2018-06-17T12:57:09Z</time>
      </trkpt>
      <trkpt lat="4.6313540" lon="-74.1725630">
        <ele>2541.5</ele>
        <time>2018-06-17T12:57:16Z</time>
      </trkpt>
      <trkpt lat="4.6308960" lon="-74.1723120">
        <ele>2541.1</ele>
        <time>2018-06-17T12:57:23Z</time>
      </trkpt>
      <trkpt lat="4.6307400" lon="-74.1721850">
        <ele>2542.0</ele>
        <time>2018-06-17T12:57:26Z</time>
      </trkpt>
      <trkpt lat="4.6305010" lon="-74.1720240">
        <ele>2542.5</ele>
        <time>2018-06-17T12:57:35Z</time>
      </trkpt>
      <trkpt lat="4.6304830" lon="-74.1720160">
        <ele>2542.6</ele>
        <time>2018-06-17T12:58:09Z</time>
      </trkpt>
      <trkpt lat="4.6303720" lon="-74.1719630">
        <ele>2543.7</ele>
        <time>2018-06-17T12:58:15Z</time>
      </trkpt>
      <trkpt lat="4.6298560" lon="-74.1717070">
        <ele>2546.2</ele>
        <time>2018-06-17T12:58:32Z</time>
      </trkpt>
      <trkpt lat="4.6293650" lon="-74.1714470">
        <ele>2545.5</ele>
        <time>2018-06-17T12:58:46Z</time>
      </trkpt>
      <trkpt lat="4.6288830" lon="-74.1711640">
        <ele>2546.6</ele>
        <time>2018-06-17T12:59:00Z</time>
      </trkpt>
      <trkpt lat="4.6286250" lon="-74.1709550">
        <ele>2546.7</ele>
        <time>2018-06-17T12:59:14Z</time>
      </trkpt>
      <trkpt lat="4.6287870" lon="-74.1708190">
        <ele>2545.0</ele>
        <time>2018-06-17T12:59:25Z</time>
      </trkpt>
      <trkpt lat="4.6293070" lon="-74.1710800">
        <ele>2538.8</ele>
        <time>2018-06-17T12:59:32Z</time>
      </trkpt>
      <trkpt lat="4.6298240" lon="-74.1713410">
        <ele>2539.0</ele>
        <time>2018-06-17T12:59:38Z</time>
      </trkpt>
      <trkpt lat="4.6303590" lon="-74.1716110">
        <ele>2542.0</ele>
        <time>2018-06-17T12:59:44Z</time>
      </trkpt>
      <trkpt lat="4.6309050" lon="-74.1718960">
        <ele>2540.0</ele>
        <time>2018-06-17T12:59:50Z</time>
      </trkpt>
      <trkpt lat="4.6314670" lon="-74.1721940">
        <ele>2540.7</ele>
        <time>2018-06-17T12:59:56Z</time>
      </trkpt>
      <trkpt lat="4.6320260" lon="-74.1725160">
        <ele>2544.0</ele>
        <time>2018-06-17T13:00:02Z</time>
      </trkpt>
      <trkpt lat="4.6325960" lon="-74.1727810">
        <ele>2543.0</ele>
        <time>2018-06-17T13:00:08Z</time>
      </trkpt>
      <trkpt lat="4.6330930" lon="-74.1730860">
        <ele>2543.0</ele>
        <time>2018-06-17T13:00:15Z</time>
      </trkpt>
      <trkpt lat="4.6332030" lon="-74.1731690">
        <ele>2543.0</ele>
        <time>2018-06-17T13:00:19Z</time>
      </trkpt>
      <trkpt lat="4.6330740" lon="-74.1734740">
        <ele>2545.3</ele>
        <time>2018-06-17T13:00:35Z</time>
      </trkpt>
      <trkpt lat="4.6332120" lon="-74.1735720">
        <ele>2548.1</ele>
        <time>2018-06-17T13:00:41Z</time>
      </trkpt>
      <trkpt lat="4.6336930" lon="-74.1738360">
        <ele>2546.0</ele>
        <time>2018-06-17T13:00:55Z</time>
      </trkpt>
      <trkpt lat="4.6338170" lon="-74.1739520">
        <ele>2544.4</ele>
        <time>2018-06-17T13:01:02Z</time>
      </trkpt>
      <trkpt lat="4.6337390" lon="-74.1739230">
        <ele>2543.8</ele>
        <time>2018-06-17T13:01:08Z</time>
      </trkpt>
      <trkpt lat="4.6336480" lon="-74.1738140">
        <ele>2543.8</ele>
        <time>2018-06-17T13:01:12Z</time>
      </trkpt>
      <trkpt lat="4.6334050" lon="-74.1737040">
        <ele>2545.5</ele>
        <time>2018-06-17T13:01:18Z</time>
      </trkpt>
      <trkpt lat="4.6332870" lon="-74.1736300">
        <ele>2545.6</ele>
        <time>2018-06-17T13:01:21Z</time>
      </trkpt>
      <trkpt lat="4.6327930" lon="-74.1733780">
        <ele>2541.3</ele>
        <time>2018-06-17T13:01:33Z</time>
      </trkpt>
      <trkpt lat="4.6322760" lon="-74.1730990">
        <ele>2543.7</ele>
        <time>2018-06-17T13:01:45Z</time>
      </trkpt>
      <trkpt lat="4.6317780" lon="-74.1728410">
        <ele>2546.0</ele>
        <time>2018-06-17T13:01:56Z</time>
      </trkpt>
      <trkpt lat="4.6312870" lon="-74.1725820">
        <ele>2540.8</ele>
        <time>2018-06-17T13:02:06Z</time>
      </trkpt>
      <trkpt lat="4.6307910" lon="-74.1723160">
        <ele>2541.6</ele>
        <time>2018-06-17T13:02:16Z</time>
      </trkpt>
      <trkpt lat="4.6302840" lon="-74.1720440">
        <ele>2544.1</ele>
        <time>2018-06-17T13:02:27Z</time>
      </trkpt>
      <trkpt lat="4.6297820" lon="-74.1717790">
        <ele>2546.0</ele>
        <time>2018-06-17T13:02:39Z</time>
      </trkpt>
      <trkpt lat="4.6295480" lon="-74.1716550">
        <ele>2545.2</ele>
        <time>2018-06-17T13:02:45Z</time>
      </trkpt>
      <trkpt lat="4.6290550" lon="-74.1713860">
        <ele>2545.0</ele>
        <time>2018-06-17T13:02:58Z</time>
      </trkpt>
      <trkpt lat="4.6289750" lon="-74.1713520">
        <ele>2545.0</ele>
        <time>2018-06-17T13:03:00Z</time>
      </trkpt>
      <trkpt lat="4.6284840" lon="-74.1711130">
        <ele>2545.0</ele>
        <time>2018-06-17T13:03:18Z</time>
      </trkpt>
      <trkpt lat="4.6284210" lon="-74.1708830">
        <ele>2545.0</ele>
        <time>2018-06-17T13:03:26Z</time>
      </trkpt>
      <trkpt lat="4.6279770" lon="-74.1705370">
        <ele>2542.9</ele>
        <time>2018-06-17T13:03:35Z</time>
      </trkpt>
      <trkpt lat="4.6274860" lon="-74.1702350">
        <ele>2546.3</ele>
        <time>2018-06-17T13:03:42Z</time>
      </trkpt>
      <trkpt lat="4.6270170" lon="-74.1699600">
        <ele>2548.0</ele>
        <time>2018-06-17T13:03:49Z</time>
      </trkpt>
      <trkpt lat="4.6266950" lon="-74.1697970">
        <ele>2548.2</ele>
        <time>2018-06-17T13:03:54Z</time>
      </trkpt>
      <trkpt lat="4.6265600" lon="-74.1697240">
        <ele>2547.0</ele>
        <time>2018-06-17T13:03:56Z</time>
      </trkpt>
      <trkpt lat="4.6260280" lon="-74.1694780">
        <ele>2547.0</ele>
        <time>2018-06-17T13:04:02Z</time>
      </trkpt>
      <trkpt lat="4.6255090" lon="-74.1692580">
        <ele>2547.0</ele>
        <time>2018-06-17T13:04:07Z</time>
      </trkpt>
      <trkpt lat="4.6249980" lon="-74.1690330">
        <ele>2546.1</ele>
        <time>2018-06-17T13:04:12Z</time>
      </trkpt>
      <trkpt lat="4.6249040" lon="-74.1689670">
        <ele>2546.0</ele>
        <time>2018-06-17T13:04:13Z</time>
      </trkpt>
      <trkpt lat="4.6245390" lon="-74.1685520">
        <ele>2546.0</ele>
        <time>2018-06-17T13:04:18Z</time>
      </trkpt>
      <trkpt lat="4.6242050" lon="-74.1680990">
        <ele>2549.0</ele>
        <time>2018-06-17T13:04:23Z</time>
      </trkpt>
      <trkpt lat="4.6238320" lon="-74.1676950">
        <ele>2547.4</ele>
        <time>2018-06-17T13:04:28Z</time>
      </trkpt>
      <trkpt lat="4.6233040" lon="-74.1673770">
        <ele>2548.9</ele>
        <time>2018-06-17T13:04:34Z</time>
      </trkpt>
      <trkpt lat="4.6227850" lon="-74.1670700">
        <ele>2550.0</ele>
        <time>2018-06-17T13:04:40Z</time>
      </trkpt>
      <trkpt lat="4.6222700" lon="-74.1667720">
        <ele>2549.9</ele>
        <time>2018-06-17T13:04:46Z</time>
      </trkpt>
      <trkpt lat="4.6217300" lon="-74.1664800">
        <ele>2550.3</ele>
        <time>2018-06-17T13:04:53Z</time>
      </trkpt>
      <trkpt lat="4.6216570" lon="-74.1664560">
        <ele>2550.5</ele>
        <time>2018-06-17T13:04:54Z</time>
      </trkpt>
      <trkpt lat="4.6214780" lon="-74.1663990">
        <ele>2551.3</ele>
        <time>2018-06-17T13:04:57Z</time>
      </trkpt>
      <trkpt lat="4.6211910" lon="-74.1662550">
        <ele>2553.0</ele>
        <time>2018-06-17T13:05:05Z</time>
      </trkpt>
      <trkpt lat="4.6209510" lon="-74.1660760">
        <ele>2553.0</ele>
        <time>2018-06-17T13:05:12Z</time>
      </trkpt>
      <trkpt lat="4.6204370" lon="-74.1657890">
        <ele>2553.8</ele>
        <time>2018-06-17T13:05:23Z</time>
      </trkpt>
      <trkpt lat="4.6199260" lon="-74.1654990">
        <ele>2550.3</ele>
        <time>2018-06-17T13:05:33Z</time>
      </trkpt>
      <trkpt lat="4.6194220" lon="-74.1652050">
        <ele>2552.1</ele>
        <time>2018-06-17T13:05:43Z</time>
      </trkpt>
      <trkpt lat="4.6189330" lon="-74.1649170">
        <ele>2553.6</ele>
        <time>2018-06-17T13:05:52Z</time>
      </trkpt>
      <trkpt lat="4.6184320" lon="-74.1646170">
        <ele>2554.0</ele>
        <time>2018-06-17T13:06:02Z</time>
      </trkpt>
      <trkpt lat="4.6183450" lon="-74.1645610">
        <ele>2554.0</ele>
        <time>2018-06-17T13:06:04Z</time>
      </trkpt>
      <trkpt lat="4.6181420" lon="-74.1644570">
        <ele>2554.5</ele>
        <time>2018-06-17T13:06:15Z</time>
      </trkpt>
      <trkpt lat="4.6176650" lon="-74.1641420">
        <ele>2555.6</ele>
        <time>2018-06-17T13:06:58Z</time>
      </trkpt>
      <trkpt lat="4.6173030" lon="-74.1639510">
        <ele>2556.0</ele>
        <time>2018-06-17T13:07:05Z</time>
      </trkpt>
      <trkpt lat="4.6168240" lon="-74.1636720">
        <ele>2556.0</ele>
        <time>2018-06-17T13:07:14Z</time>
      </trkpt>
      <trkpt lat="4.6163500" lon="-74.1634010">
        <ele>2557.2</ele>
        <time>2018-06-17T13:07:23Z</time>
      </trkpt>
      <trkpt lat="4.6158550" lon="-74.1630990">
        <ele>2557.0</ele>
        <time>2018-06-17T13:07:35Z</time>
      </trkpt>
      <trkpt lat="4.6153590" lon="-74.1628310">
        <ele>2558.0</ele>
        <time>2018-06-17T13:07:52Z</time>
      </trkpt>
      <trkpt lat="4.6151170" lon="-74.1627150">
        <ele>2558.0</ele>
        <time>2018-06-17T13:08:04Z</time>
      </trkpt>
      <trkpt lat="4.6148200" lon="-74.1624700">
        <ele>2557.3</ele>
        <time>2018-06-17T13:08:13Z</time>
      </trkpt>
      <trkpt lat="4.6143010" lon="-74.1621770">
        <ele>2554.1</ele>
        <time>2018-06-17T13:08:21Z</time>
      </trkpt>
      <trkpt lat="4.6137950" lon="-74.1618900">
        <ele>2554.9</ele>
        <time>2018-06-17T13:08:28Z</time>
      </trkpt>
      <trkpt lat="4.6133200" lon="-74.1616600">
        <ele>2553.5</ele>
        <time>2018-06-17T13:08:34Z</time>
      </trkpt>
      <trkpt lat="4.6127640" lon="-74.1614830">
        <ele>2552.4</ele>
        <time>2018-06-17T13:08:40Z</time>
      </trkpt>
      <trkpt lat="4.6121520" lon="-74.1613700">
        <ele>2552.7</ele>
        <time>2018-06-17T13:08:46Z</time>
      </trkpt>
      <trkpt lat="4.6115040" lon="-74.1613420">
        <ele>2553.6</ele>
        <time>2018-06-17T13:08:52Z</time>
      </trkpt>
      <trkpt lat="4.6108690" lon="-74.1613670">
        <ele>2555.3</ele>
        <time>2018-06-17T13:08:58Z</time>
      </trkpt>
      <trkpt lat="4.6102480" lon="-74.1614180">
        <ele>2558.7</ele>
        <time>2018-06-17T13:09:04Z</time>
      </trkpt>
      <trkpt lat="4.6096290" lon="-74.1614690">
        <ele>2558.4</ele>
        <time>2018-06-17T13:09:10Z</time>
      </trkpt>
      <trkpt lat="4.6090160" lon="-74.1615130">
        <ele>2552.7</ele>
        <time>2018-06-17T13:09:16Z</time>
      </trkpt>
      <trkpt lat="4.6084080" lon="-74.1615420">
        <ele>2551.0</ele>
        <time>2018-06-17T13:09:22Z</time>
      </trkpt>
      <trkpt lat="4.6078010" lon="-74.1615860">
        <ele>2551.0</ele>
        <time>2018-06-17T13:09:28Z</time>
      </trkpt>
      <trkpt lat="4.6072210" lon="-74.1616370">
        <ele>2556.1</ele>
        <time>2018-06-17T13:09:34Z</time>
      </trkpt>
      <trkpt lat="4.6066530" lon="-74.1616800">
        <ele>2551.2</ele>
        <time>2018-06-17T13:09:40Z</time>
      </trkpt>
      <trkpt lat="4.6060820" lon="-74.1617280">
        <ele>2554.5</ele>
        <time>2018-06-17T13:09:46Z</time>
      </trkpt>
      <trkpt lat="4.6055030" lon="-74.1617710">
        <ele>2551.1</ele>
        <time>2018-06-17T13:09:52Z</time>
      </trkpt>
      <trkpt lat="4.6049230" lon="-74.1618150">
        <ele>2556.5</ele>
        <time>2018-06-17T13:09:58Z</time>
      </trkpt>
      <trkpt lat="4.6043760" lon="-74.1618680">
        <ele>2560.2</ele>
        <time>2018-06-17T13:10:04Z</time>
      </trkpt>
      <trkpt lat="4.6037940" lon="-74.1618910">
        <ele>2560.8</ele>
        <time>2018-06-17T13:10:11Z</time>
      </trkpt>
      <trkpt lat="4.6037240" lon="-74.1618780">
        <ele>2560.9</ele>
        <time>2018-06-17T13:10:12Z</time>
      </trkpt>
      <trkpt lat="4.6035830" lon="-74.1618600">
        <ele>2562.3</ele>
        <time>2018-06-17T13:10:14Z</time>
      </trkpt>
      <trkpt lat="4.6034640" lon="-74.1618660">
        <ele>2563.8</ele>
        <time>2018-06-17T13:10:16Z</time>
      </trkpt>
      <trkpt lat="4.6028860" lon="-74.1619260">
        <ele>2561.0</ele>
        <time>2018-06-17T13:10:24Z</time>
      </trkpt>
      <trkpt lat="4.6023150" lon="-74.1619690">
        <ele>2562.3</ele>
        <time>2018-06-17T13:10:31Z</time>
      </trkpt>
      <trkpt lat="4.6017720" lon="-74.1620860">
        <ele>2560.2</ele>
        <time>2018-06-17T13:10:38Z</time>
      </trkpt>
      <trkpt lat="4.6012270" lon="-74.1621330">
        <ele>2560.6</ele>
        <time>2018-06-17T13:10:45Z</time>
      </trkpt>
      <trkpt lat="4.6006790" lon="-74.1621730">
        <ele>2559.9</ele>
        <time>2018-06-17T13:10:52Z</time>
      </trkpt>
      <trkpt lat="4.6001210" lon="-74.1622050">
        <ele>2560.6</ele>
        <time>2018-06-17T13:11:01Z</time>
      </trkpt>
      <trkpt lat="4.6000630" lon="-74.1622110">
        <ele>2560.0</ele>
        <time>2018-06-17T13:11:02Z</time>
      </trkpt>
      <trkpt lat="4.5995050" lon="-74.1622630">
        <ele>2560.0</ele>
        <time>2018-06-17T13:11:12Z</time>
      </trkpt>
      <trkpt lat="4.5989090" lon="-74.1623030">
        <ele>2563.0</ele>
        <time>2018-06-17T13:11:22Z</time>
      </trkpt>
      <trkpt lat="4.5983570" lon="-74.1623250">
        <ele>2562.0</ele>
        <time>2018-06-17T13:11:31Z</time>
      </trkpt>
      <trkpt lat="4.5978100" lon="-74.1622840">
        <ele>2560.1</ele>
        <time>2018-06-17T13:11:40Z</time>
      </trkpt>
      <trkpt lat="4.5972320" lon="-74.1622130">
        <ele>2561.0</ele>
        <time>2018-06-17T13:11:50Z</time>
      </trkpt>
      <trkpt lat="4.5971180" lon="-74.1622100">
        <ele>2560.7</ele>
        <time>2018-06-17T13:11:52Z</time>
      </trkpt>
      <trkpt lat="4.5968860" lon="-74.1622030">
        <ele>2559.5</ele>
        <time>2018-06-17T13:11:56Z</time>
      </trkpt>
      <trkpt lat="4.5967590" lon="-74.1622090">
        <ele>2557.0</ele>
        <time>2018-06-17T13:11:58Z</time>
      </trkpt>
      <trkpt lat="4.5965120" lon="-74.1622910">
        <ele>2556.0</ele>
        <time>2018-06-17T13:12:02Z</time>
      </trkpt>
      <trkpt lat="4.5960250" lon="-74.1625180">
        <ele>2555.0</ele>
        <time>2018-06-17T13:12:10Z</time>
      </trkpt>
      <trkpt lat="4.5957620" lon="-74.1625470">
        <ele>2562.0</ele>
        <time>2018-06-17T13:12:14Z</time>
      </trkpt>
      <trkpt lat="4.5953130" lon="-74.1623520">
        <ele>2562.0</ele>
        <time>2018-06-17T13:12:21Z</time>
      </trkpt>
      <trkpt lat="4.5949080" lon="-74.1620420">
        <ele>2560.4</ele>
        <time>2018-06-17T13:12:27Z</time>
      </trkpt>
      <trkpt lat="4.5945670" lon="-74.1619220">
        <ele>2560.0</ele>
        <time>2018-06-17T13:12:31Z</time>
      </trkpt>
      <trkpt lat="4.5939990" lon="-74.1618580">
        <ele>2561.0</ele>
        <time>2018-06-17T13:12:37Z</time>
      </trkpt>
      <trkpt lat="4.5933910" lon="-74.1617880">
        <ele>2562.7</ele>
        <time>2018-06-17T13:12:43Z</time>
      </trkpt>
      <trkpt lat="4.5927730" lon="-74.1617160">
        <ele>2564.5</ele>
        <time>2018-06-17T13:12:49Z</time>
      </trkpt>
      <trkpt lat="4.5921700" lon="-74.1616470">
        <ele>2560.6</ele>
        <time>2018-06-17T13:12:56Z</time>
      </trkpt>
      <trkpt lat="4.5915930" lon="-74.1615910">
        <ele>2563.9</ele>
        <time>2018-06-17T13:13:04Z</time>
      </trkpt>
      <trkpt lat="4.5910370" lon="-74.1615420">
        <ele>2566.1</ele>
        <time>2018-06-17T13:13:13Z</time>
      </trkpt>
      <trkpt lat="4.5909830" lon="-74.1615340">
        <ele>2565.7</ele>
        <time>2018-06-17T13:13:14Z</time>
      </trkpt>
      <trkpt lat="4.5907390" lon="-74.1614540">
        <ele>2563.4</ele>
        <time>2018-06-17T13:13:19Z</time>
      </trkpt>
      <trkpt lat="4.5903030" lon="-74.1613830">
        <ele>2563.1</ele>
        <time>2018-06-17T13:13:31Z</time>
      </trkpt>
      <trkpt lat="4.5901730" lon="-74.1613780">
        <ele>2563.0</ele>
        <time>2018-06-17T13:13:39Z</time>
      </trkpt>
      <trkpt lat="4.5898430" lon="-74.1613160">
        <ele>2562.9</ele>
        <time>2018-06-17T13:13:46Z</time>
      </trkpt>
      <trkpt lat="4.5896740" lon="-74.1612960">
        <ele>2563.1</ele>
        <time>2018-06-17T13:13:49Z</time>
      </trkpt>
      <trkpt lat="4.5894390" lon="-74.1612700">
        <ele>2563.2</ele>
        <time>2018-06-17T13:13:53Z</time>
      </trkpt>
      <trkpt lat="4.5888650" lon="-74.1612400">
        <ele>2563.4</ele>
        <time>2018-06-17T13:14:02Z</time>
      </trkpt>
      <trkpt lat="4.5882700" lon="-74.1611800">
        <ele>2565.8</ele>
        <time>2018-06-17T13:14:11Z</time>
      </trkpt>
      <trkpt lat="4.5879490" lon="-74.1611370">
        <ele>2564.6</ele>
        <time>2018-06-17T13:14:16Z</time>
      </trkpt>
      <trkpt lat="4.5874350" lon="-74.1609600">
        <ele>2564.4</ele>
        <time>2018-06-17T13:14:24Z</time>
      </trkpt>
      <trkpt lat="4.5869470" lon="-74.1607170">
        <ele>2563.9</ele>
        <time>2018-06-17T13:14:33Z</time>
      </trkpt>
      <trkpt lat="4.5864460" lon="-74.1604760">
        <ele>2558.8</ele>
        <time>2018-06-17T13:14:42Z</time>
      </trkpt>
      <trkpt lat="4.5859510" lon="-74.1602350">
        <ele>2562.2</ele>
        <time>2018-06-17T13:14:51Z</time>
      </trkpt>
      <trkpt lat="4.5854570" lon="-74.1599980">
        <ele>2561.3</ele>
        <time>2018-06-17T13:15:00Z</time>
      </trkpt>
      <trkpt lat="4.5849670" lon="-74.1597630">
        <ele>2563.0</ele>
        <time>2018-06-17T13:15:09Z</time>
      </trkpt>
      <trkpt lat="4.5844730" lon="-74.1595110">
        <ele>2560.9</ele>
        <time>2018-06-17T13:15:18Z</time>
      </trkpt>
      <trkpt lat="4.5839830" lon="-74.1592800">
        <ele>2560.0</ele>
        <time>2018-06-17T13:15:27Z</time>
      </trkpt>
      <trkpt lat="4.5834570" lon="-74.1590170">
        <ele>2558.1</ele>
        <time>2018-06-17T13:15:37Z</time>
      </trkpt>
      <trkpt lat="4.5829530" lon="-74.1587800">
        <ele>2562.0</ele>
        <time>2018-06-17T13:15:46Z</time>
      </trkpt>
      <trkpt lat="4.5824530" lon="-74.1585270">
        <ele>2563.4</ele>
        <time>2018-06-17T13:15:55Z</time>
      </trkpt>
      <trkpt lat="4.5819620" lon="-74.1582660">
        <ele>2561.4</ele>
        <time>2018-06-17T13:16:05Z</time>
      </trkpt>
      <trkpt lat="4.5814560" lon="-74.1579910">
        <ele>2561.9</ele>
        <time>2018-06-17T13:16:16Z</time>
      </trkpt>
      <trkpt lat="4.5810050" lon="-74.1576910">
        <ele>2561.1</ele>
        <time>2018-06-17T13:16:28Z</time>
      </trkpt>
      <trkpt lat="4.5805430" lon="-74.1574240">
        <ele>2565.0</ele>
        <time>2018-06-17T13:16:46Z</time>
      </trkpt>
      <trkpt lat="4.5804980" lon="-74.1572270">
        <ele>2565.0</ele>
        <time>2018-06-17T13:16:51Z</time>
      </trkpt>
      <trkpt lat="4.5805970" lon="-74.1566770">
        <ele>2565.0</ele>
        <time>2018-06-17T13:17:02Z</time>
      </trkpt>
      <trkpt lat="4.5806830" lon="-74.1561720">
        <ele>2564.3</ele>
        <time>2018-06-17T13:17:12Z</time>
      </trkpt>
      <trkpt lat="4.5807180" lon="-74.1559720">
        <ele>2562.3</ele>
        <time>2018-06-17T13:17:16Z</time>
      </trkpt>
      <trkpt lat="4.5808120" lon="-74.1553900">
        <ele>2565.0</ele>
        <time>2018-06-17T13:17:27Z</time>
      </trkpt>
      <trkpt lat="4.5809080" lon="-74.1548530">
        <ele>2560.9</ele>
        <time>2018-06-17T13:17:37Z</time>
      </trkpt>
      <trkpt lat="4.5809950" lon="-74.1543180">
        <ele>2563.9</ele>
        <time>2018-06-17T13:17:47Z</time>
      </trkpt>
      <trkpt lat="4.5810790" lon="-74.1537500">
        <ele>2569.9</ele>
        <time>2018-06-17T13:17:58Z</time>
      </trkpt>
      <trkpt lat="4.5811040" lon="-74.1532040">
        <ele>2564.3</ele>
        <time>2018-06-17T13:18:08Z</time>
      </trkpt>
      <trkpt lat="4.5810360" lon="-74.1526360">
        <ele>2560.8</ele>
        <time>2018-06-17T13:18:18Z</time>
      </trkpt>
      <trkpt lat="4.5808750" lon="-74.1520810">
        <ele>2566.8</ele>
        <time>2018-06-17T13:18:28Z</time>
      </trkpt>
      <trkpt lat="4.5807280" lon="-74.1516840">
        <ele>2564.5</ele>
        <time>2018-06-17T13:18:54Z</time>
      </trkpt>
      <trkpt lat="4.5806470" lon="-74.1516050">
        <ele>2563.2</ele>
        <time>2018-06-17T13:18:58Z</time>
      </trkpt>
      <trkpt lat="4.5806030" lon="-74.1515410">
        <ele>2562.9</ele>
        <time>2018-06-17T13:19:00Z</time>
      </trkpt>
      <trkpt lat="4.5803930" lon="-74.1510260">
        <ele>2558.3</ele>
        <time>2018-06-17T13:19:13Z</time>
      </trkpt>
      <trkpt lat="4.5801910" lon="-74.1504920">
        <ele>2554.8</ele>
        <time>2018-06-17T13:19:27Z</time>
      </trkpt>
      <trkpt lat="4.5801090" lon="-74.1503330">
        <ele>2555.2</ele>
        <time>2018-06-17T13:19:36Z</time>
      </trkpt>
      <trkpt lat="4.5798950" lon="-74.1498060">
        <ele>2556.4</ele>
        <time>2018-06-17T13:20:22Z</time>
      </trkpt>
      <trkpt lat="4.5797080" lon="-74.1492830">
        <ele>2555.7</ele>
        <time>2018-06-17T13:20:36Z</time>
      </trkpt>
      <trkpt lat="4.5794960" lon="-74.1487860">
        <ele>2556.3</ele>
        <time>2018-06-17T13:20:49Z</time>
      </trkpt>
      <trkpt lat="4.5794580" lon="-74.1486980">
        <ele>2556.3</ele>
        <time>2018-06-17T13:20:51Z</time>
      </trkpt>
      <trkpt lat="4.5792550" lon="-74.1481890">
        <ele>2556.8</ele>
        <time>2018-06-17T13:21:02Z</time>
      </trkpt>
      <trkpt lat="4.5790490" lon="-74.1476840">
        <ele>2557.2</ele>
        <time>2018-06-17T13:21:13Z</time>
      </trkpt>
      <trkpt lat="4.5788650" lon="-74.1471570">
        <ele>2558.5</ele>
        <time>2018-06-17T13:21:25Z</time>
      </trkpt>
      <trkpt lat="4.5788440" lon="-74.1471090">
        <ele>2558.1</ele>
        <time>2018-06-17T13:21:26Z</time>
      </trkpt>
      <trkpt lat="4.5786360" lon="-74.1465880">
        <ele>2561.1</ele>
        <time>2018-06-17T13:21:36Z</time>
      </trkpt>
      <trkpt lat="4.5784150" lon="-74.1460400">
        <ele>2558.5</ele>
        <time>2018-06-17T13:21:46Z</time>
      </trkpt>
      <trkpt lat="4.5782700" lon="-74.1455590">
        <ele>2556.6</ele>
        <time>2018-06-17T13:21:54Z</time>
      </trkpt>
      <trkpt lat="4.5782790" lon="-74.1449910">
        <ele>2556.6</ele>
        <time>2018-06-17T13:22:03Z</time>
      </trkpt>
      <trkpt lat="4.5784550" lon="-74.1444760">
        <ele>2558.4</ele>
        <time>2018-06-17T13:22:12Z</time>
      </trkpt>
      <trkpt lat="4.5787760" lon="-74.1439950">
        <ele>2559.7</ele>
        <time>2018-06-17T13:22:22Z</time>
      </trkpt>
      <trkpt lat="4.5791010" lon="-74.1435590">
        <ele>2556.7</ele>
        <time>2018-06-17T13:22:32Z</time>
      </trkpt>
      <trkpt lat="4.5792820" lon="-74.1432910">
        <ele>2559.0</ele>
        <time>2018-06-17T13:22:39Z</time>
      </trkpt>
      <trkpt lat="4.5792920" lon="-74.1430100">
        <ele>2559.8</ele>
        <time>2018-06-17T13:22:47Z</time>
      </trkpt>
      <trkpt lat="4.5794090" lon="-74.1428180">
        <ele>2559.8</ele>
        <time>2018-06-17T13:22:54Z</time>
      </trkpt>
      <trkpt lat="4.5794800" lon="-74.1427100">
        <ele>2559.0</ele>
        <time>2018-06-17T13:22:58Z</time>
      </trkpt>
      <trkpt lat="4.5795800" lon="-74.1423710">
        <ele>2559.0</ele>
        <time>2018-06-17T13:23:09Z</time>
      </trkpt>
      <trkpt lat="4.5794900" lon="-74.1423280">
        <ele>2559.0</ele>
        <time>2018-06-17T13:23:13Z</time>
      </trkpt>
      <trkpt lat="4.5792500" lon="-74.1422160">
        <ele>2558.7</ele>
        <time>2018-06-17T13:23:19Z</time>
      </trkpt>
      <trkpt lat="4.5791240" lon="-74.1421630">
        <ele>2558.4</ele>
        <time>2018-06-17T13:23:22Z</time>
      </trkpt>
      <trkpt lat="4.5786040" lon="-74.1419400">
        <ele>2559.1</ele>
        <time>2018-06-17T13:23:33Z</time>
      </trkpt>
      <trkpt lat="4.5780920" lon="-74.1417130">
        <ele>2560.3</ele>
        <time>2018-06-17T13:23:43Z</time>
      </trkpt>
      <trkpt lat="4.5776040" lon="-74.1414300">
        <ele>2557.3</ele>
        <time>2018-06-17T13:23:53Z</time>
      </trkpt>
      <trkpt lat="4.5770870" lon="-74.1411800">
        <ele>2554.1</ele>
        <time>2018-06-17T13:24:02Z</time>
      </trkpt>
      <trkpt lat="4.5766010" lon="-74.1409330">
        <ele>2554.7</ele>
        <time>2018-06-17T13:24:11Z</time>
      </trkpt>
      <trkpt lat="4.5763990" lon="-74.1408130">
        <ele>2555.1</ele>
        <time>2018-06-17T13:24:15Z</time>
      </trkpt>
      <trkpt lat="4.5760700" lon="-74.1406640">
        <ele>2555.9</ele>
        <time>2018-06-17T13:24:21Z</time>
      </trkpt>
      <trkpt lat="4.5755560" lon="-74.1404150">
        <ele>2558.0</ele>
        <time>2018-06-17T13:24:31Z</time>
      </trkpt>
      <trkpt lat="4.5752450" lon="-74.1403020">
        <ele>2559.2</ele>
        <time>2018-06-17T13:24:37Z</time>
      </trkpt>
      <trkpt lat="4.5746880" lon="-74.1401500">
        <ele>2560.8</ele>
        <time>2018-06-17T13:24:47Z</time>
      </trkpt>
      <trkpt lat="4.5741230" lon="-74.1400100">
        <ele>2559.3</ele>
        <time>2018-06-17T13:24:57Z</time>
      </trkpt>
      <trkpt lat="4.5735620" lon="-74.1398650">
        <ele>2559.8</ele>
        <time>2018-06-17T13:25:07Z</time>
      </trkpt>
      <trkpt lat="4.5729760" lon="-74.1397200">
        <ele>2561.0</ele>
        <time>2018-06-17T13:25:17Z</time>
      </trkpt>
      <trkpt lat="4.5724300" lon="-74.1395750">
        <ele>2561.0</ele>
        <time>2018-06-17T13:25:26Z</time>
      </trkpt>
      <trkpt lat="4.5718940" lon="-74.1394170">
        <ele>2561.0</ele>
        <time>2018-06-17T13:25:35Z</time>
      </trkpt>
      <trkpt lat="4.5716510" lon="-74.1393590">
        <ele>2561.0</ele>
        <time>2018-06-17T13:25:39Z</time>
      </trkpt>
      <trkpt lat="4.5711060" lon="-74.1392500">
        <ele>2561.9</ele>
        <time>2018-06-17T13:25:47Z</time>
      </trkpt>
      <trkpt lat="4.5705620" lon="-74.1391230">
        <ele>2563.0</ele>
        <time>2018-06-17T13:25:54Z</time>
      </trkpt>
      <trkpt lat="4.5700030" lon="-74.1389840">
        <ele>2565.0</ele>
        <time>2018-06-17T13:26:02Z</time>
      </trkpt>
      <trkpt lat="4.5694460" lon="-74.1388570">
        <ele>2565.0</ele>
        <time>2018-06-17T13:26:15Z</time>
      </trkpt>
      <trkpt lat="4.5689080" lon="-74.1387100">
        <ele>2563.4</ele>
        <time>2018-06-17T13:26:24Z</time>
      </trkpt>
      <trkpt lat="4.5683610" lon="-74.1385780">
        <ele>2561.2</ele>
        <time>2018-06-17T13:26:33Z</time>
      </trkpt>
      <trkpt lat="4.5677990" lon="-74.1384890">
        <ele>2561.0</ele>
        <time>2018-06-17T13:26:42Z</time>
      </trkpt>
      <trkpt lat="4.5671970" lon="-74.1384360">
        <ele>2560.6</ele>
        <time>2018-06-17T13:26:52Z</time>
      </trkpt>
      <trkpt lat="4.5666040" lon="-74.1384390">
        <ele>2559.6</ele>
        <time>2018-06-17T13:27:01Z</time>
      </trkpt>
      <trkpt lat="4.5659990" lon="-74.1384810">
        <ele>2559.0</ele>
        <time>2018-06-17T13:27:09Z</time>
      </trkpt>
      <trkpt lat="4.5654510" lon="-74.1385450">
        <ele>2559.4</ele>
        <time>2018-06-17T13:27:15Z</time>
      </trkpt>
      <trkpt lat="4.5649060" lon="-74.1386460">
        <ele>2559.8</ele>
        <time>2018-06-17T13:27:21Z</time>
      </trkpt>
      <trkpt lat="4.5643690" lon="-74.1387660">
        <ele>2560.6</ele>
        <time>2018-06-17T13:27:27Z</time>
      </trkpt>
      <trkpt lat="4.5638330" lon="-74.1388580">
        <ele>2556.7</ele>
        <time>2018-06-17T13:27:33Z</time>
      </trkpt>
      <trkpt lat="4.5632330" lon="-74.1389510">
        <ele>2565.4</ele>
        <time>2018-06-17T13:27:40Z</time>
      </trkpt>
      <trkpt lat="4.5626370" lon="-74.1390470">
        <ele>2566.0</ele>
        <time>2018-06-17T13:27:47Z</time>
      </trkpt>
      <trkpt lat="4.5620420" lon="-74.1391260">
        <ele>2569.1</ele>
        <time>2018-06-17T13:27:55Z</time>
      </trkpt>
      <trkpt lat="4.5614930" lon="-74.1391840">
        <ele>2572.0</ele>
        <time>2018-06-17T13:28:04Z</time>
      </trkpt>
      <trkpt lat="4.5614070" lon="-74.1391760">
        <ele>2574.6</ele>
        <time>2018-06-17T13:28:08Z</time>
      </trkpt>
      <trkpt lat="4.5613230" lon="-74.1391980">
        <ele>2576.7</ele>
        <time>2018-06-17T13:28:13Z</time>
      </trkpt>
      <trkpt lat="4.5612860" lon="-74.1392060">
        <ele>2578.0</ele>
        <time>2018-06-17T13:28:14Z</time>
      </trkpt>
      <trkpt lat="4.5607170" lon="-74.1393170">
        <ele>2590.5</ele>
        <time>2018-06-17T13:28:24Z</time>
      </trkpt>
      <trkpt lat="4.5604840" lon="-74.1393520">
        <ele>2593.4</ele>
        <time>2018-06-17T13:28:28Z</time>
      </trkpt>
      <trkpt lat="4.5599060" lon="-74.1393650">
        <ele>2598.3</ele>
        <time>2018-06-17T13:28:38Z</time>
      </trkpt>
      <trkpt lat="4.5593290" lon="-74.1392720">
        <ele>2605.6</ele>
        <time>2018-06-17T13:28:47Z</time>
      </trkpt>
      <trkpt lat="4.5587890" lon="-74.1391190">
        <ele>2602.4</ele>
        <time>2018-06-17T13:28:55Z</time>
      </trkpt>
      <trkpt lat="4.5582440" lon="-74.1389120">
        <ele>2597.1</ele>
        <time>2018-06-17T13:29:03Z</time>
      </trkpt>
      <trkpt lat="4.5576990" lon="-74.1387140">
        <ele>2596.5</ele>
        <time>2018-06-17T13:29:11Z</time>
      </trkpt>
      <trkpt lat="4.5571690" lon="-74.1385370">
        <ele>2598.7</ele>
        <time>2018-06-17T13:29:18Z</time>
      </trkpt>
      <trkpt lat="4.5566220" lon="-74.1383520">
        <ele>2599.3</ele>
        <time>2018-06-17T13:29:24Z</time>
      </trkpt>
      <trkpt lat="4.5560910" lon="-74.1381670">
        <ele>2577.0</ele>
        <time>2018-06-17T13:29:29Z</time>
      </trkpt>
      <trkpt lat="4.5555620" lon="-74.1380070">
        <ele>2575.7</ele>
        <time>2018-06-17T13:29:34Z</time>
      </trkpt>
      <trkpt lat="4.5549860" lon="-74.1378170">
        <ele>2571.5</ele>
        <time>2018-06-17T13:29:40Z</time>
      </trkpt>
      <trkpt lat="4.5544610" lon="-74.1376300">
        <ele>2566.1</ele>
        <time>2018-06-17T13:29:46Z</time>
      </trkpt>
      <trkpt lat="4.5538700" lon="-74.1374430">
        <ele>2566.0</ele>
        <time>2018-06-17T13:29:53Z</time>
      </trkpt>
      <trkpt lat="4.5533010" lon="-74.1372550">
        <ele>2567.6</ele>
        <time>2018-06-17T13:30:00Z</time>
      </trkpt>
      <trkpt lat="4.5527430" lon="-74.1370830">
        <ele>2568.0</ele>
        <time>2018-06-17T13:30:07Z</time>
      </trkpt>
      <trkpt lat="4.5521780" lon="-74.1368870">
        <ele>2569.6</ele>
        <time>2018-06-17T13:30:14Z</time>
      </trkpt>
      <trkpt lat="4.5516440" lon="-74.1367060">
        <ele>2572.0</ele>
        <time>2018-06-17T13:30:21Z</time>
      </trkpt>
      <trkpt lat="4.5510850" lon="-74.1366420">
        <ele>2571.6</ele>
        <time>2018-06-17T13:30:28Z</time>
      </trkpt>
      <trkpt lat="4.5505310" lon="-74.1366850">
        <ele>2570.2</ele>
        <time>2018-06-17T13:30:35Z</time>
      </trkpt>
      <trkpt lat="4.5499300" lon="-74.1368090">
        <ele>2566.5</ele>
        <time>2018-06-17T13:30:42Z</time>
      </trkpt>
      <trkpt lat="4.5493290" lon="-74.1369450">
        <ele>2568.4</ele>
        <time>2018-06-17T13:30:50Z</time>
      </trkpt>
      <trkpt lat="4.5487990" lon="-74.1370800">
        <ele>2570.4</ele>
        <time>2018-06-17T13:30:57Z</time>
      </trkpt>
      <trkpt lat="4.5482090" lon="-74.1372000">
        <ele>2570.9</ele>
        <time>2018-06-17T13:31:05Z</time>
      </trkpt>
      <trkpt lat="4.5476080" lon="-74.1372360">
        <ele>2571.7</ele>
        <time>2018-06-17T13:31:13Z</time>
      </trkpt>
      <trkpt lat="4.5471920" lon="-74.1372140">
        <ele>2572.7</ele>
        <time>2018-06-17T13:31:19Z</time>
      </trkpt>
      <trkpt lat="4.5466680" lon="-74.1370550">
        <ele>2574.6</ele>
        <time>2018-06-17T13:31:27Z</time>
      </trkpt>
      <trkpt lat="4.5461690" lon="-74.1368320">
        <ele>2579.6</ele>
        <time>2018-06-17T13:31:35Z</time>
      </trkpt>
      <trkpt lat="4.5456650" lon="-74.1365620">
        <ele>2583.0</ele>
        <time>2018-06-17T13:31:43Z</time>
      </trkpt>
      <trkpt lat="4.5451660" lon="-74.1363020">
        <ele>2583.0</ele>
        <time>2018-06-17T13:31:51Z</time>
      </trkpt>
      <trkpt lat="4.5446670" lon="-74.1360440">
        <ele>2583.1</ele>
        <time>2018-06-17T13:31:59Z</time>
      </trkpt>
      <trkpt lat="4.5441250" lon="-74.1357580">
        <ele>2588.4</ele>
        <time>2018-06-17T13:32:07Z</time>
      </trkpt>
      <trkpt lat="4.5435850" lon="-74.1354850">
        <ele>2587.8</ele>
        <time>2018-06-17T13:32:15Z</time>
      </trkpt>
      <trkpt lat="4.5430830" lon="-74.1352350">
        <ele>2587.2</ele>
        <time>2018-06-17T13:32:23Z</time>
      </trkpt>
      <trkpt lat="4.5425480" lon="-74.1349540">
        <ele>2587.0</ele>
        <time>2018-06-17T13:32:32Z</time>
      </trkpt>
      <trkpt lat="4.5420700" lon="-74.1346930">
        <ele>2586.2</ele>
        <time>2018-06-17T13:32:40Z</time>
      </trkpt>
      <trkpt lat="4.5415770" lon="-74.1344410">
        <ele>2585.0</ele>
        <time>2018-06-17T13:32:48Z</time>
      </trkpt>
      <trkpt lat="4.5410930" lon="-74.1341900">
        <ele>2584.3</ele>
        <time>2018-06-17T13:32:56Z</time>
      </trkpt>
      <trkpt lat="4.5405840" lon="-74.1339130">
        <ele>2583.5</ele>
        <time>2018-06-17T13:33:04Z</time>
      </trkpt>
      <trkpt lat="4.5400790" lon="-74.1335760">
        <ele>2584.0</ele>
        <time>2018-06-17T13:33:12Z</time>
      </trkpt>
      <trkpt lat="4.5396460" lon="-74.1332320">
        <ele>2587.2</ele>
        <time>2018-06-17T13:33:19Z</time>
      </trkpt>
      <trkpt lat="4.5392510" lon="-74.1328020">
        <ele>2590.0</ele>
        <time>2018-06-17T13:33:26Z</time>
      </trkpt>
      <trkpt lat="4.5388870" lon="-74.1323410">
        <ele>2589.7</ele>
        <time>2018-06-17T13:33:33Z</time>
      </trkpt>
      <trkpt lat="4.5385220" lon="-74.1318690">
        <ele>2588.8</ele>
        <time>2018-06-17T13:33:40Z</time>
      </trkpt>
      <trkpt lat="4.5381540" lon="-74.1313980">
        <ele>2587.3</ele>
        <time>2018-06-17T13:33:47Z</time>
      </trkpt>
      <trkpt lat="4.5377900" lon="-74.1309390">
        <ele>2586.9</ele>
        <time>2018-06-17T13:33:54Z</time>
      </trkpt>
      <trkpt lat="4.5374260" lon="-74.1304860">
        <ele>2586.6</ele>
        <time>2018-06-17T13:34:01Z</time>
      </trkpt>
      <trkpt lat="4.5370670" lon="-74.1300150">
        <ele>2586.4</ele>
        <time>2018-06-17T13:34:08Z</time>
      </trkpt>
      <trkpt lat="4.5367120" lon="-74.1295570">
        <ele>2586.3</ele>
        <time>2018-06-17T13:34:15Z</time>
      </trkpt>
      <trkpt lat="4.5363600" lon="-74.1291220">
        <ele>2586.3</ele>
        <time>2018-06-17T13:34:22Z</time>
      </trkpt>
      <trkpt lat="4.5359690" lon="-74.1287180">
        <ele>2586.5</ele>
        <time>2018-06-17T13:34:29Z</time>
      </trkpt>
      <trkpt lat="4.5355070" lon="-74.1283450">
        <ele>2587.5</ele>
        <time>2018-06-17T13:34:37Z</time>
      </trkpt>
      <trkpt lat="4.5350350" lon="-74.1280740">
        <ele>2588.2</ele>
        <time>2018-06-17T13:34:45Z</time>
      </trkpt>
      <trkpt lat="4.5349760" lon="-74.1280490">
        <ele>2588.5</ele>
        <time>2018-06-17T13:34:46Z</time>
      </trkpt>
      <trkpt lat="4.5344500" lon="-74.1278370">
        <ele>2589.6</ele>
        <time>2018-06-17T13:34:55Z</time>
      </trkpt>
      <trkpt lat="4.5339200" lon="-74.1277060">
        <ele>2590.7</ele>
        <time>2018-06-17T13:35:04Z</time>
      </trkpt>
      <trkpt lat="4.5333530" lon="-74.1276230">
        <ele>2592.1</ele>
        <time>2018-06-17T13:35:14Z</time>
      </trkpt>
      <trkpt lat="4.5327790" lon="-74.1275470">
        <ele>2593.9</ele>
        <time>2018-06-17T13:35:25Z</time>
      </trkpt>
      <trkpt lat="4.5324660" lon="-74.1275020">
        <ele>2594.8</ele>
        <time>2018-06-17T13:35:31Z</time>
      </trkpt>
      <trkpt lat="4.5323620" lon="-74.1274830">
        <ele>2595.4</ele>
        <time>2018-06-17T13:35:33Z</time>
      </trkpt>
      <trkpt lat="4.5317960" lon="-74.1274120">
        <ele>2597.2</ele>
        <time>2018-06-17T13:35:44Z</time>
      </trkpt>
      <trkpt lat="4.5312530" lon="-74.1273340">
        <ele>2599.3</ele>
        <time>2018-06-17T13:35:55Z</time>
      </trkpt>
      <trkpt lat="4.5306730" lon="-74.1272750">
        <ele>2601.1</ele>
        <time>2018-06-17T13:36:07Z</time>
      </trkpt>
      <trkpt lat="4.5301300" lon="-74.1271910">
        <ele>2602.6</ele>
        <time>2018-06-17T13:36:18Z</time>
      </trkpt>
      <trkpt lat="4.5296440" lon="-74.1271250">
        <ele>2603.0</ele>
        <time>2018-06-17T13:36:27Z</time>
      </trkpt>
      <trkpt lat="4.5290420" lon="-74.1270470">
        <ele>2602.8</ele>
        <time>2018-06-17T13:36:37Z</time>
      </trkpt>
      <trkpt lat="4.5284630" lon="-74.1269680">
        <ele>2602.5</ele>
        <time>2018-06-17T13:36:46Z</time>
      </trkpt>
      <trkpt lat="4.5278810" lon="-74.1268800">
        <ele>2600.3</ele>
        <time>2018-06-17T13:36:53Z</time>
      </trkpt>
      <trkpt lat="4.5273420" lon="-74.1268110">
        <ele>2597.4</ele>
        <time>2018-06-17T13:36:59Z</time>
      </trkpt>
      <trkpt lat="4.5267780" lon="-74.1267210">
        <ele>2593.8</ele>
        <time>2018-06-17T13:37:05Z</time>
      </trkpt>
      <trkpt lat="4.5261550" lon="-74.1266560">
        <ele>2591.1</ele>
        <time>2018-06-17T13:37:12Z</time>
      </trkpt>
      <trkpt lat="4.5255980" lon="-74.1265620">
        <ele>2587.0</ele>
        <time>2018-06-17T13:37:19Z</time>
      </trkpt>
      <trkpt lat="4.5251200" lon="-74.1264200">
        <ele>2587.0</ele>
        <time>2018-06-17T13:37:26Z</time>
      </trkpt>
      <trkpt lat="4.5246040" lon="-74.1262230">
        <ele>2587.4</ele>
        <time>2018-06-17T13:37:34Z</time>
      </trkpt>
      <trkpt lat="4.5240930" lon="-74.1259500">
        <ele>2589.2</ele>
        <time>2018-06-17T13:37:43Z</time>
      </trkpt>
      <trkpt lat="4.5236540" lon="-74.1256310">
        <ele>2591.8</ele>
        <time>2018-06-17T13:37:52Z</time>
      </trkpt>
      <trkpt lat="4.5232430" lon="-74.1252660">
        <ele>2594.4</ele>
        <time>2018-06-17T13:38:02Z</time>
      </trkpt>
      <trkpt lat="4.5228020" lon="-74.1248680">
        <ele>2597.5</ele>
        <time>2018-06-17T13:38:13Z</time>
      </trkpt>
      <trkpt lat="4.5223630" lon="-74.1244730">
        <ele>2600.8</ele>
        <time>2018-06-17T13:38:24Z</time>
      </trkpt>
      <trkpt lat="4.5219550" lon="-74.1241140">
        <ele>2602.8</ele>
        <time>2018-06-17T13:38:34Z</time>
      </trkpt>
      <trkpt lat="4.5215220" lon="-74.1237330">
        <ele>2604.4</ele>
        <time>2018-06-17T13:38:44Z</time>
      </trkpt>
      <trkpt lat="4.5211080" lon="-74.1233640">
        <ele>2606.4</ele>
        <time>2018-06-17T13:38:54Z</time>
      </trkpt>
      <trkpt lat="4.5206680" lon="-74.1230030">
        <ele>2607.1</ele>
        <time>2018-06-17T13:39:05Z</time>
      </trkpt>
      <trkpt lat="4.5201870" lon="-74.1226860">
        <ele>2610.0</ele>
        <time>2018-06-17T13:39:19Z</time>
      </trkpt>
      <trkpt lat="4.5196580" lon="-74.1224300">
        <ele>2616.4</ele>
        <time>2018-06-17T13:39:31Z</time>
      </trkpt>
      <trkpt lat="4.5193830" lon="-74.1223280">
        <ele>2617.4</ele>
        <time>2018-06-17T13:39:37Z</time>
      </trkpt>
      <trkpt lat="4.5192430" lon="-74.1222840">
        <ele>2617.7</ele>
        <time>2018-06-17T13:39:40Z</time>
      </trkpt>
      <trkpt lat="4.5187060" lon="-74.1221850">
        <ele>2618.1</ele>
        <time>2018-06-17T13:39:51Z</time>
      </trkpt>
      <trkpt lat="4.5181550" lon="-74.1221200">
        <ele>2619.2</ele>
        <time>2018-06-17T13:40:03Z</time>
      </trkpt>
      <trkpt lat="4.5175900" lon="-74.1220330">
        <ele>2620.6</ele>
        <time>2018-06-17T13:40:15Z</time>
      </trkpt>
      <trkpt lat="4.5174510" lon="-74.1220070">
        <ele>2620.8</ele>
        <time>2018-06-17T13:40:18Z</time>
      </trkpt>
      <trkpt lat="4.5168680" lon="-74.1219430">
        <ele>2622.3</ele>
        <time>2018-06-17T13:40:31Z</time>
      </trkpt>
      <trkpt lat="4.5162990" lon="-74.1218790">
        <ele>2623.0</ele>
        <time>2018-06-17T13:40:44Z</time>
      </trkpt>
      <trkpt lat="4.5157470" lon="-74.1218120">
        <ele>2626.8</ele>
        <time>2018-06-17T13:40:56Z</time>
      </trkpt>
      <trkpt lat="4.5151940" lon="-74.1217610">
        <ele>2632.1</ele>
        <time>2018-06-17T13:41:08Z</time>
      </trkpt>
      <trkpt lat="4.5146150" lon="-74.1217730">
        <ele>2636.3</ele>
        <time>2018-06-17T13:41:21Z</time>
      </trkpt>
      <trkpt lat="4.5140540" lon="-74.1218890">
        <ele>2641.4</ele>
        <time>2018-06-17T13:41:34Z</time>
      </trkpt>
      <trkpt lat="4.5134890" lon="-74.1220300">
        <ele>2646.5</ele>
        <time>2018-06-17T13:41:47Z</time>
      </trkpt>
      <trkpt lat="4.5129820" lon="-74.1221540">
        <ele>2650.7</ele>
        <time>2018-06-17T13:41:59Z</time>
      </trkpt>
      <trkpt lat="4.5124110" lon="-74.1221430">
        <ele>2655.5</ele>
        <time>2018-06-17T13:42:12Z</time>
      </trkpt>
      <trkpt lat="4.5118600" lon="-74.1219630">
        <ele>2658.5</ele>
        <time>2018-06-17T13:42:25Z</time>
      </trkpt>
      <trkpt lat="4.5114170" lon="-74.1216470">
        <ele>2663.0</ele>
        <time>2018-06-17T13:42:37Z</time>
      </trkpt>
      <trkpt lat="4.5112560" lon="-74.1214800">
        <ele>2665.0</ele>
        <time>2018-06-17T13:42:42Z</time>
      </trkpt>
      <trkpt lat="4.5109560" lon="-74.1210090">
        <ele>2669.5</ele>
        <time>2018-06-17T13:42:54Z</time>
      </trkpt>
      <trkpt lat="4.5109110" lon="-74.1209280">
        <ele>2670.1</ele>
        <time>2018-06-17T13:42:56Z</time>
      </trkpt>
      <trkpt lat="4.5106930" lon="-74.1204220">
        <ele>2673.8</ele>
        <time>2018-06-17T13:43:08Z</time>
      </trkpt>
      <trkpt lat="4.5105720" lon="-74.1201170">
        <ele>2675.8</ele>
        <time>2018-06-17T13:43:15Z</time>
      </trkpt>
      <trkpt lat="4.5103690" lon="-74.1196080">
        <ele>2678.8</ele>
        <time>2018-06-17T13:43:27Z</time>
      </trkpt>
      <trkpt lat="4.5101600" lon="-74.1190760">
        <ele>2682.0</ele>
        <time>2018-06-17T13:43:39Z</time>
      </trkpt>
      <trkpt lat="4.5099520" lon="-74.1185670">
        <ele>2682.5</ele>
        <time>2018-06-17T13:43:50Z</time>
      </trkpt>
      <trkpt lat="4.5097480" lon="-74.1180280">
        <ele>2684.5</ele>
        <time>2018-06-17T13:44:01Z</time>
      </trkpt>
      <trkpt lat="4.5095280" lon="-74.1174950">
        <ele>2686.8</ele>
        <time>2018-06-17T13:44:12Z</time>
      </trkpt>
      <trkpt lat="4.5093590" lon="-74.1170970">
        <ele>2689.3</ele>
        <time>2018-06-17T13:44:20Z</time>
      </trkpt>
      <trkpt lat="4.5091500" lon="-74.1165810">
        <ele>2691.6</ele>
        <time>2018-06-17T13:44:30Z</time>
      </trkpt>
      <trkpt lat="4.5089510" lon="-74.1160690">
        <ele>2692.7</ele>
        <time>2018-06-17T13:44:40Z</time>
      </trkpt>
      <trkpt lat="4.5087140" lon="-74.1155350">
        <ele>2695.5</ele>
        <time>2018-06-17T13:44:50Z</time>
      </trkpt>
      <trkpt lat="4.5084370" lon="-74.1150310">
        <ele>2696.0</ele>
        <time>2018-06-17T13:45:00Z</time>
      </trkpt>
      <trkpt lat="4.5080980" lon="-74.1145940">
        <ele>2699.2</ele>
        <time>2018-06-17T13:45:09Z</time>
      </trkpt>
      <trkpt lat="4.5077960" lon="-74.1142310">
        <ele>2702.0</ele>
        <time>2018-06-17T13:45:17Z</time>
      </trkpt>
      <trkpt lat="4.5075500" lon="-74.1140060">
        <ele>2702.0</ele>
        <time>2018-06-17T13:45:23Z</time>
      </trkpt>
      <trkpt lat="4.5072120" lon="-74.1135320">
        <ele>2706.2</ele>
        <time>2018-06-17T13:45:34Z</time>
      </trkpt>
      <trkpt lat="4.5068550" lon="-74.1130610">
        <ele>2711.9</ele>
        <time>2018-06-17T13:45:45Z</time>
      </trkpt>
      <trkpt lat="4.5068290" lon="-74.1130120">
        <ele>2712.6</ele>
        <time>2018-06-17T13:45:46Z</time>
      </trkpt>
      <trkpt lat="4.5066060" lon="-74.1125110">
        <ele>2713.4</ele>
        <time>2018-06-17T13:45:56Z</time>
      </trkpt>
      <trkpt lat="4.5065540" lon="-74.1122560">
        <ele>2717.0</ele>
        <time>2018-06-17T13:46:01Z</time>
      </trkpt>
      <trkpt lat="4.5065520" lon="-74.1117090">
        <ele>2720.9</ele>
        <time>2018-06-17T13:46:12Z</time>
      </trkpt>
      <trkpt lat="4.5065580" lon="-74.1111330">
        <ele>2725.5</ele>
        <time>2018-06-17T13:46:24Z</time>
      </trkpt>
      <trkpt lat="4.5065540" lon="-74.1105660">
        <ele>2728.8</ele>
        <time>2018-06-17T13:46:36Z</time>
      </trkpt>
      <trkpt lat="4.5065510" lon="-74.1100040">
        <ele>2729.9</ele>
        <time>2018-06-17T13:46:48Z</time>
      </trkpt>
      <trkpt lat="4.5065430" lon="-74.1094330">
        <ele>2732.5</ele>
        <time>2018-06-17T13:47:01Z</time>
      </trkpt>
      <trkpt lat="4.5065480" lon="-74.1088630">
        <ele>2735.0</ele>
        <time>2018-06-17T13:47:14Z</time>
      </trkpt>
      <trkpt lat="4.5065470" lon="-74.1082960">
        <ele>2738.9</ele>
        <time>2018-06-17T13:47:27Z</time>
      </trkpt>
      <trkpt lat="4.5065480" lon="-74.1082060">
        <ele>2738.9</ele>
        <time>2018-06-17T13:47:29Z</time>
      </trkpt>
      <trkpt lat="4.5065410" lon="-74.1076250">
        <ele>2739.3</ele>
        <time>2018-06-17T13:47:42Z</time>
      </trkpt>
      <trkpt lat="4.5065360" lon="-74.1070580">
        <ele>2740.6</ele>
        <time>2018-06-17T13:47:55Z</time>
      </trkpt>
      <trkpt lat="4.5065400" lon="-74.1065050">
        <ele>2744.0</ele>
        <time>2018-06-17T13:48:08Z</time>
      </trkpt>
      <trkpt lat="4.5065370" lon="-74.1061960">
        <ele>2745.5</ele>
        <time>2018-06-17T13:48:15Z</time>
      </trkpt>
      <trkpt lat="4.5065130" lon="-74.1056180">
        <ele>2750.2</ele>
        <time>2018-06-17T13:48:28Z</time>
      </trkpt>
      <trkpt lat="4.5063630" lon="-74.1050820">
        <ele>2753.9</ele>
        <time>2018-06-17T13:48:41Z</time>
      </trkpt>
      <trkpt lat="4.5060110" lon="-74.1046340">
        <ele>2756.2</ele>
        <time>2018-06-17T13:48:54Z</time>
      </trkpt>
      <trkpt lat="4.5059420" lon="-74.1045790">
        <ele>2756.8</ele>
        <time>2018-06-17T13:48:56Z</time>
      </trkpt>
      <trkpt lat="4.5054240" lon="-74.1043500">
        <ele>2760.9</ele>
        <time>2018-06-17T13:49:09Z</time>
      </trkpt>
      <trkpt lat="4.5049050" lon="-74.1043520">
        <ele>2766.1</ele>
        <time>2018-06-17T13:49:21Z</time>
      </trkpt>
      <trkpt lat="4.5043490" lon="-74.1045270">
        <ele>2770.0</ele>
        <time>2018-06-17T13:49:34Z</time>
      </trkpt>
      <trkpt lat="4.5038340" lon="-74.1047850">
        <ele>2772.5</ele>
        <time>2018-06-17T13:49:47Z</time>
      </trkpt>
      <trkpt lat="4.5033220" lon="-74.1050330">
        <ele>2775.0</ele>
        <time>2018-06-17T13:50:00Z</time>
      </trkpt>
      <trkpt lat="4.5032010" lon="-74.1050830">
        <ele>2775.6</ele>
        <time>2018-06-17T13:50:03Z</time>
      </trkpt>
      <trkpt lat="4.5027100" lon="-74.1053250">
        <ele>2778.0</ele>
        <time>2018-06-17T13:50:15Z</time>
      </trkpt>
      <trkpt lat="4.5021980" lon="-74.1055560">
        <ele>2781.1</ele>
        <time>2018-06-17T13:50:28Z</time>
      </trkpt>
      <trkpt lat="4.5016660" lon="-74.1058020">
        <ele>2783.2</ele>
        <time>2018-06-17T13:50:41Z</time>
      </trkpt>
      <trkpt lat="4.5011640" lon="-74.1060440">
        <ele>2786.3</ele>
        <time>2018-06-17T13:50:53Z</time>
      </trkpt>
      <trkpt lat="4.5008500" lon="-74.1062040">
        <ele>2788.5</ele>
        <time>2018-06-17T13:51:00Z</time>
      </trkpt>
      <trkpt lat="4.5003360" lon="-74.1064580">
        <ele>2791.9</ele>
        <time>2018-06-17T13:51:11Z</time>
      </trkpt>
      <trkpt lat="4.4998180" lon="-74.1067070">
        <ele>2795.8</ele>
        <time>2018-06-17T13:51:22Z</time>
      </trkpt>
      <trkpt lat="4.4993220" lon="-74.1069610">
        <ele>2799.5</ele>
        <time>2018-06-17T13:51:33Z</time>
      </trkpt>
      <trkpt lat="4.4991960" lon="-74.1070220">
        <ele>2800.5</ele>
        <time>2018-06-17T13:51:36Z</time>
      </trkpt>
      <trkpt lat="4.4986900" lon="-74.1072700">
        <ele>2802.5</ele>
        <time>2018-06-17T13:51:48Z</time>
      </trkpt>
      <trkpt lat="4.4984420" lon="-74.1074060">
        <ele>2803.0</ele>
        <time>2018-06-17T13:51:54Z</time>
      </trkpt>
      <trkpt lat="4.4982020" lon="-74.1075230">
        <ele>2808.0</ele>
        <time>2018-06-17T13:52:00Z</time>
      </trkpt>
      <trkpt lat="4.4978490" lon="-74.1076300">
        <ele>2804.3</ele>
        <time>2018-06-17T13:52:08Z</time>
      </trkpt>
      <trkpt lat="4.4972950" lon="-74.1077120">
        <ele>2798.0</ele>
        <time>2018-06-17T13:52:19Z</time>
      </trkpt>
      <trkpt lat="4.4972500" lon="-74.1077090">
        <ele>2798.0</ele>
        <time>2018-06-17T13:52:20Z</time>
      </trkpt>
      <trkpt lat="4.4968910" lon="-74.1077010">
        <ele>2801.0</ele>
        <time>2018-06-17T13:52:28Z</time>
      </trkpt>
      <trkpt lat="4.4963190" lon="-74.1076150">
        <ele>2806.7</ele>
        <time>2018-06-17T13:52:41Z</time>
      </trkpt>
      <trkpt lat="4.4962290" lon="-74.1076070">
        <ele>2807.5</ele>
        <time>2018-06-17T13:52:43Z</time>
      </trkpt>
      <trkpt lat="4.4956770" lon="-74.1075400">
        <ele>2811.6</ele>
        <time>2018-06-17T13:52:55Z</time>
      </trkpt>
      <trkpt lat="4.4952480" lon="-74.1075630">
        <ele>2814.6</ele>
        <time>2018-06-17T13:53:04Z</time>
      </trkpt>
      <trkpt lat="4.4946980" lon="-74.1077360">
        <ele>2818.9</ele>
        <time>2018-06-17T13:53:16Z</time>
      </trkpt>
      <trkpt lat="4.4942360" lon="-74.1080420">
        <ele>2822.2</ele>
        <time>2018-06-17T13:53:27Z</time>
      </trkpt>
      <trkpt lat="4.4938870" lon="-74.1084580">
        <ele>2824.9</ele>
        <time>2018-06-17T13:53:37Z</time>
      </trkpt>
      <trkpt lat="4.4935570" lon="-74.1089440">
        <ele>2829.4</ele>
        <time>2018-06-17T13:53:48Z</time>
      </trkpt>
      <trkpt lat="4.4932920" lon="-74.1093430">
        <ele>2833.1</ele>
        <time>2018-06-17T13:53:57Z</time>
      </trkpt>
      <trkpt lat="4.4929310" lon="-74.1097680">
        <ele>2834.3</ele>
        <time>2018-06-17T13:54:08Z</time>
      </trkpt>
      <trkpt lat="4.4926580" lon="-74.1099900">
        <ele>2835.6</ele>
        <time>2018-06-17T13:54:15Z</time>
      </trkpt>
      <trkpt lat="4.4921410" lon="-74.1102100">
        <ele>2837.5</ele>
        <time>2018-06-17T13:54:26Z</time>
      </trkpt>
      <trkpt lat="4.4915700" lon="-74.1102760">
        <ele>2840.8</ele>
        <time>2018-06-17T13:54:37Z</time>
      </trkpt>
      <trkpt lat="4.4910240" lon="-74.1101750">
        <ele>2844.7</ele>
        <time>2018-06-17T13:54:48Z</time>
      </trkpt>
      <trkpt lat="4.4909790" lon="-74.1101550">
        <ele>2845.1</ele>
        <time>2018-06-17T13:54:49Z</time>
      </trkpt>
      <trkpt lat="4.4906220" lon="-74.1099710">
        <ele>2847.8</ele>
        <time>2018-06-17T13:54:57Z</time>
      </trkpt>
      <trkpt lat="4.4901870" lon="-74.1096310">
        <ele>2851.2</ele>
        <time>2018-06-17T13:55:08Z</time>
      </trkpt>
      <trkpt lat="4.4897700" lon="-74.1092680">
        <ele>2854.1</ele>
        <time>2018-06-17T13:55:20Z</time>
      </trkpt>
      <trkpt lat="4.4893580" lon="-74.1088970">
        <ele>2856.4</ele>
        <time>2018-06-17T13:55:32Z</time>
      </trkpt>
      <trkpt lat="4.4889570" lon="-74.1085330">
        <ele>2858.0</ele>
        <time>2018-06-17T13:55:44Z</time>
      </trkpt>
      <trkpt lat="4.4885260" lon="-74.1081410">
        <ele>2858.9</ele>
        <time>2018-06-17T13:55:57Z</time>
      </trkpt>
      <trkpt lat="4.4881250" lon="-74.1077760">
        <ele>2859.3</ele>
        <time>2018-06-17T13:56:09Z</time>
      </trkpt>
      <trkpt lat="4.4878430" lon="-74.1075360">
        <ele>2859.6</ele>
        <time>2018-06-17T13:56:17Z</time>
      </trkpt>
      <trkpt lat="4.4874650" lon="-74.1070990">
        <ele>2860.5</ele>
        <time>2018-06-17T13:56:30Z</time>
      </trkpt>
      <trkpt lat="4.4872150" lon="-74.1067240">
        <ele>2862.9</ele>
        <time>2018-06-17T13:56:40Z</time>
      </trkpt>
      <trkpt lat="4.4869710" lon="-74.1062210">
        <ele>2866.5</ele>
        <time>2018-06-17T13:56:52Z</time>
      </trkpt>
      <trkpt lat="4.4867850" lon="-74.1056950">
        <ele>2869.0</ele>
        <time>2018-06-17T13:57:03Z</time>
      </trkpt>
      <trkpt lat="4.4865980" lon="-74.1051390">
        <ele>2864.4</ele>
        <time>2018-06-17T13:57:14Z</time>
      </trkpt>
      <trkpt lat="4.4864080" lon="-74.1045980">
        <ele>2862.2</ele>
        <time>2018-06-17T13:57:24Z</time>
      </trkpt>
      <trkpt lat="4.4862300" lon="-74.1040330">
        <ele>2863.1</ele>
        <time>2018-06-17T13:57:34Z</time>
      </trkpt>
      <trkpt lat="4.4860830" lon="-74.1035870">
        <ele>2865.0</ele>
        <time>2018-06-17T13:57:42Z</time>
      </trkpt>
      <trkpt lat="4.4859140" lon="-74.1030640">
        <ele>2873.0</ele>
        <time>2018-06-17T13:57:52Z</time>
      </trkpt>
      <trkpt lat="4.4857550" lon="-74.1025490">
        <ele>2870.3</ele>
        <time>2018-06-17T13:58:02Z</time>
      </trkpt>
      <trkpt lat="4.4855810" lon="-74.1020040">
        <ele>2864.5</ele>
        <time>2018-06-17T13:58:13Z</time>
      </trkpt>
      <trkpt lat="4.4853960" lon="-74.1014790">
        <ele>2867.4</ele>
        <time>2018-06-17T13:58:24Z</time>
      </trkpt>
      <trkpt lat="4.4852300" lon="-74.1009490">
        <ele>2870.3</ele>
        <time>2018-06-17T13:58:35Z</time>
      </trkpt>
      <trkpt lat="4.4850580" lon="-74.1004210">
        <ele>2873.1</ele>
        <time>2018-06-17T13:58:47Z</time>
      </trkpt>
      <trkpt lat="4.4848850" lon="-74.0999050">
        <ele>2876.0</ele>
        <time>2018-06-17T13:58:59Z</time>
      </trkpt>
      <trkpt lat="4.4847590" lon="-74.0995020">
        <ele>2878.4</ele>
        <time>2018-06-17T13:59:09Z</time>
      </trkpt>
      <trkpt lat="4.4845730" lon="-74.0989890">
        <ele>2881.3</ele>
        <time>2018-06-17T13:59:22Z</time>
      </trkpt>
      <trkpt lat="4.4842980" lon="-74.0984960">
        <ele>2884.7</ele>
        <time>2018-06-17T13:59:36Z</time>
      </trkpt>
      <trkpt lat="4.4839520" lon="-74.0980490">
        <ele>2888.2</ele>
        <time>2018-06-17T13:59:50Z</time>
      </trkpt>
      <trkpt lat="4.4835010" lon="-74.0977060">
        <ele>2891.1</ele>
        <time>2018-06-17T14:00:04Z</time>
      </trkpt>
      <trkpt lat="4.4830130" lon="-74.0973930">
        <ele>2893.5</ele>
        <time>2018-06-17T14:00:19Z</time>
      </trkpt>
      <trkpt lat="4.4825520" lon="-74.0971010">
        <ele>2895.7</ele>
        <time>2018-06-17T14:00:33Z</time>
      </trkpt>
      <trkpt lat="4.4820720" lon="-74.0967800">
        <ele>2897.6</ele>
        <time>2018-06-17T14:00:47Z</time>
      </trkpt>
      <trkpt lat="4.4815920" lon="-74.0964660">
        <ele>2899.7</ele>
        <time>2018-06-17T14:01:01Z</time>
      </trkpt>
      <trkpt lat="4.4814570" lon="-74.0963790">
        <ele>2900.3</ele>
        <time>2018-06-17T14:01:05Z</time>
      </trkpt>
      <trkpt lat="4.4810360" lon="-74.0960680">
        <ele>2902.6</ele>
        <time>2018-06-17T14:01:17Z</time>
      </trkpt>
      <trkpt lat="4.4808680" lon="-74.0959280">
        <ele>2903.7</ele>
        <time>2018-06-17T14:01:22Z</time>
      </trkpt>
      <trkpt lat="4.4804150" lon="-74.0955630">
        <ele>2906.8</ele>
        <time>2018-06-17T14:01:36Z</time>
      </trkpt>
      <trkpt lat="4.4799500" lon="-74.0952540">
        <ele>2909.7</ele>
        <time>2018-06-17T14:01:49Z</time>
      </trkpt>
      <trkpt lat="4.4794490" lon="-74.0950080">
        <ele>2915.2</ele>
        <time>2018-06-17T14:02:03Z</time>
      </trkpt>
      <trkpt lat="4.4789750" lon="-74.0947180">
        <ele>2924.0</ele>
        <time>2018-06-17T14:02:17Z</time>
      </trkpt>
      <trkpt lat="4.4785020" lon="-74.0943900">
        <ele>2932.9</ele>
        <time>2018-06-17T14:02:32Z</time>
      </trkpt>
      <trkpt lat="4.4783980" lon="-74.0943230">
        <ele>2935.0</ele>
        <time>2018-06-17T14:02:35Z</time>
      </trkpt>
      <trkpt lat="4.4779320" lon="-74.0940490">
        <ele>2944.0</ele>
        <time>2018-06-17T14:02:49Z</time>
      </trkpt>
      <trkpt lat="4.4774030" lon="-74.0938270">
        <ele>2943.9</ele>
        <time>2018-06-17T14:03:04Z</time>
      </trkpt>
      <trkpt lat="4.4768410" lon="-74.0938180">
        <ele>2940.9</ele>
        <time>2018-06-17T14:03:17Z</time>
      </trkpt>
      <trkpt lat="4.4767430" lon="-74.0937910">
        <ele>2940.4</ele>
        <time>2018-06-17T14:03:19Z</time>
      </trkpt>
      <trkpt lat="4.4763170" lon="-74.0934320">
        <ele>2939.9</ele>
        <time>2018-06-17T14:03:29Z</time>
      </trkpt>
      <trkpt lat="4.4762560" lon="-74.0931890">
        <ele>2943.6</ele>
        <time>2018-06-17T14:03:34Z</time>
      </trkpt>
      <trkpt lat="4.4763470" lon="-74.0926480">
        <ele>2951.0</ele>
        <time>2018-06-17T14:03:47Z</time>
      </trkpt>
      <trkpt lat="4.4767120" lon="-74.0922360">
        <ele>2958.0</ele>
        <time>2018-06-17T14:04:03Z</time>
      </trkpt>
      <trkpt lat="4.4772150" lon="-74.0920500">
        <ele>2960.3</ele>
        <time>2018-06-17T14:04:20Z</time>
      </trkpt>
      <trkpt lat="4.4777790" lon="-74.0921080">
        <ele>2965.8</ele>
        <time>2018-06-17T14:04:40Z</time>
      </trkpt>
      <trkpt lat="4.4783280" lon="-74.0921370">
        <ele>2967.3</ele>
        <time>2018-06-17T14:04:58Z</time>
      </trkpt>
      <trkpt lat="4.4784720" lon="-74.0921660">
        <ele>2968.6</ele>
        <time>2018-06-17T14:05:04Z</time>
      </trkpt>
      <trkpt lat="4.4788220" lon="-74.0917600">
        <ele>2977.5</ele>
        <time>2018-06-17T14:05:22Z</time>
      </trkpt>
      <trkpt lat="4.4790920" lon="-74.0912750">
        <ele>2983.0</ele>
        <time>2018-06-17T14:05:42Z</time>
      </trkpt>
      <trkpt lat="4.4793400" lon="-74.0907870">
        <ele>2986.5</ele>
        <time>2018-06-17T14:06:00Z</time>
      </trkpt>
      <trkpt lat="4.4795430" lon="-74.0902950">
        <ele>2988.8</ele>
        <time>2018-06-17T14:06:17Z</time>
      </trkpt>
      <trkpt lat="4.4799740" lon="-74.0899440">
        <ele>2995.0</ele>
        <time>2018-06-17T14:06:35Z</time>
      </trkpt>
      <trkpt lat="4.4805180" lon="-74.0898610">
        <ele>3000.7</ele>
        <time>2018-06-17T14:06:53Z</time>
      </trkpt>
      <trkpt lat="4.4810590" lon="-74.0898760">
        <ele>3002.1</ele>
        <time>2018-06-17T14:07:10Z</time>
      </trkpt>
      <trkpt lat="4.4816040" lon="-74.0898730">
        <ele>3005.2</ele>
        <time>2018-06-17T14:07:27Z</time>
      </trkpt>
      <trkpt lat="4.4821600" lon="-74.0898920">
        <ele>3007.2</ele>
        <time>2018-06-17T14:07:45Z</time>
      </trkpt>
      <trkpt lat="4.4826940" lon="-74.0898950">
        <ele>3013.7</ele>
        <time>2018-06-17T14:08:01Z</time>
      </trkpt>
      <trkpt lat="4.4832270" lon="-74.0897500">
        <ele>3013.0</ele>
        <time>2018-06-17T14:08:18Z</time>
      </trkpt>
      <trkpt lat="4.4836600" lon="-74.0894230">
        <ele>3013.7</ele>
        <time>2018-06-17T14:08:37Z</time>
      </trkpt>
      <trkpt lat="4.4840790" lon="-74.0890530">
        <ele>3020.0</ele>
        <time>2018-06-17T14:08:56Z</time>
      </trkpt>
      <trkpt lat="4.4844530" lon="-74.0886570">
        <ele>3025.2</ele>
        <time>2018-06-17T14:09:16Z</time>
      </trkpt>
      <trkpt lat="4.4848350" lon="-74.0882780">
        <ele>3022.6</ele>
        <time>2018-06-17T14:09:34Z</time>
      </trkpt>
      <trkpt lat="4.4853480" lon="-74.0880730">
        <ele>3026.8</ele>
        <time>2018-06-17T14:09:51Z</time>
      </trkpt>
      <trkpt lat="4.4858800" lon="-74.0881450">
        <ele>3032.4</ele>
        <time>2018-06-17T14:10:08Z</time>
      </trkpt>
      <trkpt lat="4.4859680" lon="-74.0881840">
        <ele>3032.6</ele>
        <time>2018-06-17T14:10:11Z</time>
      </trkpt>
      <trkpt lat="4.4861300" lon="-74.0882120">
        <ele>3033.7</ele>
        <time>2018-06-17T14:10:16Z</time>
      </trkpt>
      <trkpt lat="4.4866310" lon="-74.0880590">
        <ele>3038.3</ele>
        <time>2018-06-17T14:10:32Z</time>
      </trkpt>
      <trkpt lat="4.4868120" lon="-74.0879070">
        <ele>3042.3</ele>
        <time>2018-06-17T14:10:40Z</time>
      </trkpt>
      <trkpt lat="4.4870060" lon="-74.0874000">
        <ele>3049.4</ele>
        <time>2018-06-17T14:10:58Z</time>
      </trkpt>
      <trkpt lat="4.4873330" lon="-74.0869710">
        <ele>3053.6</ele>
        <time>2018-06-17T14:11:17Z</time>
      </trkpt>
      <trkpt lat="4.4877480" lon="-74.0869890">
        <ele>3057.4</ele>
        <time>2018-06-17T14:11:32Z</time>
      </trkpt>
      <trkpt lat="4.4878650" lon="-74.0869960">
        <ele>3056.2</ele>
        <time>2018-06-17T14:11:36Z</time>
      </trkpt>
      <trkpt lat="4.4881820" lon="-74.0869830">
        <ele>3049.4</ele>
        <time>2018-06-17T14:11:47Z</time>
      </trkpt>
      <trkpt lat="4.4885660" lon="-74.0866100">
        <ele>3048.9</ele>
        <time>2018-06-17T14:12:05Z</time>
      </trkpt>
      <trkpt lat="4.4884750" lon="-74.0860870">
        <ele>3068.0</ele>
        <time>2018-06-17T14:12:24Z</time>
      </trkpt>
      <trkpt lat="4.4885350" lon="-74.0856300">
        <ele>3065.6</ele>
        <time>2018-06-17T14:12:40Z</time>
      </trkpt>
      <trkpt lat="4.4888830" lon="-74.0851970">
        <ele>3051.5</ele>
        <time>2018-06-17T14:12:59Z</time>
      </trkpt>
      <trkpt lat="4.4891110" lon="-74.0847440">
        <ele>3064.5</ele>
        <time>2018-06-17T14:13:19Z</time>
      </trkpt>
      <trkpt lat="4.4889670" lon="-74.0845960">
        <ele>3067.7</ele>
        <time>2018-06-17T14:13:29Z</time>
      </trkpt>
      <trkpt lat="4.4886590" lon="-74.0845900">
        <ele>3072.8</ele>
        <time>2018-06-17T14:13:42Z</time>
      </trkpt>
      <trkpt lat="4.4887220" lon="-74.0844810">
        <ele>3072.6</ele>
        <time>2018-06-17T14:13:49Z</time>
      </trkpt>
      <trkpt lat="4.4891260" lon="-74.0848070">
        <ele>3061.5</ele>
        <time>2018-06-17T14:14:48Z</time>
      </trkpt>
      <trkpt lat="4.4889000" lon="-74.0851390">
        <ele>3052.0</ele>
        <time>2018-06-17T14:15:09Z</time>
      </trkpt>
      <trkpt lat="4.4887980" lon="-74.0852380">
        <ele>3052.5</ele>
        <time>2018-06-17T14:15:16Z</time>
      </trkpt>
      <trkpt lat="4.4885110" lon="-74.0856800">
        <ele>3067.0</ele>
        <time>2018-06-17T14:15:41Z</time>
      </trkpt>
      <trkpt lat="4.4884810" lon="-74.0859140">
        <ele>3070.7</ele>
        <time>2018-06-17T14:15:50Z</time>
      </trkpt>
      <trkpt lat="4.4885600" lon="-74.0864530">
        <ele>3054.6</ele>
        <time>2018-06-17T14:16:16Z</time>
      </trkpt>
      <trkpt lat="4.4883390" lon="-74.0869240">
        <ele>3047.8</ele>
        <time>2018-06-17T14:16:41Z</time>
      </trkpt>
      <trkpt lat="4.4878130" lon="-74.0869890">
        <ele>3056.5</ele>
        <time>2018-06-17T14:17:06Z</time>
      </trkpt>
      <trkpt lat="4.4872850" lon="-74.0869940">
        <ele>3053.5</ele>
        <time>2018-06-17T14:17:30Z</time>
      </trkpt>
      <trkpt lat="4.4870720" lon="-74.0872900">
        <ele>3050.8</ele>
        <time>2018-06-17T14:17:47Z</time>
      </trkpt>
      <trkpt lat="4.4868620" lon="-74.0877960">
        <ele>3045.1</ele>
        <time>2018-06-17T14:18:11Z</time>
      </trkpt>
      <trkpt lat="4.4865220" lon="-74.0882260">
        <ele>3037.7</ele>
        <time>2018-06-17T14:18:35Z</time>
      </trkpt>
      <trkpt lat="4.4862090" lon="-74.0882030">
        <ele>3034.2</ele>
        <time>2018-06-17T14:18:55Z</time>
      </trkpt>
      <trkpt lat="4.4861520" lon="-74.0882000">
        <ele>3033.7</ele>
        <time>2018-06-17T14:18:59Z</time>
      </trkpt>
      <trkpt lat="4.4858950" lon="-74.0881520">
        <ele>3032.4</ele>
        <time>2018-06-17T14:19:17Z</time>
      </trkpt>
      <trkpt lat="4.4853670" lon="-74.0880690">
        <ele>3026.8</ele>
        <time>2018-06-17T14:21:37Z</time>
      </trkpt>
      <trkpt lat="4.4848650" lon="-74.0882660">
        <ele>3022.8</ele>
        <time>2018-06-17T14:22:01Z</time>
      </trkpt>
      <trkpt lat="4.4845820" lon="-74.0885040">
        <ele>3022.3</ele>
        <time>2018-06-17T14:22:19Z</time>
      </trkpt>
      <trkpt lat="4.4845780" lon="-74.0885300">
        <ele>3022.8</ele>
        <time>2018-06-17T14:23:04Z</time>
      </trkpt>
      <trkpt lat="4.4845040" lon="-74.0886210">
        <ele>3024.5</ele>
        <time>2018-06-17T14:23:11Z</time>
      </trkpt>
      <trkpt lat="4.4844400" lon="-74.0886800">
        <ele>3025.9</ele>
        <time>2018-06-17T14:23:16Z</time>
      </trkpt>
      <trkpt lat="4.4840830" lon="-74.0890870">
        <ele>3018.7</ele>
        <time>2018-06-17T14:23:42Z</time>
      </trkpt>
      <trkpt lat="4.4837070" lon="-74.0894960">
        <ele>3013.7</ele>
        <time>2018-06-17T14:24:06Z</time>
      </trkpt>
      <trkpt lat="4.4834910" lon="-74.0896940">
        <ele>3013.3</ele>
        <time>2018-06-17T14:24:18Z</time>
      </trkpt>
      <trkpt lat="4.4834130" lon="-74.0895380">
        <ele>3013.0</ele>
        <time>2018-06-17T14:24:26Z</time>
      </trkpt>
      <trkpt lat="4.4834210" lon="-74.0893780">
        <ele>3013.0</ele>
        <time>2018-06-17T14:24:41Z</time>
      </trkpt>
      <trkpt lat="4.4832160" lon="-74.0898640">
        <ele>3013.0</ele>
        <time>2018-06-17T14:25:17Z</time>
      </trkpt>
      <trkpt lat="4.4829690" lon="-74.0899280">
        <ele>3013.0</ele>
        <time>2018-06-17T14:25:28Z</time>
      </trkpt>
      <trkpt lat="4.4831170" lon="-74.0898260">
        <ele>3012.9</ele>
        <time>2018-06-17T14:25:36Z</time>
      </trkpt>
      <trkpt lat="4.4833830" lon="-74.0896760">
        <ele>3014.1</ele>
        <time>2018-06-17T14:25:48Z</time>
      </trkpt>
      <trkpt lat="4.4833180" lon="-74.0897900">
        <ele>3013.6</ele>
        <time>2018-06-17T14:25:54Z</time>
      </trkpt>
      <trkpt lat="4.4828420" lon="-74.0899560">
        <ele>3013.0</ele>
        <time>2018-06-17T14:26:15Z</time>
      </trkpt>
      <trkpt lat="4.4829990" lon="-74.0898350">
        <ele>3013.0</ele>
        <time>2018-06-17T14:26:25Z</time>
      </trkpt>
      <trkpt lat="4.4834150" lon="-74.0895370">
        <ele>3013.4</ele>
        <time>2018-06-17T14:26:45Z</time>
      </trkpt>
      <trkpt lat="4.4835140" lon="-74.0891340">
        <ele>3018.5</ele>
        <time>2018-06-17T14:27:02Z</time>
      </trkpt>
      <trkpt lat="4.4835250" lon="-74.0890250">
        <ele>3021.1</ele>
        <time>2018-06-17T14:27:09Z</time>
      </trkpt>
      <trkpt lat="4.4835370" lon="-74.0890490">
        <ele>3020.3</ele>
        <time>2018-06-17T14:27:17Z</time>
      </trkpt>
      <trkpt lat="4.4834130" lon="-74.0895830">
        <ele>3013.0</ele>
        <time>2018-06-17T14:28:04Z</time>
      </trkpt>
      <trkpt lat="4.4833110" lon="-74.0897520">
        <ele>3013.0</ele>
        <time>2018-06-17T14:28:12Z</time>
      </trkpt>
      <trkpt lat="4.4828150" lon="-74.0899690">
        <ele>3013.4</ele>
        <time>2018-06-17T14:28:28Z</time>
      </trkpt>
      <trkpt lat="4.4823210" lon="-74.0899260">
        <ele>3008.9</ele>
        <time>2018-06-17T14:28:42Z</time>
      </trkpt>
      <trkpt lat="4.4821460" lon="-74.0899380">
        <ele>3007.0</ele>
        <time>2018-06-17T14:28:46Z</time>
      </trkpt>
      <trkpt lat="4.4816770" lon="-74.0899090">
        <ele>3005.3</ele>
        <time>2018-06-17T14:29:05Z</time>
      </trkpt>
      <trkpt lat="4.4815660" lon="-74.0898640">
        <ele>3005.2</ele>
        <time>2018-06-17T14:29:09Z</time>
      </trkpt>
      <trkpt lat="4.4811000" lon="-74.0898660">
        <ele>3002.5</ele>
        <time>2018-06-17T14:29:23Z</time>
      </trkpt>
      <trkpt lat="4.4805400" lon="-74.0898660">
        <ele>3000.7</ele>
        <time>2018-06-17T14:29:42Z</time>
      </trkpt>
      <trkpt lat="4.4800020" lon="-74.0899920">
        <ele>2995.2</ele>
        <time>2018-06-17T14:30:02Z</time>
      </trkpt>
      <trkpt lat="4.4795410" lon="-74.0903040">
        <ele>2988.8</ele>
        <time>2018-06-17T14:30:21Z</time>
      </trkpt>
      <trkpt lat="4.4793200" lon="-74.0908070">
        <ele>2986.5</ele>
        <time>2018-06-17T14:30:36Z</time>
      </trkpt>
      <trkpt lat="4.4791420" lon="-74.0913470">
        <ele>2982.8</ele>
        <time>2018-06-17T14:30:53Z</time>
      </trkpt>
      <trkpt lat="4.4789020" lon="-74.0918330">
        <ele>2977.4</ele>
        <time>2018-06-17T14:31:11Z</time>
      </trkpt>
      <trkpt lat="4.4784600" lon="-74.0921660">
        <ele>2968.2</ele>
        <time>2018-06-17T14:31:27Z</time>
      </trkpt>
      <trkpt lat="4.4779020" lon="-74.0921840">
        <ele>2965.4</ele>
        <time>2018-06-17T14:31:45Z</time>
      </trkpt>
      <trkpt lat="4.4774290" lon="-74.0920950">
        <ele>2964.1</ele>
        <time>2018-06-17T14:31:58Z</time>
      </trkpt>
      <trkpt lat="4.4770750" lon="-74.0921250">
        <ele>2959.8</ele>
        <time>2018-06-17T14:32:06Z</time>
      </trkpt>
      <trkpt lat="4.4767170" lon="-74.0922600">
        <ele>2957.8</ele>
        <time>2018-06-17T14:32:14Z</time>
      </trkpt>
      <trkpt lat="4.4765110" lon="-74.0924820">
        <ele>2952.5</ele>
        <time>2018-06-17T14:32:19Z</time>
      </trkpt>
      <trkpt lat="4.4763230" lon="-74.0929010">
        <ele>2948.0</ele>
        <time>2018-06-17T14:32:26Z</time>
      </trkpt>
      <trkpt lat="4.4764100" lon="-74.0934750">
        <ele>2939.2</ele>
        <time>2018-06-17T14:32:33Z</time>
      </trkpt>
      <trkpt lat="4.4768660" lon="-74.0937540">
        <ele>2941.0</ele>
        <time>2018-06-17T14:32:40Z</time>
      </trkpt>
      <trkpt lat="4.4769510" lon="-74.0933780">
        <ele>2941.6</ele>
        <time>2018-06-17T14:32:51Z</time>
      </trkpt>
      <trkpt lat="4.4765010" lon="-74.0930410">
        <ele>2950.0</ele>
        <time>2018-06-17T14:33:08Z</time>
      </trkpt>
      <trkpt lat="4.4760510" lon="-74.0927270">
        <ele>2954.6</ele>
        <time>2018-06-17T14:33:28Z</time>
      </trkpt>
      <trkpt lat="4.4755850" lon="-74.0924080">
        <ele>2968.0</ele>
        <time>2018-06-17T14:33:46Z</time>
      </trkpt>
      <trkpt lat="4.4751350" lon="-74.0920950">
        <ele>2970.5</ele>
        <time>2018-06-17T14:34:04Z</time>
      </trkpt>
      <trkpt lat="4.4746790" lon="-74.0917800">
        <ele>2976.0</ele>
        <time>2018-06-17T14:34:21Z</time>
      </trkpt>
      <trkpt lat="4.4742310" lon="-74.0914730">
        <ele>2982.5</ele>
        <time>2018-06-17T14:34:37Z</time>
      </trkpt>
      <trkpt lat="4.4737890" lon="-74.0911450">
        <ele>2988.7</ele>
        <time>2018-06-17T14:34:52Z</time>
      </trkpt>
      <trkpt lat="4.4733110" lon="-74.0908260">
        <ele>2993.9</ele>
        <time>2018-06-17T14:35:05Z</time>
      </trkpt>
      <trkpt lat="4.4728390" lon="-74.0905360">
        <ele>2998.9</ele>
        <time>2018-06-17T14:35:20Z</time>
      </trkpt>
      <trkpt lat="4.4723590" lon="-74.0902350">
        <ele>3003.5</ele>
        <time>2018-06-17T14:35:35Z</time>
      </trkpt>
      <trkpt lat="4.4718590" lon="-74.0899390">
        <ele>3007.7</ele>
        <time>2018-06-17T14:35:50Z</time>
      </trkpt>
      <trkpt lat="4.4713580" lon="-74.0896730">
        <ele>3011.9</ele>
        <time>2018-06-17T14:36:05Z</time>
      </trkpt>
      <trkpt lat="4.4708750" lon="-74.0894160">
        <ele>3013.9</ele>
        <time>2018-06-17T14:36:20Z</time>
      </trkpt>
      <trkpt lat="4.4703720" lon="-74.0891680">
        <ele>3020.0</ele>
        <time>2018-06-17T14:36:38Z</time>
      </trkpt>
      <trkpt lat="4.4698760" lon="-74.0889180">
        <ele>3025.7</ele>
        <time>2018-06-17T14:36:56Z</time>
      </trkpt>
      <trkpt lat="4.4697160" lon="-74.0888190">
        <ele>3029.4</ele>
        <time>2018-06-17T14:37:04Z</time>
      </trkpt>
      <trkpt lat="4.4698850" lon="-74.0888380">
        <ele>3025.6</ele>
        <time>2018-06-17T14:37:11Z</time>
      </trkpt>
      <trkpt lat="4.4704110" lon="-74.0890830">
        <ele>3020.2</ele>
        <time>2018-06-17T14:37:26Z</time>
      </trkpt>
      <trkpt lat="4.4709480" lon="-74.0893410">
        <ele>3013.8</ele>
        <time>2018-06-17T14:37:38Z</time>
      </trkpt>
      <trkpt lat="4.4714680" lon="-74.0896100">
        <ele>3011.4</ele>
        <time>2018-06-17T14:37:47Z</time>
      </trkpt>
      <trkpt lat="4.4719650" lon="-74.0898860">
        <ele>3007.3</ele>
        <time>2018-06-17T14:37:56Z</time>
      </trkpt>
      <trkpt lat="4.4724730" lon="-74.0901860">
        <ele>3003.0</ele>
        <time>2018-06-17T14:38:04Z</time>
      </trkpt>
      <trkpt lat="4.4729620" lon="-74.0904870">
        <ele>2998.2</ele>
        <time>2018-06-17T14:38:12Z</time>
      </trkpt>
      <trkpt lat="4.4734630" lon="-74.0908230">
        <ele>2992.8</ele>
        <time>2018-06-17T14:38:20Z</time>
      </trkpt>
      <trkpt lat="4.4739100" lon="-74.0911390">
        <ele>2987.7</ele>
        <time>2018-06-17T14:38:27Z</time>
      </trkpt>
      <trkpt lat="4.4744140" lon="-74.0914890">
        <ele>2980.5</ele>
        <time>2018-06-17T14:38:34Z</time>
      </trkpt>
      <trkpt lat="4.4749140" lon="-74.0918350">
        <ele>2973.7</ele>
        <time>2018-06-17T14:38:40Z</time>
      </trkpt>
      <trkpt lat="4.4753810" lon="-74.0921610">
        <ele>2968.0</ele>
        <time>2018-06-17T14:38:46Z</time>
      </trkpt>
      <trkpt lat="4.4758950" lon="-74.0925150">
        <ele>2964.4</ele>
        <time>2018-06-17T14:38:52Z</time>
      </trkpt>
      <trkpt lat="4.4763960" lon="-74.0928560">
        <ele>2950.0</ele>
        <time>2018-06-17T14:38:58Z</time>
      </trkpt>
      <trkpt lat="4.4768810" lon="-74.0931880">
        <ele>2947.4</ele>
        <time>2018-06-17T14:39:04Z</time>
      </trkpt>
      <trkpt lat="4.4773900" lon="-74.0935370">
        <ele>2941.9</ele>
        <time>2018-06-17T14:39:10Z</time>
      </trkpt>
      <trkpt lat="4.4778690" lon="-74.0938670">
        <ele>2944.0</ele>
        <time>2018-06-17T14:39:16Z</time>
      </trkpt>
      <trkpt lat="4.4783710" lon="-74.0942020">
        <ele>2936.6</ele>
        <time>2018-06-17T14:39:22Z</time>
      </trkpt>
      <trkpt lat="4.4788340" lon="-74.0945020">
        <ele>2927.6</ele>
        <time>2018-06-17T14:39:28Z</time>
      </trkpt>
      <trkpt lat="4.4792370" lon="-74.0947530">
        <ele>2920.3</ele>
        <time>2018-06-17T14:39:34Z</time>
      </trkpt>
      <trkpt lat="4.4797450" lon="-74.0950260">
        <ele>2911.0</ele>
        <time>2018-06-17T14:39:41Z</time>
      </trkpt>
      <trkpt lat="4.4802720" lon="-74.0953180">
        <ele>2908.0</ele>
        <time>2018-06-17T14:39:48Z</time>
      </trkpt>
      <trkpt lat="4.4807020" lon="-74.0956660">
        <ele>2905.1</ele>
        <time>2018-06-17T14:39:54Z</time>
      </trkpt>
      <trkpt lat="4.4811480" lon="-74.0960390">
        <ele>2902.3</ele>
        <time>2018-06-17T14:40:00Z</time>
      </trkpt>
      <trkpt lat="4.4816420" lon="-74.0963590">
        <ele>2899.8</ele>
        <time>2018-06-17T14:40:06Z</time>
      </trkpt>
      <trkpt lat="4.4821210" lon="-74.0966640">
        <ele>2897.8</ele>
        <time>2018-06-17T14:40:12Z</time>
      </trkpt>
      <trkpt lat="4.4826070" lon="-74.0969790">
        <ele>2896.0</ele>
        <time>2018-06-17T14:40:18Z</time>
      </trkpt>
      <trkpt lat="4.4831270" lon="-74.0973150">
        <ele>2893.5</ele>
        <time>2018-06-17T14:40:25Z</time>
      </trkpt>
      <trkpt lat="4.4836190" lon="-74.0976420">
        <ele>2891.0</ele>
        <time>2018-06-17T14:40:32Z</time>
      </trkpt>
      <trkpt lat="4.4841000" lon="-74.0979520">
        <ele>2888.2</ele>
        <time>2018-06-17T14:40:39Z</time>
      </trkpt>
      <trkpt lat="4.4843330" lon="-74.0981990">
        <ele>2886.1</ele>
        <time>2018-06-17T14:40:43Z</time>
      </trkpt>
      <trkpt lat="4.4846340" lon="-74.0986760">
        <ele>2888.4</ele>
        <time>2018-06-17T14:40:49Z</time>
      </trkpt>
      <trkpt lat="4.4848770" lon="-74.0992340">
        <ele>2883.9</ele>
        <time>2018-06-17T14:40:55Z</time>
      </trkpt>
      <trkpt lat="4.4850700" lon="-74.0998340">
        <ele>2887.1</ele>
        <time>2018-06-17T14:41:01Z</time>
      </trkpt>
      <trkpt lat="4.4852490" lon="-74.1004060">
        <ele>2873.8</ele>
        <time>2018-06-17T14:41:07Z</time>
      </trkpt>
      <trkpt lat="4.4854240" lon="-74.1009430">
        <ele>2867.8</ele>
        <time>2018-06-17T14:41:13Z</time>
      </trkpt>
      <trkpt lat="4.4856090" lon="-74.1015080">
        <ele>2865.7</ele>
        <time>2018-06-17T14:41:20Z</time>
      </trkpt>
      <trkpt lat="4.4857750" lon="-74.1020390">
        <ele>2864.1</ele>
        <time>2018-06-17T14:41:26Z</time>
      </trkpt>
      <trkpt lat="4.4859670" lon="-74.1026190">
        <ele>2870.4</ele>
        <time>2018-06-17T14:41:32Z</time>
      </trkpt>
      <trkpt lat="4.4861590" lon="-74.1032330">
        <ele>2872.5</ele>
        <time>2018-06-17T14:41:38Z</time>
      </trkpt>
      <trkpt lat="4.4863250" lon="-74.1037560">
        <ele>2872.1</ele>
        <time>2018-06-17T14:41:43Z</time>
      </trkpt>
      <trkpt lat="4.4865100" lon="-74.1043310">
        <ele>2872.0</ele>
        <time>2018-06-17T14:41:49Z</time>
      </trkpt>
      <trkpt lat="4.4866770" lon="-74.1048570">
        <ele>2873.0</ele>
        <time>2018-06-17T14:41:56Z</time>
      </trkpt>
      <trkpt lat="4.4868600" lon="-74.1053920">
        <ele>2869.0</ele>
        <time>2018-06-17T14:42:04Z</time>
      </trkpt>
      <trkpt lat="4.4870370" lon="-74.1059190">
        <ele>2866.9</ele>
        <time>2018-06-17T14:42:13Z</time>
      </trkpt>
      <trkpt lat="4.4871480" lon="-74.1062220">
        <ele>2867.0</ele>
        <time>2018-06-17T14:42:19Z</time>
      </trkpt>
      <trkpt lat="4.4873460" lon="-74.1066120">
        <ele>2867.0</ele>
        <time>2018-06-17T14:42:29Z</time>
      </trkpt>
      <trkpt lat="4.4876520" lon="-74.1070580">
        <ele>2868.8</ele>
        <time>2018-06-17T14:42:39Z</time>
      </trkpt>
      <trkpt lat="4.4880470" lon="-74.1074730">
        <ele>2862.8</ele>
        <time>2018-06-17T14:42:48Z</time>
      </trkpt>
      <trkpt lat="4.4884890" lon="-74.1078700">
        <ele>2862.2</ele>
        <time>2018-06-17T14:42:57Z</time>
      </trkpt>
      <trkpt lat="4.4889120" lon="-74.1082550">
        <ele>2861.1</ele>
        <time>2018-06-17T14:43:04Z</time>
      </trkpt>
      <trkpt lat="4.4893660" lon="-74.1086610">
        <ele>2858.8</ele>
        <time>2018-06-17T14:43:10Z</time>
      </trkpt>
      <trkpt lat="4.4898270" lon="-74.1090740">
        <ele>2855.7</ele>
        <time>2018-06-17T14:43:16Z</time>
      </trkpt>
      <trkpt lat="4.4902360" lon="-74.1094460">
        <ele>2852.1</ele>
        <time>2018-06-17T14:43:22Z</time>
      </trkpt>
      <trkpt lat="4.4906680" lon="-74.1097890">
        <ele>2848.1</ele>
        <time>2018-06-17T14:43:28Z</time>
      </trkpt>
      <trkpt lat="4.4911910" lon="-74.1100390">
        <ele>2843.5</ele>
        <time>2018-06-17T14:43:34Z</time>
      </trkpt>
      <trkpt lat="4.4918110" lon="-74.1100970">
        <ele>2838.4</ele>
        <time>2018-06-17T14:43:40Z</time>
      </trkpt>
      <trkpt lat="4.4920690" lon="-74.1100530">
        <ele>2836.5</ele>
        <time>2018-06-17T14:43:42Z</time>
      </trkpt>
      <trkpt lat="4.4926340" lon="-74.1097970">
        <ele>2831.9</ele>
        <time>2018-06-17T14:43:48Z</time>
      </trkpt>
      <trkpt lat="4.4928690" lon="-74.1095990">
        <ele>2829.7</ele>
        <time>2018-06-17T14:43:51Z</time>
      </trkpt>
      <trkpt lat="4.4932720" lon="-74.1090910">
        <ele>2826.8</ele>
        <time>2018-06-17T14:43:57Z</time>
      </trkpt>
      <trkpt lat="4.4935860" lon="-74.1086410">
        <ele>2824.8</ele>
        <time>2018-06-17T14:44:02Z</time>
      </trkpt>
      <trkpt lat="4.4939400" lon="-74.1081210">
        <ele>2822.0</ele>
        <time>2018-06-17T14:44:08Z</time>
      </trkpt>
      <trkpt lat="4.4940020" lon="-74.1080420">
        <ele>2821.5</ele>
        <time>2018-06-17T14:44:09Z</time>
      </trkpt>
      <trkpt lat="4.4944970" lon="-74.1076470">
        <ele>2819.0</ele>
        <time>2018-06-17T14:44:15Z</time>
      </trkpt>
      <trkpt lat="4.4950680" lon="-74.1074100">
        <ele>2816.4</ele>
        <time>2018-06-17T14:44:21Z</time>
      </trkpt>
      <trkpt lat="4.4956600" lon="-74.1073570">
        <ele>2817.8</ele>
        <time>2018-06-17T14:44:27Z</time>
      </trkpt>
      <trkpt lat="4.4962150" lon="-74.1074160">
        <ele>2813.8</ele>
        <time>2018-06-17T14:44:33Z</time>
      </trkpt>
      <trkpt lat="4.4967990" lon="-74.1074970">
        <ele>2808.8</ele>
        <time>2018-06-17T14:44:40Z</time>
      </trkpt>
      <trkpt lat="4.4973860" lon="-74.1075170">
        <ele>2803.5</ele>
        <time>2018-06-17T14:44:47Z</time>
      </trkpt>
      <trkpt lat="4.4979420" lon="-74.1073990">
        <ele>2805.6</ele>
        <time>2018-06-17T14:44:54Z</time>
      </trkpt>
      <trkpt lat="4.4983310" lon="-74.1072560">
        <ele>2806.1</ele>
        <time>2018-06-17T14:44:59Z</time>
      </trkpt>
      <trkpt lat="4.4985620" lon="-74.1071370">
        <ele>2803.0</ele>
        <time>2018-06-17T14:45:02Z</time>
      </trkpt>
      <trkpt lat="4.4990900" lon="-74.1068780">
        <ele>2803.0</ele>
        <time>2018-06-17T14:45:08Z</time>
      </trkpt>
      <trkpt lat="4.4996360" lon="-74.1066090">
        <ele>2796.6</ele>
        <time>2018-06-17T14:45:14Z</time>
      </trkpt>
      <trkpt lat="4.5001540" lon="-74.1063530">
        <ele>2790.0</ele>
        <time>2018-06-17T14:45:20Z</time>
      </trkpt>
      <trkpt lat="4.5006450" lon="-74.1061050">
        <ele>2789.1</ele>
        <time>2018-06-17T14:45:26Z</time>
      </trkpt>
      <trkpt lat="4.5012020" lon="-74.1058310">
        <ele>2785.4</ele>
        <time>2018-06-17T14:45:33Z</time>
      </trkpt>
      <trkpt lat="4.5017630" lon="-74.1055530">
        <ele>2784.8</ele>
        <time>2018-06-17T14:45:40Z</time>
      </trkpt>
      <trkpt lat="4.5022810" lon="-74.1053460">
        <ele>2783.8</ele>
        <time>2018-06-17T14:45:47Z</time>
      </trkpt>
      <trkpt lat="4.5028130" lon="-74.1051110">
        <ele>2781.8</ele>
        <time>2018-06-17T14:45:54Z</time>
      </trkpt>
      <trkpt lat="4.5033340" lon="-74.1048540">
        <ele>2778.5</ele>
        <time>2018-06-17T14:46:01Z</time>
      </trkpt>
      <trkpt lat="4.5038180" lon="-74.1046090">
        <ele>2774.9</ele>
        <time>2018-06-17T14:46:07Z</time>
      </trkpt>
      <trkpt lat="4.5043180" lon="-74.1043600">
        <ele>2771.1</ele>
        <time>2018-06-17T14:46:15Z</time>
      </trkpt>
      <trkpt lat="4.5048170" lon="-74.1041690">
        <ele>2768.0</ele>
        <time>2018-06-17T14:47:19Z</time>
      </trkpt>
      <trkpt lat="4.5053700" lon="-74.1041500">
        <ele>2762.4</ele>
        <time>2018-06-17T14:47:29Z</time>
      </trkpt>
      <trkpt lat="4.5054380" lon="-74.1041650">
        <ele>2761.9</ele>
        <time>2018-06-17T14:47:30Z</time>
      </trkpt>
      <trkpt lat="4.5056320" lon="-74.1042240">
        <ele>2760.6</ele>
        <time>2018-06-17T14:47:33Z</time>
      </trkpt>
      <trkpt lat="4.5061560" lon="-74.1045450">
        <ele>2756.6</ele>
        <time>2018-06-17T14:47:42Z</time>
      </trkpt>
      <trkpt lat="4.5065340" lon="-74.1050220">
        <ele>2753.8</ele>
        <time>2018-06-17T14:47:50Z</time>
      </trkpt>
      <trkpt lat="4.5066930" lon="-74.1055570">
        <ele>2750.7</ele>
        <time>2018-06-17T14:47:58Z</time>
      </trkpt>
      <trkpt lat="4.5067200" lon="-74.1061070">
        <ele>2747.3</ele>
        <time>2018-06-17T14:48:06Z</time>
      </trkpt>
      <trkpt lat="4.5067370" lon="-74.1066660">
        <ele>2744.2</ele>
        <time>2018-06-17T14:48:18Z</time>
      </trkpt>
      <trkpt lat="4.5067260" lon="-74.1068160">
        <ele>2743.4</ele>
        <time>2018-06-17T14:48:22Z</time>
      </trkpt>
      <trkpt lat="4.5067240" lon="-74.1073750">
        <ele>2738.8</ele>
        <time>2018-06-17T14:48:32Z</time>
      </trkpt>
      <trkpt lat="4.5067060" lon="-74.1079590">
        <ele>2737.6</ele>
        <time>2018-06-17T14:48:42Z</time>
      </trkpt>
      <trkpt lat="4.5067210" lon="-74.1085530">
        <ele>2736.7</ele>
        <time>2018-06-17T14:48:52Z</time>
      </trkpt>
      <trkpt lat="4.5067340" lon="-74.1091400">
        <ele>2734.1</ele>
        <time>2018-06-17T14:49:04Z</time>
      </trkpt>
      <trkpt lat="4.5067230" lon="-74.1097020">
        <ele>2729.6</ele>
        <time>2018-06-17T14:49:13Z</time>
      </trkpt>
      <trkpt lat="4.5067240" lon="-74.1102750">
        <ele>2725.3</ele>
        <time>2018-06-17T14:49:21Z</time>
      </trkpt>
      <trkpt lat="4.5067230" lon="-74.1108160">
        <ele>2720.5</ele>
        <time>2018-06-17T14:49:28Z</time>
      </trkpt>
      <trkpt lat="4.5067220" lon="-74.1113870">
        <ele>2717.0</ele>
        <time>2018-06-17T14:49:35Z</time>
      </trkpt>
      <trkpt lat="4.5067280" lon="-74.1119530">
        <ele>2715.9</ele>
        <time>2018-06-17T14:49:42Z</time>
      </trkpt>
      <trkpt lat="4.5067770" lon="-74.1125110">
        <ele>2709.5</ele>
        <time>2018-06-17T14:49:49Z</time>
      </trkpt>
      <trkpt lat="4.5069830" lon="-74.1130150">
        <ele>2709.0</ele>
        <time>2018-06-17T14:49:56Z</time>
      </trkpt>
      <trkpt lat="4.5073400" lon="-74.1134400">
        <ele>2704.3</ele>
        <time>2018-06-17T14:50:04Z</time>
      </trkpt>
      <trkpt lat="4.5077980" lon="-74.1137660">
        <ele>2702.0</ele>
        <time>2018-06-17T14:50:17Z</time>
      </trkpt>
      <trkpt lat="4.5081010" lon="-74.1139400">
        <ele>2702.0</ele>
        <time>2018-06-17T14:50:49Z</time>
      </trkpt>
      <trkpt lat="4.5081750" lon="-74.1140440">
        <ele>2702.0</ele>
        <time>2018-06-17T14:50:54Z</time>
      </trkpt>
      <trkpt lat="4.5083680" lon="-74.1142790">
        <ele>2700.6</ele>
        <time>2018-06-17T14:51:03Z</time>
      </trkpt>
      <trkpt lat="4.5087230" lon="-74.1147270">
        <ele>2698.8</ele>
        <time>2018-06-17T14:51:14Z</time>
      </trkpt>
      <trkpt lat="4.5090250" lon="-74.1152370">
        <ele>2692.0</ele>
        <time>2018-06-17T14:51:24Z</time>
      </trkpt>
      <trkpt lat="4.5092540" lon="-74.1157800">
        <ele>2691.4</ele>
        <time>2018-06-17T14:51:34Z</time>
      </trkpt>
      <trkpt lat="4.5093010" lon="-74.1158790">
        <ele>2691.0</ele>
        <time>2018-06-17T14:51:36Z</time>
      </trkpt>
      <trkpt lat="4.5095110" lon="-74.1163980">
        <ele>2691.0</ele>
        <time>2018-06-17T14:51:46Z</time>
      </trkpt>
      <trkpt lat="4.5097230" lon="-74.1169180">
        <ele>2689.9</ele>
        <time>2018-06-17T14:51:55Z</time>
      </trkpt>
      <trkpt lat="4.5099450" lon="-74.1174520">
        <ele>2687.9</ele>
        <time>2018-06-17T14:52:03Z</time>
      </trkpt>
      <trkpt lat="4.5101610" lon="-74.1179790">
        <ele>2685.3</ele>
        <time>2018-06-17T14:52:11Z</time>
      </trkpt>
      <trkpt lat="4.5103570" lon="-74.1185000">
        <ele>2682.7</ele>
        <time>2018-06-17T14:52:23Z</time>
      </trkpt>
      <trkpt lat="4.5105820" lon="-74.1190150">
        <ele>2682.3</ele>
        <time>2018-06-17T14:52:41Z</time>
      </trkpt>
      <trkpt lat="4.5107940" lon="-74.1195470">
        <ele>2678.7</ele>
        <time>2018-06-17T14:52:53Z</time>
      </trkpt>
      <trkpt lat="4.5110030" lon="-74.1200580">
        <ele>2675.6</ele>
        <time>2018-06-17T14:53:03Z</time>
      </trkpt>
      <trkpt lat="4.5112320" lon="-74.1206160">
        <ele>2671.5</ele>
        <time>2018-06-17T14:53:13Z</time>
      </trkpt>
      <trkpt lat="4.5113050" lon="-74.1207930">
        <ele>2670.2</ele>
        <time>2018-06-17T14:53:16Z</time>
      </trkpt>
      <trkpt lat="4.5114960" lon="-74.1211440">
        <ele>2667.0</ele>
        <time>2018-06-17T14:53:22Z</time>
      </trkpt>
      <trkpt lat="4.5119110" lon="-74.1215310">
        <ele>2664.5</ele>
        <time>2018-06-17T14:53:30Z</time>
      </trkpt>
      <trkpt lat="4.5124840" lon="-74.1217500">
        <ele>2660.4</ele>
        <time>2018-06-17T14:53:38Z</time>
      </trkpt>
      <trkpt lat="4.5130880" lon="-74.1217290">
        <ele>2656.4</ele>
        <time>2018-06-17T14:53:46Z</time>
      </trkpt>
      <trkpt lat="4.5136640" lon="-74.1215800">
        <ele>2653.0</ele>
        <time>2018-06-17T14:53:53Z</time>
      </trkpt>
      <trkpt lat="4.5142440" lon="-74.1214410">
        <ele>2649.8</ele>
        <time>2018-06-17T14:54:00Z</time>
      </trkpt>
      <trkpt lat="4.5148130" lon="-74.1213600">
        <ele>2646.9</ele>
        <time>2018-06-17T14:54:07Z</time>
      </trkpt>
      <trkpt lat="4.5153780" lon="-74.1213630">
        <ele>2643.2</ele>
        <time>2018-06-17T14:54:14Z</time>
      </trkpt>
      <trkpt lat="4.5159730" lon="-74.1214410">
        <ele>2641.0</ele>
        <time>2018-06-17T14:54:22Z</time>
      </trkpt>
      <trkpt lat="4.5165270" lon="-74.1215020">
        <ele>2637.2</ele>
        <time>2018-06-17T14:54:30Z</time>
      </trkpt>
      <trkpt lat="4.5170940" lon="-74.1215680">
        <ele>2635.2</ele>
        <time>2018-06-17T14:54:37Z</time>
      </trkpt>
      <trkpt lat="4.5177020" lon="-74.1216370">
        <ele>2631.0</ele>
        <time>2018-06-17T14:54:44Z</time>
      </trkpt>
      <trkpt lat="4.5182480" lon="-74.1217040">
        <ele>2620.8</ele>
        <time>2018-06-17T14:54:50Z</time>
      </trkpt>
      <trkpt lat="4.5188500" lon="-74.1217850">
        <ele>2617.1</ele>
        <time>2018-06-17T14:54:57Z</time>
      </trkpt>
      <trkpt lat="4.5194090" lon="-74.1218980">
        <ele>2615.5</ele>
        <time>2018-06-17T14:55:04Z</time>
      </trkpt>
      <trkpt lat="4.5199410" lon="-74.1220860">
        <ele>2613.4</ele>
        <time>2018-06-17T14:55:12Z</time>
      </trkpt>
      <trkpt lat="4.5204360" lon="-74.1223280">
        <ele>2611.6</ele>
        <time>2018-06-17T14:55:20Z</time>
      </trkpt>
      <trkpt lat="4.5209160" lon="-74.1226520">
        <ele>2609.1</ele>
        <time>2018-06-17T14:55:29Z</time>
      </trkpt>
      <trkpt lat="4.5211530" lon="-74.1228500">
        <ele>2608.6</ele>
        <time>2018-06-17T14:55:34Z</time>
      </trkpt>
      <trkpt lat="4.5215860" lon="-74.1232170">
        <ele>2607.1</ele>
        <time>2018-06-17T14:55:43Z</time>
      </trkpt>
      <trkpt lat="4.5220190" lon="-74.1236030">
        <ele>2606.1</ele>
        <time>2018-06-17T14:55:52Z</time>
      </trkpt>
      <trkpt lat="4.5224690" lon="-74.1240050">
        <ele>2604.3</ele>
        <time>2018-06-17T14:56:01Z</time>
      </trkpt>
      <trkpt lat="4.5228820" lon="-74.1243730">
        <ele>2603.2</ele>
        <time>2018-06-17T14:56:10Z</time>
      </trkpt>
      <trkpt lat="4.5232920" lon="-74.1247470">
        <ele>2600.1</ele>
        <time>2018-06-17T14:56:18Z</time>
      </trkpt>
      <trkpt lat="4.5237100" lon="-74.1251260">
        <ele>2595.6</ele>
        <time>2018-06-17T14:56:25Z</time>
      </trkpt>
      <trkpt lat="4.5241750" lon="-74.1254970">
        <ele>2592.8</ele>
        <time>2018-06-17T14:56:32Z</time>
      </trkpt>
      <trkpt lat="4.5247060" lon="-74.1258110">
        <ele>2590.1</ele>
        <time>2018-06-17T14:56:39Z</time>
      </trkpt>
      <trkpt lat="4.5252800" lon="-74.1260520">
        <ele>2587.0</ele>
        <time>2018-06-17T14:56:46Z</time>
      </trkpt>
      <trkpt lat="4.5258530" lon="-74.1262000">
        <ele>2586.7</ele>
        <time>2018-06-17T14:56:53Z</time>
      </trkpt>
      <trkpt lat="4.5264330" lon="-74.1262840">
        <ele>2585.5</ele>
        <time>2018-06-17T14:57:00Z</time>
      </trkpt>
      <trkpt lat="4.5269820" lon="-74.1263560">
        <ele>2585.6</ele>
        <time>2018-06-17T14:57:08Z</time>
      </trkpt>
      <trkpt lat="4.5275200" lon="-74.1264360">
        <ele>2587.5</ele>
        <time>2018-06-17T14:57:18Z</time>
      </trkpt>
      <trkpt lat="4.5278610" lon="-74.1264780">
        <ele>2589.4</ele>
        <time>2018-06-17T14:57:26Z</time>
      </trkpt>
      <trkpt lat="4.5284270" lon="-74.1265380">
        <ele>2591.8</ele>
        <time>2018-06-17T14:57:41Z</time>
      </trkpt>
      <trkpt lat="4.5289900" lon="-74.1266080">
        <ele>2595.0</ele>
        <time>2018-06-17T14:57:57Z</time>
      </trkpt>
      <trkpt lat="4.5295650" lon="-74.1266890">
        <ele>2597.0</ele>
        <time>2018-06-17T14:58:11Z</time>
      </trkpt>
      <trkpt lat="4.5296460" lon="-74.1267050">
        <ele>2597.0</ele>
        <time>2018-06-17T14:58:13Z</time>
      </trkpt>
      <trkpt lat="4.5302220" lon="-74.1267690">
        <ele>2597.2</ele>
        <time>2018-06-17T14:58:26Z</time>
      </trkpt>
      <trkpt lat="4.5304200" lon="-74.1267960">
        <ele>2597.2</ele>
        <time>2018-06-17T14:58:30Z</time>
      </trkpt>
      <trkpt lat="4.5309650" lon="-74.1268700">
        <ele>2597.2</ele>
        <time>2018-06-17T14:58:39Z</time>
      </trkpt>
      <trkpt lat="4.5315050" lon="-74.1269490">
        <ele>2596.6</ele>
        <time>2018-06-17T14:58:46Z</time>
      </trkpt>
      <trkpt lat="4.5321140" lon="-74.1270280">
        <ele>2594.7</ele>
        <time>2018-06-17T14:58:54Z</time>
      </trkpt>
      <trkpt lat="4.5326560" lon="-74.1270890">
        <ele>2591.4</ele>
        <time>2018-06-17T14:59:00Z</time>
      </trkpt>
      <trkpt lat="4.5332680" lon="-74.1271720">
        <ele>2588.5</ele>
        <time>2018-06-17T14:59:07Z</time>
      </trkpt>
      <trkpt lat="4.5338750" lon="-74.1272620">
        <ele>2586.1</ele>
        <time>2018-06-17T14:59:14Z</time>
      </trkpt>
      <trkpt lat="4.5344800" lon="-74.1274080">
        <ele>2584.5</ele>
        <time>2018-06-17T14:59:21Z</time>
      </trkpt>
      <trkpt lat="4.5350700" lon="-74.1276240">
        <ele>2582.9</ele>
        <time>2018-06-17T14:59:28Z</time>
      </trkpt>
      <trkpt lat="4.5355990" lon="-74.1279140">
        <ele>2581.6</ele>
        <time>2018-06-17T14:59:35Z</time>
      </trkpt>
      <trkpt lat="4.5361060" lon="-74.1282790">
        <ele>2580.7</ele>
        <time>2018-06-17T14:59:42Z</time>
      </trkpt>
      <trkpt lat="4.5365070" lon="-74.1286580">
        <ele>2579.3</ele>
        <time>2018-06-17T14:59:48Z</time>
      </trkpt>
      <trkpt lat="4.5368690" lon="-74.1290860">
        <ele>2578.4</ele>
        <time>2018-06-17T14:59:54Z</time>
      </trkpt>
      <trkpt lat="4.5372450" lon="-74.1295740">
        <ele>2577.9</ele>
        <time>2018-06-17T15:00:01Z</time>
      </trkpt>
      <trkpt lat="4.5376060" lon="-74.1300380">
        <ele>2577.8</ele>
        <time>2018-06-17T15:00:08Z</time>
      </trkpt>
      <trkpt lat="4.5379470" lon="-74.1304690">
        <ele>2577.8</ele>
        <time>2018-06-17T15:00:15Z</time>
      </trkpt>
      <trkpt lat="4.5383060" lon="-74.1309230">
        <ele>2577.4</ele>
        <time>2018-06-17T15:00:23Z</time>
      </trkpt>
      <trkpt lat="4.5386510" lon="-74.1313710">
        <ele>2576.3</ele>
        <time>2018-06-17T15:00:31Z</time>
      </trkpt>
      <trkpt lat="4.5390000" lon="-74.1318200">
        <ele>2576.2</ele>
        <time>2018-06-17T15:00:40Z</time>
      </trkpt>
      <trkpt lat="4.5393580" lon="-74.1322670">
        <ele>2576.2</ele>
        <time>2018-06-17T15:00:51Z</time>
      </trkpt>
      <trkpt lat="4.5397120" lon="-74.1327150">
        <ele>2576.2</ele>
        <time>2018-06-17T15:01:03Z</time>
      </trkpt>
      <trkpt lat="4.5401080" lon="-74.1330890">
        <ele>2576.3</ele>
        <time>2018-06-17T15:01:17Z</time>
      </trkpt>
      <trkpt lat="4.5405510" lon="-74.1334150">
        <ele>2576.7</ele>
        <time>2018-06-17T15:01:30Z</time>
      </trkpt>
      <trkpt lat="4.5410470" lon="-74.1336980">
        <ele>2578.3</ele>
        <time>2018-06-17T15:01:43Z</time>
      </trkpt>
      <trkpt lat="4.5415430" lon="-74.1339550">
        <ele>2578.6</ele>
        <time>2018-06-17T15:01:56Z</time>
      </trkpt>
      <trkpt lat="4.5420560" lon="-74.1342210">
        <ele>2578.7</ele>
        <time>2018-06-17T15:02:08Z</time>
      </trkpt>
      <trkpt lat="4.5425660" lon="-74.1344820">
        <ele>2578.8</ele>
        <time>2018-06-17T15:02:18Z</time>
      </trkpt>
      <trkpt lat="4.5430760" lon="-74.1347510">
        <ele>2578.8</ele>
        <time>2018-06-17T15:02:27Z</time>
      </trkpt>
      <trkpt lat="4.5435950" lon="-74.1350710">
        <ele>2578.3</ele>
        <time>2018-06-17T15:02:36Z</time>
      </trkpt>
      <trkpt lat="4.5440940" lon="-74.1353220">
        <ele>2577.2</ele>
        <time>2018-06-17T15:02:43Z</time>
      </trkpt>
      <trkpt lat="4.5446330" lon="-74.1355590">
        <ele>2576.2</ele>
        <time>2018-06-17T15:02:50Z</time>
      </trkpt>
      <trkpt lat="4.5451430" lon="-74.1358120">
        <ele>2575.5</ele>
        <time>2018-06-17T15:02:57Z</time>
      </trkpt>
      <trkpt lat="4.5456360" lon="-74.1360650">
        <ele>2575.3</ele>
        <time>2018-06-17T15:03:04Z</time>
      </trkpt>
      <trkpt lat="4.5461410" lon="-74.1363520">
        <ele>2575.0</ele>
        <time>2018-06-17T15:03:13Z</time>
      </trkpt>
      <trkpt lat="4.5461980" lon="-74.1363730">
        <ele>2574.9</ele>
        <time>2018-06-17T15:03:14Z</time>
      </trkpt>
      <trkpt lat="4.5467470" lon="-74.1366300">
        <ele>2573.6</ele>
        <time>2018-06-17T15:03:23Z</time>
      </trkpt>
      <trkpt lat="4.5472850" lon="-74.1367820">
        <ele>2573.3</ele>
        <time>2018-06-17T15:03:31Z</time>
      </trkpt>
      <trkpt lat="4.5478590" lon="-74.1368230">
        <ele>2572.7</ele>
        <time>2018-06-17T15:03:39Z</time>
      </trkpt>
      <trkpt lat="4.5484570" lon="-74.1367340">
        <ele>2571.6</ele>
        <time>2018-06-17T15:03:47Z</time>
      </trkpt>
      <trkpt lat="4.5490040" lon="-74.1365990">
        <ele>2571.4</ele>
        <time>2018-06-17T15:03:54Z</time>
      </trkpt>
      <trkpt lat="4.5495910" lon="-74.1364680">
        <ele>2570.1</ele>
        <time>2018-06-17T15:04:02Z</time>
      </trkpt>
      <trkpt lat="4.5501630" lon="-74.1363300">
        <ele>2569.8</ele>
        <time>2018-06-17T15:04:10Z</time>
      </trkpt>
      <trkpt lat="4.5507470" lon="-74.1362280">
        <ele>2569.7</ele>
        <time>2018-06-17T15:04:18Z</time>
      </trkpt>
      <trkpt lat="4.5513460" lon="-74.1362260">
        <ele>2569.4</ele>
        <time>2018-06-17T15:04:26Z</time>
      </trkpt>
      <trkpt lat="4.5519250" lon="-74.1363230">
        <ele>2568.2</ele>
        <time>2018-06-17T15:04:34Z</time>
      </trkpt>
      <trkpt lat="4.5524530" lon="-74.1364810">
        <ele>2568.0</ele>
        <time>2018-06-17T15:04:48Z</time>
      </trkpt>
      <trkpt lat="4.5528520" lon="-74.1366090">
        <ele>2568.0</ele>
        <time>2018-06-17T15:05:01Z</time>
      </trkpt>
      <trkpt lat="4.5533690" lon="-74.1367890">
        <ele>2566.7</ele>
        <time>2018-06-17T15:05:12Z</time>
      </trkpt>
      <trkpt lat="4.5537250" lon="-74.1369400">
        <ele>2566.0</ele>
        <time>2018-06-17T15:05:19Z</time>
      </trkpt>
      <trkpt lat="4.5538690" lon="-74.1369960">
        <ele>2565.8</ele>
        <time>2018-06-17T15:05:22Z</time>
      </trkpt>
      <trkpt lat="4.5544000" lon="-74.1371720">
        <ele>2565.1</ele>
        <time>2018-06-17T15:05:35Z</time>
      </trkpt>
      <trkpt lat="4.5549250" lon="-74.1373880">
        <ele>2565.0</ele>
        <time>2018-06-17T15:05:46Z</time>
      </trkpt>
      <trkpt lat="4.5554750" lon="-74.1375670">
        <ele>2571.6</ele>
        <time>2018-06-17T15:05:57Z</time>
      </trkpt>
      <trkpt lat="4.5556710" lon="-74.1376290">
        <ele>2572.0</ele>
        <time>2018-06-17T15:06:01Z</time>
      </trkpt>
      <trkpt lat="4.5562310" lon="-74.1378120">
        <ele>2576.8</ele>
        <time>2018-06-17T15:06:11Z</time>
      </trkpt>
      <trkpt lat="4.5567770" lon="-74.1379930">
        <ele>2572.0</ele>
        <time>2018-06-17T15:06:20Z</time>
      </trkpt>
      <trkpt lat="4.5573190" lon="-74.1381770">
        <ele>2574.8</ele>
        <time>2018-06-17T15:06:29Z</time>
      </trkpt>
      <trkpt lat="4.5578680" lon="-74.1383640">
        <ele>2595.0</ele>
        <time>2018-06-17T15:06:39Z</time>
      </trkpt>
      <trkpt lat="4.5582980" lon="-74.1385110">
        <ele>2593.4</ele>
        <time>2018-06-17T15:06:48Z</time>
      </trkpt>
      <trkpt lat="4.5588320" lon="-74.1387030">
        <ele>2589.0</ele>
        <time>2018-06-17T15:07:19Z</time>
      </trkpt>
      <trkpt lat="4.5593580" lon="-74.1388670">
        <ele>2578.5</ele>
        <time>2018-06-17T15:07:31Z</time>
      </trkpt>
      <trkpt lat="4.5599140" lon="-74.1389530">
        <ele>2576.1</ele>
        <time>2018-06-17T15:07:44Z</time>
      </trkpt>
      <trkpt lat="4.5604770" lon="-74.1389330">
        <ele>2573.8</ele>
        <time>2018-06-17T15:07:56Z</time>
      </trkpt>
      <trkpt lat="4.5608460" lon="-74.1388800">
        <ele>2572.1</ele>
        <time>2018-06-17T15:08:04Z</time>
      </trkpt>
      <trkpt lat="4.5611380" lon="-74.1388300">
        <ele>2571.3</ele>
        <time>2018-06-17T15:08:12Z</time>
      </trkpt>
      <trkpt lat="4.5617200" lon="-74.1387450">
        <ele>2572.1</ele>
        <time>2018-06-17T15:08:24Z</time>
      </trkpt>
      <trkpt lat="4.5622850" lon="-74.1386790">
        <ele>2570.0</ele>
        <time>2018-06-17T15:08:35Z</time>
      </trkpt>
      <trkpt lat="4.5624990" lon="-74.1386400">
        <ele>2568.3</ele>
        <time>2018-06-17T15:08:39Z</time>
      </trkpt>
      <trkpt lat="4.5630730" lon="-74.1385430">
        <ele>2566.0</ele>
        <time>2018-06-17T15:08:48Z</time>
      </trkpt>
      <trkpt lat="4.5636160" lon="-74.1384690">
        <ele>2562.5</ele>
        <time>2018-06-17T15:08:56Z</time>
      </trkpt>
      <trkpt lat="4.5641610" lon="-74.1383880">
        <ele>2560.9</ele>
        <time>2018-06-17T15:09:05Z</time>
      </trkpt>
      <trkpt lat="4.5647160" lon="-74.1383070">
        <ele>2560.6</ele>
        <time>2018-06-17T15:09:14Z</time>
      </trkpt>
      <trkpt lat="4.5651390" lon="-74.1382440">
        <ele>2560.5</ele>
        <time>2018-06-17T15:09:22Z</time>
      </trkpt>
      <trkpt lat="4.5657240" lon="-74.1381480">
        <ele>2561.0</ele>
        <time>2018-06-17T15:09:33Z</time>
      </trkpt>
      <trkpt lat="4.5661060" lon="-74.1380950">
        <ele>2561.8</ele>
        <time>2018-06-17T15:09:40Z</time>
      </trkpt>
      <trkpt lat="4.5665630" lon="-74.1380190">
        <ele>2562.9</ele>
        <time>2018-06-17T15:09:52Z</time>
      </trkpt>
      <trkpt lat="4.5667020" lon="-74.1379970">
        <ele>2563.4</ele>
        <time>2018-06-17T15:09:55Z</time>
      </trkpt>
      <trkpt lat="4.5668450" lon="-74.1379750">
        <ele>2563.8</ele>
        <time>2018-06-17T15:09:58Z</time>
      </trkpt>
      <trkpt lat="4.5669420" lon="-74.1379570">
        <ele>2564.0</ele>
        <time>2018-06-17T15:10:00Z</time>
      </trkpt>
      <trkpt lat="4.5670260" lon="-74.1379520">
        <ele>2563.8</ele>
        <time>2018-06-17T15:10:02Z</time>
      </trkpt>
      <trkpt lat="4.5675700" lon="-74.1379630">
        <ele>2563.0</ele>
        <time>2018-06-17T15:10:13Z</time>
      </trkpt>
      <trkpt lat="4.5679380" lon="-74.1379630">
        <ele>2568.7</ele>
        <time>2018-06-17T15:10:20Z</time>
      </trkpt>
      <trkpt lat="4.5681040" lon="-74.1379190">
        <ele>2569.2</ele>
        <time>2018-06-17T15:10:23Z</time>
      </trkpt>
      <trkpt lat="4.5681730" lon="-74.1374430">
        <ele>2572.3</ele>
        <time>2018-06-17T15:10:31Z</time>
      </trkpt>
      <trkpt lat="4.5676620" lon="-74.1375310">
        <ele>2567.6</ele>
        <time>2018-06-17T15:10:38Z</time>
      </trkpt>
      <trkpt lat="4.5675330" lon="-74.1380290">
        <ele>2563.4</ele>
        <time>2018-06-17T15:10:45Z</time>
      </trkpt>
      <trkpt lat="4.5675060" lon="-74.1385870">
        <ele>2560.5</ele>
        <time>2018-06-17T15:10:53Z</time>
      </trkpt>
      <trkpt lat="4.5674450" lon="-74.1391350">
        <ele>2555.6</ele>
        <time>2018-06-17T15:11:01Z</time>
      </trkpt>
      <trkpt lat="4.5673010" lon="-74.1396720">
        <ele>2561.0</ele>
        <time>2018-06-17T15:11:13Z</time>
      </trkpt>
      <trkpt lat="4.5672210" lon="-74.1402100">
        <ele>2557.0</ele>
        <time>2018-06-17T15:11:25Z</time>
      </trkpt>
      <trkpt lat="4.5671020" lon="-74.1406340">
        <ele>2557.0</ele>
        <time>2018-06-17T15:11:33Z</time>
      </trkpt>
      <trkpt lat="4.5669720" lon="-74.1411760">
        <ele>2555.7</ele>
        <time>2018-06-17T15:11:42Z</time>
      </trkpt>
      <trkpt lat="4.5668530" lon="-74.1417040">
        <ele>2553.0</ele>
        <time>2018-06-17T15:11:52Z</time>
      </trkpt>
      <trkpt lat="4.5667720" lon="-74.1422400">
        <ele>2563.0</ele>
        <time>2018-06-17T15:12:03Z</time>
      </trkpt>
      <trkpt lat="4.5668150" lon="-74.1427820">
        <ele>2567.0</ele>
        <time>2018-06-17T15:12:14Z</time>
      </trkpt>
      <trkpt lat="4.5669880" lon="-74.1433130">
        <ele>2567.2</ele>
        <time>2018-06-17T15:12:26Z</time>
      </trkpt>
      <trkpt lat="4.5670330" lon="-74.1433910">
        <ele>2567.5</ele>
        <time>2018-06-17T15:12:28Z</time>
      </trkpt>
      <trkpt lat="4.5673390" lon="-74.1438490">
        <ele>2564.2</ele>
        <time>2018-06-17T15:12:39Z</time>
      </trkpt>
      <trkpt lat="4.5676510" lon="-74.1443260">
        <ele>2569.0</ele>
        <time>2018-06-17T15:12:50Z</time>
      </trkpt>
      <trkpt lat="4.5677500" lon="-74.1444910">
        <ele>2567.8</ele>
        <time>2018-06-17T15:12:54Z</time>
      </trkpt>
      <trkpt lat="4.5680780" lon="-74.1449240">
        <ele>2565.5</ele>
        <time>2018-06-17T15:13:10Z</time>
      </trkpt>
      <trkpt lat="4.5682820" lon="-74.1452450">
        <ele>2564.1</ele>
        <time>2018-06-17T15:13:17Z</time>
      </trkpt>
      <trkpt lat="4.5683500" lon="-74.1453470">
        <ele>2563.2</ele>
        <time>2018-06-17T15:13:19Z</time>
      </trkpt>
      <trkpt lat="4.5686800" lon="-74.1458640">
        <ele>2561.0</ele>
        <time>2018-06-17T15:13:27Z</time>
      </trkpt>
      <trkpt lat="4.5690340" lon="-74.1463430">
        <ele>2559.8</ele>
        <time>2018-06-17T15:13:34Z</time>
      </trkpt>
      <trkpt lat="4.5693950" lon="-74.1468540">
        <ele>2558.2</ele>
        <time>2018-06-17T15:13:41Z</time>
      </trkpt>
      <trkpt lat="4.5696920" lon="-74.1473070">
        <ele>2560.7</ele>
        <time>2018-06-17T15:13:47Z</time>
      </trkpt>
      <trkpt lat="4.5700010" lon="-74.1477540">
        <ele>2562.8</ele>
        <time>2018-06-17T15:13:53Z</time>
      </trkpt>
      <trkpt lat="4.5703420" lon="-74.1482490">
        <ele>2563.6</ele>
        <time>2018-06-17T15:14:00Z</time>
      </trkpt>
      <trkpt lat="4.5706540" lon="-74.1486930">
        <ele>2569.3</ele>
        <time>2018-06-17T15:14:09Z</time>
      </trkpt>
      <trkpt lat="4.5708480" lon="-74.1489550">
        <ele>2568.0</ele>
        <time>2018-06-17T15:14:20Z</time>
      </trkpt>
      <trkpt lat="4.5709200" lon="-74.1490300">
        <ele>2567.3</ele>
        <time>2018-06-17T15:14:22Z</time>
      </trkpt>
      <trkpt lat="4.5712520" lon="-74.1495210">
        <ele>2567.6</ele>
        <time>2018-06-17T15:14:32Z</time>
      </trkpt>
      <trkpt lat="4.5715690" lon="-74.1499920">
        <ele>2568.0</ele>
        <time>2018-06-17T15:14:42Z</time>
      </trkpt>
      <trkpt lat="4.5718800" lon="-74.1504630">
        <ele>2567.2</ele>
        <time>2018-06-17T15:14:53Z</time>
      </trkpt>
      <trkpt lat="4.5722000" lon="-74.1509470">
        <ele>2571.0</ele>
        <time>2018-06-17T15:15:04Z</time>
      </trkpt>
      <trkpt lat="4.5725080" lon="-74.1513920">
        <ele>2571.0</ele>
        <time>2018-06-17T15:15:22Z</time>
      </trkpt>
      <trkpt lat="4.5725330" lon="-74.1514160">
        <ele>2571.0</ele>
        <time>2018-06-17T15:15:25Z</time>
      </trkpt>
      <trkpt lat="4.5727450" lon="-74.1517480">
        <ele>2569.8</ele>
        <time>2018-06-17T15:15:35Z</time>
      </trkpt>
      <trkpt lat="4.5728070" lon="-74.1518520">
        <ele>2568.3</ele>
        <time>2018-06-17T15:15:37Z</time>
      </trkpt>
      <trkpt lat="4.5731510" lon="-74.1523430">
        <ele>2567.9</ele>
        <time>2018-06-17T15:15:46Z</time>
      </trkpt>
      <trkpt lat="4.5734910" lon="-74.1527800">
        <ele>2572.5</ele>
        <time>2018-06-17T15:15:54Z</time>
      </trkpt>
      <trkpt lat="4.5738880" lon="-74.1532350">
        <ele>2572.9</ele>
        <time>2018-06-17T15:16:03Z</time>
      </trkpt>
      <trkpt lat="4.5743010" lon="-74.1536350">
        <ele>2571.1</ele>
        <time>2018-06-17T15:16:12Z</time>
      </trkpt>
      <trkpt lat="4.5745010" lon="-74.1538240">
        <ele>2571.1</ele>
        <time>2018-06-17T15:16:17Z</time>
      </trkpt>
      <trkpt lat="4.5749390" lon="-74.1541920">
        <ele>2570.4</ele>
        <time>2018-06-17T15:16:27Z</time>
      </trkpt>
      <trkpt lat="4.5750960" lon="-74.1543180">
        <ele>2569.4</ele>
        <time>2018-06-17T15:16:30Z</time>
      </trkpt>
      <trkpt lat="4.5753390" lon="-74.1544660">
        <ele>2568.2</ele>
        <time>2018-06-17T15:16:34Z</time>
      </trkpt>
      <trkpt lat="4.5758170" lon="-74.1547510">
        <ele>2567.0</ele>
        <time>2018-06-17T15:16:42Z</time>
      </trkpt>
      <trkpt lat="4.5763030" lon="-74.1550350">
        <ele>2567.8</ele>
        <time>2018-06-17T15:16:50Z</time>
      </trkpt>
      <trkpt lat="4.5768010" lon="-74.1552850">
        <ele>2569.1</ele>
        <time>2018-06-17T15:16:59Z</time>
      </trkpt>
      <trkpt lat="4.5768450" lon="-74.1553030">
        <ele>2568.8</ele>
        <time>2018-06-17T15:17:00Z</time>
      </trkpt>
      <trkpt lat="4.5769710" lon="-74.1553660">
        <ele>2568.2</ele>
        <time>2018-06-17T15:17:06Z</time>
      </trkpt>
      <trkpt lat="4.5770030" lon="-74.1554020">
        <ele>2568.1</ele>
        <time>2018-06-17T15:17:10Z</time>
      </trkpt>
      <trkpt lat="4.5771100" lon="-74.1554430">
        <ele>2568.6</ele>
        <time>2018-06-17T15:17:18Z</time>
      </trkpt>
      <trkpt lat="4.5775750" lon="-74.1557180">
        <ele>2568.1</ele>
        <time>2018-06-17T15:17:41Z</time>
      </trkpt>
      <trkpt lat="4.5780010" lon="-74.1559120">
        <ele>2568.0</ele>
        <time>2018-06-17T15:17:56Z</time>
      </trkpt>
      <trkpt lat="4.5784080" lon="-74.1561380">
        <ele>2565.1</ele>
        <time>2018-06-17T15:18:12Z</time>
      </trkpt>
      <trkpt lat="4.5785320" lon="-74.1562070">
        <ele>2563.6</ele>
        <time>2018-06-17T15:18:15Z</time>
      </trkpt>
      <trkpt lat="4.5790430" lon="-74.1564960">
        <ele>2566.5</ele>
        <time>2018-06-17T15:18:26Z</time>
      </trkpt>
      <trkpt lat="4.5794100" lon="-74.1567180">
        <ele>2566.0</ele>
        <time>2018-06-17T15:18:34Z</time>
      </trkpt>
      <trkpt lat="4.5795450" lon="-74.1567790">
        <ele>2566.1</ele>
        <time>2018-06-17T15:18:37Z</time>
      </trkpt>
      <trkpt lat="4.5797800" lon="-74.1569290">
        <ele>2567.1</ele>
        <time>2018-06-17T15:18:43Z</time>
      </trkpt>
      <trkpt lat="4.5798920" lon="-74.1570340">
        <ele>2566.9</ele>
        <time>2018-06-17T15:18:46Z</time>
      </trkpt>
      <trkpt lat="4.5804050" lon="-74.1573030">
        <ele>2565.0</ele>
        <time>2018-06-17T15:19:03Z</time>
      </trkpt>
      <trkpt lat="4.5809480" lon="-74.1575790">
        <ele>2560.9</ele>
        <time>2018-06-17T15:19:12Z</time>
      </trkpt>
      <trkpt lat="4.5814870" lon="-74.1578670">
        <ele>2563.3</ele>
        <time>2018-06-17T15:19:19Z</time>
      </trkpt>
      <trkpt lat="4.5819810" lon="-74.1581300">
        <ele>2563.3</ele>
        <time>2018-06-17T15:19:25Z</time>
      </trkpt>
      <trkpt lat="4.5824990" lon="-74.1583990">
        <ele>2565.5</ele>
        <time>2018-06-17T15:19:31Z</time>
      </trkpt>
      <trkpt lat="4.5830430" lon="-74.1586710">
        <ele>2563.0</ele>
        <time>2018-06-17T15:19:37Z</time>
      </trkpt>
      <trkpt lat="4.5836050" lon="-74.1589510">
        <ele>2556.3</ele>
        <time>2018-06-17T15:19:43Z</time>
      </trkpt>
      <trkpt lat="4.5841820" lon="-74.1592260">
        <ele>2558.2</ele>
        <time>2018-06-17T15:19:49Z</time>
      </trkpt>
      <trkpt lat="4.5847440" lon="-74.1594870">
        <ele>2562.0</ele>
        <time>2018-06-17T15:19:55Z</time>
      </trkpt>
      <trkpt lat="4.5852990" lon="-74.1597480">
        <ele>2562.0</ele>
        <time>2018-06-17T15:20:01Z</time>
      </trkpt>
      <trkpt lat="4.5858210" lon="-74.1600110">
        <ele>2565.1</ele>
        <time>2018-06-17T15:20:07Z</time>
      </trkpt>
      <trkpt lat="4.5863120" lon="-74.1602560">
        <ele>2564.3</ele>
        <time>2018-06-17T15:20:13Z</time>
      </trkpt>
      <trkpt lat="4.5868040" lon="-74.1604880">
        <ele>2564.0</ele>
        <time>2018-06-17T15:20:19Z</time>
      </trkpt>
      <trkpt lat="4.5873380" lon="-74.1607400">
        <ele>2565.0</ele>
        <time>2018-06-17T15:20:27Z</time>
      </trkpt>
      <trkpt lat="4.5878550" lon="-74.1609490">
        <ele>2566.6</ele>
        <time>2018-06-17T15:20:38Z</time>
      </trkpt>
      <trkpt lat="4.5884450" lon="-74.1610670">
        <ele>2566.0</ele>
        <time>2018-06-17T15:20:49Z</time>
      </trkpt>
      <trkpt lat="4.5890190" lon="-74.1611200">
        <ele>2562.5</ele>
        <time>2018-06-17T15:20:58Z</time>
      </trkpt>
      <trkpt lat="4.5895740" lon="-74.1611820">
        <ele>2563.0</ele>
        <time>2018-06-17T15:21:10Z</time>
      </trkpt>
      <trkpt lat="4.5896180" lon="-74.1611830">
        <ele>2563.0</ele>
        <time>2018-06-17T15:21:39Z</time>
      </trkpt>
      <trkpt lat="4.5900520" lon="-74.1611810">
        <ele>2563.0</ele>
        <time>2018-06-17T15:21:58Z</time>
      </trkpt>
      <trkpt lat="4.5902320" lon="-74.1611600">
        <ele>2563.7</ele>
        <time>2018-06-17T15:22:03Z</time>
      </trkpt>
      <trkpt lat="4.5903110" lon="-74.1611630">
        <ele>2563.6</ele>
        <time>2018-06-17T15:22:05Z</time>
      </trkpt>
      <trkpt lat="4.5908660" lon="-74.1612160">
        <ele>2564.3</ele>
        <time>2018-06-17T15:22:16Z</time>
      </trkpt>
      <trkpt lat="4.5913140" lon="-74.1612620">
        <ele>2568.8</ele>
        <time>2018-06-17T15:22:25Z</time>
      </trkpt>
      <trkpt lat="4.5916810" lon="-74.1612880">
        <ele>2562.0</ele>
        <time>2018-06-17T15:22:32Z</time>
      </trkpt>
      <trkpt lat="4.5918920" lon="-74.1613140">
        <ele>2558.6</ele>
        <time>2018-06-17T15:22:36Z</time>
      </trkpt>
      <trkpt lat="4.5923480" lon="-74.1613670">
        <ele>2558.5</ele>
        <time>2018-06-17T15:22:45Z</time>
      </trkpt>
      <trkpt lat="4.5926630" lon="-74.1613880">
        <ele>2562.3</ele>
        <time>2018-06-17T15:22:54Z</time>
      </trkpt>
      <trkpt lat="4.5928130" lon="-74.1614280">
        <ele>2562.1</ele>
        <time>2018-06-17T15:23:02Z</time>
      </trkpt>
      <trkpt lat="4.5931630" lon="-74.1614470">
        <ele>2559.0</ele>
        <time>2018-06-17T15:23:11Z</time>
      </trkpt>
      <trkpt lat="4.5937110" lon="-74.1615200">
        <ele>2560.1</ele>
        <time>2018-06-17T15:23:22Z</time>
      </trkpt>
      <trkpt lat="4.5940360" lon="-74.1615570">
        <ele>2558.7</ele>
        <time>2018-06-17T15:23:29Z</time>
      </trkpt>
      <trkpt lat="4.5941700" lon="-74.1615730">
        <ele>2559.5</ele>
        <time>2018-06-17T15:23:32Z</time>
      </trkpt>
      <trkpt lat="4.5942580" lon="-74.1615840">
        <ele>2559.5</ele>
        <time>2018-06-17T15:23:34Z</time>
      </trkpt>
      <trkpt lat="4.5948140" lon="-74.1616130">
        <ele>2560.9</ele>
        <time>2018-06-17T15:23:49Z</time>
      </trkpt>
      <trkpt lat="4.5950270" lon="-74.1615340">
        <ele>2562.3</ele>
        <time>2018-06-17T15:23:55Z</time>
      </trkpt>
      <trkpt lat="4.5954330" lon="-74.1611930">
        <ele>2564.2</ele>
        <time>2018-06-17T15:24:14Z</time>
      </trkpt>
      <trkpt lat="4.5957060" lon="-74.1612340">
        <ele>2565.5</ele>
        <time>2018-06-17T15:29:33Z</time>
      </trkpt>
      <trkpt lat="4.5960250" lon="-74.1613050">
        <ele>2564.2</ele>
        <time>2018-06-17T15:29:51Z</time>
      </trkpt>
      <trkpt lat="4.5964780" lon="-74.1616190">
        <ele>2558.0</ele>
        <time>2018-06-17T15:30:12Z</time>
      </trkpt>
      <trkpt lat="4.5967000" lon="-74.1618620">
        <ele>2554.9</ele>
        <time>2018-06-17T15:30:20Z</time>
      </trkpt>
      <trkpt lat="4.5972210" lon="-74.1619880">
        <ele>2561.4</ele>
        <time>2018-06-17T15:30:33Z</time>
      </trkpt>
      <trkpt lat="4.5977890" lon="-74.1620570">
        <ele>2559.8</ele>
        <time>2018-06-17T15:30:47Z</time>
      </trkpt>
      <trkpt lat="4.5983570" lon="-74.1621140">
        <ele>2562.1</ele>
        <time>2018-06-17T15:31:00Z</time>
      </trkpt>
      <trkpt lat="4.5989140" lon="-74.1620910">
        <ele>2561.8</ele>
        <time>2018-06-17T15:31:13Z</time>
      </trkpt>
      <trkpt lat="4.5991340" lon="-74.1620740">
        <ele>2560.6</ele>
        <time>2018-06-17T15:31:21Z</time>
      </trkpt>
      <trkpt lat="4.5991430" lon="-74.1620440">
        <ele>2560.5</ele>
        <time>2018-06-17T15:31:24Z</time>
      </trkpt>
      <trkpt lat="4.5992360" lon="-74.1620330">
        <ele>2560.2</ele>
        <time>2018-06-17T15:31:29Z</time>
      </trkpt>
      <trkpt lat="4.5995520" lon="-74.1619710">
        <ele>2559.9</ele>
        <time>2018-06-17T15:32:01Z</time>
      </trkpt>
      <trkpt lat="4.5996280" lon="-74.1619730">
        <ele>2560.0</ele>
        <time>2018-06-17T15:32:05Z</time>
      </trkpt>
      <trkpt lat="4.5996440" lon="-74.1619730">
        <ele>2560.0</ele>
        <time>2018-06-17T15:32:06Z</time>
      </trkpt>
      <trkpt lat="4.5997100" lon="-74.1619480">
        <ele>2560.0</ele>
        <time>2018-06-17T15:32:10Z</time>
      </trkpt>
      <trkpt lat="4.6002560" lon="-74.1619640">
        <ele>2559.0</ele>
        <time>2018-06-17T15:32:30Z</time>
      </trkpt>
      <trkpt lat="4.6007810" lon="-74.1619290">
        <ele>2558.2</ele>
        <time>2018-06-17T15:32:42Z</time>
      </trkpt>
      <trkpt lat="4.6012670" lon="-74.1618780">
        <ele>2558.7</ele>
        <time>2018-06-17T15:32:53Z</time>
      </trkpt>
      <trkpt lat="4.6018190" lon="-74.1618430">
        <ele>2557.0</ele>
        <time>2018-06-17T15:33:10Z</time>
      </trkpt>
      <trkpt lat="4.6020400" lon="-74.1618230">
        <ele>2557.0</ele>
        <time>2018-06-17T15:33:15Z</time>
      </trkpt>
      <trkpt lat="4.6025970" lon="-74.1617810">
        <ele>2558.9</ele>
        <time>2018-06-17T15:33:26Z</time>
      </trkpt>
      <trkpt lat="4.6031620" lon="-74.1617290">
        <ele>2558.4</ele>
        <time>2018-06-17T15:33:38Z</time>
      </trkpt>
      <trkpt lat="4.6037060" lon="-74.1617060">
        <ele>2556.7</ele>
        <time>2018-06-17T15:33:54Z</time>
      </trkpt>
      <trkpt lat="4.6042700" lon="-74.1616800">
        <ele>2556.2</ele>
        <time>2018-06-17T15:34:05Z</time>
      </trkpt>
      <trkpt lat="4.6048610" lon="-74.1616350">
        <ele>2552.5</ele>
        <time>2018-06-17T15:34:16Z</time>
      </trkpt>
      <trkpt lat="4.6054050" lon="-74.1615910">
        <ele>2549.2</ele>
        <time>2018-06-17T15:34:26Z</time>
      </trkpt>
      <trkpt lat="4.6059800" lon="-74.1615390">
        <ele>2552.7</ele>
        <time>2018-06-17T15:34:37Z</time>
      </trkpt>
      <trkpt lat="4.6065730" lon="-74.1614890">
        <ele>2553.0</ele>
        <time>2018-06-17T15:34:48Z</time>
      </trkpt>
      <trkpt lat="4.6071550" lon="-74.1614440">
        <ele>2556.8</ele>
        <time>2018-06-17T15:34:59Z</time>
      </trkpt>
      <trkpt lat="4.6074160" lon="-74.1614250">
        <ele>2555.4</ele>
        <time>2018-06-17T15:35:04Z</time>
      </trkpt>
      <trkpt lat="4.6079580" lon="-74.1613800">
        <ele>2551.1</ele>
        <time>2018-06-17T15:35:16Z</time>
      </trkpt>
      <trkpt lat="4.6082780" lon="-74.1613510">
        <ele>2552.6</ele>
        <time>2018-06-17T15:35:26Z</time>
      </trkpt>
      <trkpt lat="4.6088240" lon="-74.1612910">
        <ele>2555.3</ele>
        <time>2018-06-17T15:35:37Z</time>
      </trkpt>
      <trkpt lat="4.6094090" lon="-74.1612320">
        <ele>2557.5</ele>
        <time>2018-06-17T15:35:47Z</time>
      </trkpt>
      <trkpt lat="4.6099510" lon="-74.1611940">
        <ele>2558.2</ele>
        <time>2018-06-17T15:35:56Z</time>
      </trkpt>
      <trkpt lat="4.6105080" lon="-74.1611440">
        <ele>2556.0</ele>
        <time>2018-06-17T15:36:09Z</time>
      </trkpt>
      <trkpt lat="4.6105500" lon="-74.1611440">
        <ele>2556.0</ele>
        <time>2018-06-17T15:36:10Z</time>
      </trkpt>
      <trkpt lat="4.6109230" lon="-74.1611110">
        <ele>2556.3</ele>
        <time>2018-06-17T15:36:18Z</time>
      </trkpt>
      <trkpt lat="4.6115110" lon="-74.1610950">
        <ele>2553.6</ele>
        <time>2018-06-17T15:36:29Z</time>
      </trkpt>
      <trkpt lat="4.6120840" lon="-74.1611470">
        <ele>2553.0</ele>
        <time>2018-06-17T15:37:14Z</time>
      </trkpt>
      <trkpt lat="4.6126600" lon="-74.1612270">
        <ele>2552.0</ele>
        <time>2018-06-17T15:37:27Z</time>
      </trkpt>
      <trkpt lat="4.6131940" lon="-74.1613760">
        <ele>2556.6</ele>
        <time>2018-06-17T15:37:39Z</time>
      </trkpt>
      <trkpt lat="4.6134130" lon="-74.1614560">
        <ele>2557.9</ele>
        <time>2018-06-17T15:37:44Z</time>
      </trkpt>
      <trkpt lat="4.6139220" lon="-74.1616960">
        <ele>2558.3</ele>
        <time>2018-06-17T15:37:57Z</time>
      </trkpt>
      <trkpt lat="4.6144120" lon="-74.1619630">
        <ele>2555.7</ele>
        <time>2018-06-17T15:38:13Z</time>
      </trkpt>
      <trkpt lat="4.6144550" lon="-74.1619670">
        <ele>2555.5</ele>
        <time>2018-06-17T15:38:17Z</time>
      </trkpt>
      <trkpt lat="4.6145460" lon="-74.1619930">
        <ele>2555.2</ele>
        <time>2018-06-17T15:38:21Z</time>
      </trkpt>
      <trkpt lat="4.6150160" lon="-74.1622740">
        <ele>2557.6</ele>
        <time>2018-06-17T15:38:38Z</time>
      </trkpt>
      <trkpt lat="4.6151030" lon="-74.1623910">
        <ele>2558.0</ele>
        <time>2018-06-17T15:38:46Z</time>
      </trkpt>
      <trkpt lat="4.6150930" lon="-74.1624930">
        <ele>2558.0</ele>
        <time>2018-06-17T15:38:51Z</time>
      </trkpt>
      <trkpt lat="4.6152310" lon="-74.1624820">
        <ele>2558.0</ele>
        <time>2018-06-17T15:38:58Z</time>
      </trkpt>
      <trkpt lat="4.6157230" lon="-74.1627610">
        <ele>2558.0</ele>
        <time>2018-06-17T15:39:42Z</time>
      </trkpt>
      <trkpt lat="4.6162440" lon="-74.1630630">
        <ele>2557.0</ele>
        <time>2018-06-17T15:39:52Z</time>
      </trkpt>
      <trkpt lat="4.6167390" lon="-74.1633520">
        <ele>2556.5</ele>
        <time>2018-06-17T15:40:01Z</time>
      </trkpt>
      <trkpt lat="4.6172470" lon="-74.1636550">
        <ele>2555.8</ele>
        <time>2018-06-17T15:40:10Z</time>
      </trkpt>
      <trkpt lat="4.6177520" lon="-74.1639580">
        <ele>2554.0</ele>
        <time>2018-06-17T15:40:19Z</time>
      </trkpt>
      <trkpt lat="4.6181310" lon="-74.1641750">
        <ele>2555.0</ele>
        <time>2018-06-17T15:40:28Z</time>
      </trkpt>
      <trkpt lat="4.6186450" lon="-74.1644650">
        <ele>2556.8</ele>
        <time>2018-06-17T15:40:38Z</time>
      </trkpt>
      <trkpt lat="4.6191300" lon="-74.1647490">
        <ele>2555.6</ele>
        <time>2018-06-17T15:40:46Z</time>
      </trkpt>
      <trkpt lat="4.6196520" lon="-74.1650610">
        <ele>2554.9</ele>
        <time>2018-06-17T15:40:55Z</time>
      </trkpt>
      <trkpt lat="4.6201750" lon="-74.1653690">
        <ele>2551.8</ele>
        <time>2018-06-17T15:41:04Z</time>
      </trkpt>
      <trkpt lat="4.6206650" lon="-74.1656550">
        <ele>2555.4</ele>
        <time>2018-06-17T15:41:13Z</time>
      </trkpt>
      <trkpt lat="4.6211420" lon="-74.1659210">
        <ele>2553.0</ele>
        <time>2018-06-17T15:42:17Z</time>
      </trkpt>
      <trkpt lat="4.6216020" lon="-74.1662080">
        <ele>2551.8</ele>
        <time>2018-06-17T15:42:30Z</time>
      </trkpt>
      <trkpt lat="4.6221180" lon="-74.1665050">
        <ele>2550.0</ele>
        <time>2018-06-17T15:42:38Z</time>
      </trkpt>
      <trkpt lat="4.6226420" lon="-74.1668210">
        <ele>2550.3</ele>
        <time>2018-06-17T15:42:45Z</time>
      </trkpt>
      <trkpt lat="4.6231680" lon="-74.1671410">
        <ele>2550.0</ele>
        <time>2018-06-17T15:42:52Z</time>
      </trkpt>
      <trkpt lat="4.6236930" lon="-74.1674500">
        <ele>2548.1</ele>
        <time>2018-06-17T15:42:59Z</time>
      </trkpt>
      <trkpt lat="4.6240350" lon="-74.1676660">
        <ele>2548.9</ele>
        <time>2018-06-17T15:43:04Z</time>
      </trkpt>
      <trkpt lat="4.6244000" lon="-74.1680990">
        <ele>2547.4</ele>
        <time>2018-06-17T15:43:11Z</time>
      </trkpt>
      <trkpt lat="4.6247310" lon="-74.1685520">
        <ele>2546.2</ele>
        <time>2018-06-17T15:43:18Z</time>
      </trkpt>
      <trkpt lat="4.6249320" lon="-74.1687860">
        <ele>2546.0</ele>
        <time>2018-06-17T15:43:22Z</time>
      </trkpt>
      <trkpt lat="4.6251160" lon="-74.1689190">
        <ele>2545.6</ele>
        <time>2018-06-17T15:43:25Z</time>
      </trkpt>
      <trkpt lat="4.6256310" lon="-74.1691510">
        <ele>2546.7</ele>
        <time>2018-06-17T15:43:36Z</time>
      </trkpt>
      <trkpt lat="4.6261500" lon="-74.1693590">
        <ele>2547.0</ele>
        <time>2018-06-17T15:43:46Z</time>
      </trkpt>
      <trkpt lat="4.6262810" lon="-74.1694060">
        <ele>2547.0</ele>
        <time>2018-06-17T15:43:49Z</time>
      </trkpt>
      <trkpt lat="4.6268230" lon="-74.1695340">
        <ele>2550.2</ele>
        <time>2018-06-17T15:44:03Z</time>
      </trkpt>
      <trkpt lat="4.6271680" lon="-74.1697280">
        <ele>2549.0</ele>
        <time>2018-06-17T15:44:14Z</time>
      </trkpt>
      <trkpt lat="4.6276470" lon="-74.1700540">
        <ele>2546.0</ele>
        <time>2018-06-17T15:44:24Z</time>
      </trkpt>
      <trkpt lat="4.6279930" lon="-74.1702350">
        <ele>2545.2</ele>
        <time>2018-06-17T15:44:30Z</time>
      </trkpt>
      <trkpt lat="4.6283040" lon="-74.1702900">
        <ele>2544.1</ele>
        <time>2018-06-17T15:44:36Z</time>
      </trkpt>
      <trkpt lat="4.6283200" lon="-74.1703150">
        <ele>2544.1</ele>
        <time>2018-06-17T15:44:37Z</time>
      </trkpt>
      <trkpt lat="4.6283880" lon="-74.1704400">
        <ele>2544.1</ele>
        <time>2018-06-17T15:44:41Z</time>
      </trkpt>
      <trkpt lat="4.6287020" lon="-74.1707470">
        <ele>2545.8</ele>
        <time>2018-06-17T15:44:52Z</time>
      </trkpt>
      <trkpt lat="4.6292100" lon="-74.1710240">
        <ele>2542.8</ele>
        <time>2018-06-17T15:44:59Z</time>
      </trkpt>
      <trkpt lat="4.6297450" lon="-74.1712940">
        <ele>2539.0</ele>
        <time>2018-06-17T15:45:05Z</time>
      </trkpt>
      <trkpt lat="4.6303160" lon="-74.1715800">
        <ele>2542.0</ele>
        <time>2018-06-17T15:45:11Z</time>
      </trkpt>
      <trkpt lat="4.6308220" lon="-74.1718450">
        <ele>2539.2</ele>
        <time>2018-06-17T15:45:16Z</time>
      </trkpt>
      <trkpt lat="4.6313350" lon="-74.1721170">
        <ele>2538.0</ele>
        <time>2018-06-17T15:45:21Z</time>
      </trkpt>
      <trkpt lat="4.6318620" lon="-74.1723940">
        <ele>2544.0</ele>
        <time>2018-06-17T15:45:26Z</time>
      </trkpt>
      <trkpt lat="4.6323880" lon="-74.1726720">
        <ele>2543.4</ele>
        <time>2018-06-17T15:45:31Z</time>
      </trkpt>
      <trkpt lat="4.6329280" lon="-74.1729620">
        <ele>2542.0</ele>
        <time>2018-06-17T15:45:36Z</time>
      </trkpt>
      <trkpt lat="4.6334690" lon="-74.1732560">
        <ele>2543.0</ele>
        <time>2018-06-17T15:45:41Z</time>
      </trkpt>
      <trkpt lat="4.6340250" lon="-74.1735670">
        <ele>2546.8</ele>
        <time>2018-06-17T15:45:47Z</time>
      </trkpt>
      <trkpt lat="4.6345480" lon="-74.1738410">
        <ele>2549.1</ele>
        <time>2018-06-17T15:45:53Z</time>
      </trkpt>
      <trkpt lat="4.6350400" lon="-74.1741250">
        <ele>2542.0</ele>
        <time>2018-06-17T15:45:59Z</time>
      </trkpt>
      <trkpt lat="4.6355520" lon="-74.1743910">
        <ele>2538.5</ele>
        <time>2018-06-17T15:46:06Z</time>
      </trkpt>
      <trkpt lat="4.6360310" lon="-74.1746560">
        <ele>2542.0</ele>
        <time>2018-06-17T15:46:14Z</time>
      </trkpt>
      <trkpt lat="4.6359910" lon="-74.1748930">
        <ele>2542.0</ele>
        <time>2018-06-17T15:46:20Z</time>
      </trkpt>
      <trkpt lat="4.6359650" lon="-74.1749230">
        <ele>2542.0</ele>
        <time>2018-06-17T15:46:21Z</time>
      </trkpt>
      <trkpt lat="4.6357410" lon="-74.1748780">
        <ele>2540.5</ele>
        <time>2018-06-17T15:46:26Z</time>
      </trkpt>
      <trkpt lat="4.6352570" lon="-74.1746130">
        <ele>2539.5</ele>
        <time>2018-06-17T15:46:36Z</time>
      </trkpt>
      <trkpt lat="4.6347570" lon="-74.1743580">
        <ele>2538.7</ele>
        <time>2018-06-17T15:46:46Z</time>
      </trkpt>
      <trkpt lat="4.6346200" lon="-74.1742860">
        <ele>2539.1</ele>
        <time>2018-06-17T15:46:49Z</time>
      </trkpt>
      <trkpt lat="4.6344940" lon="-74.1742000">
        <ele>2541.8</ele>
        <time>2018-06-17T15:46:52Z</time>
      </trkpt>
      <trkpt lat="4.6340510" lon="-74.1739860">
        <ele>2546.3</ele>
        <time>2018-06-17T15:47:01Z</time>
      </trkpt>
      <trkpt lat="4.6338450" lon="-74.1741830">
        <ele>2547.9</ele>
        <time>2018-06-17T15:47:07Z</time>
      </trkpt>
      <trkpt lat="4.6335810" lon="-74.1746970">
        <ele>2548.4</ele>
        <time>2018-06-17T15:47:17Z</time>
      </trkpt>
      <trkpt lat="4.6333230" lon="-74.1752190">
        <ele>2548.6</ele>
        <time>2018-06-17T15:47:29Z</time>
      </trkpt>
      <trkpt lat="4.6330800" lon="-74.1757340">
        <ele>2545.4</ele>
        <time>2018-06-17T15:47:41Z</time>
      </trkpt>
      <trkpt lat="4.6328310" lon="-74.1762250">
        <ele>2549.3</ele>
        <time>2018-06-17T15:47:54Z</time>
      </trkpt>
      <trkpt lat="4.6326340" lon="-74.1765940">
        <ele>2553.3</ele>
        <time>2018-06-17T15:48:04Z</time>
      </trkpt>
      <trkpt lat="4.6324030" lon="-74.1770960">
        <ele>2556.9</ele>
        <time>2018-06-17T15:48:20Z</time>
      </trkpt>
      <trkpt lat="4.6321610" lon="-74.1775890">
        <ele>2543.9</ele>
        <time>2018-06-17T15:48:39Z</time>
      </trkpt>
      <trkpt lat="4.6319370" lon="-74.1780980">
        <ele>2543.4</ele>
        <time>2018-06-17T15:48:56Z</time>
      </trkpt>
      <trkpt lat="4.6317140" lon="-74.1785930">
        <ele>2545.8</ele>
        <time>2018-06-17T15:50:56Z</time>
      </trkpt>
      <trkpt lat="4.6317050" lon="-74.1786290">
        <ele>2546.0</ele>
        <time>2018-06-17T15:50:58Z</time>
      </trkpt>
      <trkpt lat="4.6314710" lon="-74.1791480">
        <ele>2546.0</ele>
        <time>2018-06-17T15:51:21Z</time>
      </trkpt>
      <trkpt lat="4.6312190" lon="-74.1796850">
        <ele>2546.2</ele>
        <time>2018-06-17T15:51:32Z</time>
      </trkpt>
      <trkpt lat="4.6309890" lon="-74.1802010">
        <ele>2545.0</ele>
        <time>2018-06-17T15:51:40Z</time>
      </trkpt>
      <trkpt lat="4.6307490" lon="-74.1807190">
        <ele>2545.1</ele>
        <time>2018-06-17T15:51:50Z</time>
      </trkpt>
      <trkpt lat="4.6305400" lon="-74.1812240">
        <ele>2545.0</ele>
        <time>2018-06-17T15:52:04Z</time>
      </trkpt>
      <trkpt lat="4.6303250" lon="-74.1817400">
        <ele>2545.0</ele>
        <time>2018-06-17T15:52:17Z</time>
      </trkpt>
      <trkpt lat="4.6301160" lon="-74.1821880">
        <ele>2544.7</ele>
        <time>2018-06-17T15:52:28Z</time>
      </trkpt>
      <trkpt lat="4.6298950" lon="-74.1826870">
        <ele>2546.0</ele>
        <time>2018-06-17T15:52:52Z</time>
      </trkpt>
      <trkpt lat="4.6296620" lon="-74.1831960">
        <ele>2545.9</ele>
        <time>2018-06-17T15:53:03Z</time>
      </trkpt>
      <trkpt lat="4.6294540" lon="-74.1836980">
        <ele>2543.9</ele>
        <time>2018-06-17T15:53:19Z</time>
      </trkpt>
      <trkpt lat="4.6294290" lon="-74.1837830">
        <ele>2543.8</ele>
        <time>2018-06-17T15:53:29Z</time>
      </trkpt>
      <trkpt lat="4.6291640" lon="-74.1842840">
        <ele>2545.4</ele>
        <time>2018-06-17T15:53:43Z</time>
      </trkpt>
      <trkpt lat="4.6291130" lon="-74.1843640">
        <ele>2545.7</ele>
        <time>2018-06-17T15:53:45Z</time>
      </trkpt>
      <trkpt lat="4.6290320" lon="-74.1844930">
        <ele>2545.2</ele>
        <time>2018-06-17T15:53:48Z</time>
      </trkpt>
      <trkpt lat="4.6287960" lon="-74.1850160">
        <ele>2543.4</ele>
        <time>2018-06-17T15:53:59Z</time>
      </trkpt>
      <trkpt lat="4.6287750" lon="-74.1850600">
        <ele>2542.0</ele>
        <time>2018-06-17T15:54:00Z</time>
      </trkpt>
      <trkpt lat="4.6285330" lon="-74.1855850">
        <ele>2542.0</ele>
        <time>2018-06-17T15:54:12Z</time>
      </trkpt>
      <trkpt lat="4.6284930" lon="-74.1856860">
        <ele>2542.0</ele>
        <time>2018-06-17T15:54:14Z</time>
      </trkpt>
      <trkpt lat="4.6282510" lon="-74.1861710">
        <ele>2542.7</ele>
        <time>2018-06-17T15:54:24Z</time>
      </trkpt>
      <trkpt lat="4.6280240" lon="-74.1866470">
        <ele>2545.0</ele>
        <time>2018-06-17T15:54:39Z</time>
      </trkpt>
      <trkpt lat="4.6277920" lon="-74.1871760">
        <ele>2545.4</ele>
        <time>2018-06-17T15:54:50Z</time>
      </trkpt>
      <trkpt lat="4.6275600" lon="-74.1876740">
        <ele>2544.3</ele>
        <time>2018-06-17T15:54:58Z</time>
      </trkpt>
      <trkpt lat="4.6273350" lon="-74.1881970">
        <ele>2545.0</ele>
        <time>2018-06-17T15:55:08Z</time>
      </trkpt>
      <trkpt lat="4.6271060" lon="-74.1887420">
        <ele>2546.0</ele>
        <time>2018-06-17T15:55:21Z</time>
      </trkpt>
      <trkpt lat="4.6268920" lon="-74.1892790">
        <ele>2544.1</ele>
        <time>2018-06-17T15:55:32Z</time>
      </trkpt>
      <trkpt lat="4.6266730" lon="-74.1898170">
        <ele>2545.0</ele>
        <time>2018-06-17T15:55:42Z</time>
      </trkpt>
      <trkpt lat="4.6265020" lon="-74.1903030">
        <ele>2546.0</ele>
        <time>2018-06-17T15:56:12Z</time>
      </trkpt>
      <trkpt lat="4.6263150" lon="-74.1908190">
        <ele>2546.0</ele>
        <time>2018-06-17T15:56:48Z</time>
      </trkpt>
      <trkpt lat="4.6262480" lon="-74.1909940">
        <ele>2546.5</ele>
        <time>2018-06-17T15:56:59Z</time>
      </trkpt>
      <trkpt lat="4.6262120" lon="-74.1910060">
        <ele>2546.5</ele>
        <time>2018-06-17T15:57:03Z</time>
      </trkpt>
      <trkpt lat="4.6260500" lon="-74.1915230">
        <ele>2547.0</ele>
        <time>2018-06-17T15:57:26Z</time>
      </trkpt>
      <trkpt lat="4.6260520" lon="-74.1915690">
        <ele>2546.8</ele>
        <time>2018-06-17T15:57:46Z</time>
      </trkpt>
      <trkpt lat="4.6259390" lon="-74.1916000">
        <ele>2544.6</ele>
        <time>2018-06-17T15:57:57Z</time>
      </trkpt>
      <trkpt lat="4.6257930" lon="-74.1916850">
        <ele>2547.0</ele>
        <time>2018-06-17T15:58:05Z</time>
      </trkpt>
      <trkpt lat="4.6257650" lon="-74.1917180">
        <ele>2547.1</ele>
        <time>2018-06-17T15:58:06Z</time>
      </trkpt>
      <trkpt lat="4.6255860" lon="-74.1919420">
        <ele>2546.6</ele>
        <time>2018-06-17T15:58:12Z</time>
      </trkpt>
      <trkpt lat="4.6252190" lon="-74.1923450">
        <ele>2545.6</ele>
        <time>2018-06-17T15:58:23Z</time>
      </trkpt>
      <trkpt lat="4.6251990" lon="-74.1924330">
        <ele>2545.9</ele>
        <time>2018-06-17T15:58:26Z</time>
      </trkpt>
      <trkpt lat="4.6255150" lon="-74.1927690">
        <ele>2541.8</ele>
        <time>2018-06-17T15:58:42Z</time>
      </trkpt>
      <trkpt lat="4.6253290" lon="-74.1933020">
        <ele>2547.0</ele>
        <time>2018-06-17T15:58:59Z</time>
      </trkpt>
      <trkpt lat="4.6252530" lon="-74.1934870">
        <ele>2545.6</ele>
        <time>2018-06-17T15:59:04Z</time>
      </trkpt>
      <trkpt lat="4.6251830" lon="-74.1936760">
        <ele>2545.6</ele>
        <time>2018-06-17T15:59:09Z</time>
      </trkpt>
      <trkpt lat="4.6249820" lon="-74.1942040">
        <ele>2546.3</ele>
        <time>2018-06-17T15:59:22Z</time>
      </trkpt>
      <trkpt lat="4.6248010" lon="-74.1947220">
        <ele>2543.9</ele>
        <time>2018-06-17T15:59:37Z</time>
      </trkpt>
      <trkpt lat="4.6245950" lon="-74.1952600">
        <ele>2547.0</ele>
        <time>2018-06-17T15:59:55Z</time>
      </trkpt>
      <trkpt lat="4.6243750" lon="-74.1957830">
        <ele>2546.9</ele>
        <time>2018-06-17T16:00:08Z</time>
      </trkpt>
      <trkpt lat="4.6241490" lon="-74.1962980">
        <ele>2544.7</ele>
        <time>2018-06-17T16:00:19Z</time>
      </trkpt>
      <trkpt lat="4.6239280" lon="-74.1968420">
        <ele>2544.1</ele>
        <time>2018-06-17T16:00:30Z</time>
      </trkpt>
      <trkpt lat="4.6237290" lon="-74.1973710">
        <ele>2546.0</ele>
        <time>2018-06-17T16:00:42Z</time>
      </trkpt>
      <trkpt lat="4.6236890" lon="-74.1975080">
        <ele>2546.0</ele>
        <time>2018-06-17T16:00:55Z</time>
      </trkpt>
      <trkpt lat="4.6233620" lon="-74.1979400">
        <ele>2546.0</ele>
        <time>2018-06-17T16:01:12Z</time>
      </trkpt>
      <trkpt lat="4.6230900" lon="-74.1984420">
        <ele>2544.6</ele>
        <time>2018-06-17T16:01:24Z</time>
      </trkpt>
      <trkpt lat="4.6229130" lon="-74.1989750">
        <ele>2544.4</ele>
        <time>2018-06-17T16:01:39Z</time>
      </trkpt>
      <trkpt lat="4.6227850" lon="-74.1993370">
        <ele>2545.0</ele>
        <time>2018-06-17T16:01:50Z</time>
      </trkpt>
      <trkpt lat="4.6229000" lon="-74.1993980">
        <ele>2545.0</ele>
        <time>2018-06-17T16:01:55Z</time>
      </trkpt>
      <trkpt lat="4.6233110" lon="-74.1995560">
        <ele>2544.9</ele>
        <time>2018-06-17T16:02:04Z</time>
      </trkpt>
      <trkpt lat="4.6238160" lon="-74.1997440">
        <ele>2544.0</ele>
        <time>2018-06-17T16:02:15Z</time>
      </trkpt>
      <trkpt lat="4.6239460" lon="-74.1997850">
        <ele>2544.0</ele>
        <time>2018-06-17T16:02:18Z</time>
      </trkpt>
      <trkpt lat="4.6244810" lon="-74.2000100">
        <ele>2544.0</ele>
        <time>2018-06-17T16:02:30Z</time>
      </trkpt>
      <trkpt lat="4.6246220" lon="-74.2001000">
        <ele>2542.0</ele>
        <time>2018-06-17T16:02:36Z</time>
      </trkpt>
      <trkpt lat="4.6245770" lon="-74.2002120">
        <ele>2542.0</ele>
        <time>2018-06-17T16:02:40Z</time>
      </trkpt>
      <trkpt lat="4.6245360" lon="-74.2003300">
        <ele>2542.0</ele>
        <time>2018-06-17T16:02:44Z</time>
      </trkpt>
      <trkpt lat="4.6243770" lon="-74.2008460">
        <ele>2541.1</ele>
        <time>2018-06-17T16:03:01Z</time>
      </trkpt>
      <trkpt lat="4.6244550" lon="-74.2009480">
        <ele>2541.0</ele>
        <time>2018-06-17T16:03:05Z</time>
      </trkpt>
      <trkpt lat="4.6245730" lon="-74.2010010">
        <ele>2541.0</ele>
        <time>2018-06-17T16:03:08Z</time>
      </trkpt>
      <trkpt lat="4.6251080" lon="-74.2011890">
        <ele>2542.0</ele>
        <time>2018-06-17T16:03:24Z</time>
      </trkpt>
      <trkpt lat="4.6256400" lon="-74.2010660">
        <ele>2537.9</ele>
        <time>2018-06-17T16:03:42Z</time>
      </trkpt>
      <trkpt lat="4.6261610" lon="-74.2012610">
        <ele>2540.0</ele>
        <time>2018-06-17T16:03:58Z</time>
      </trkpt>
      <trkpt lat="4.6263300" lon="-74.2013420">
        <ele>2540.0</ele>
        <time>2018-06-17T16:04:04Z</time>
      </trkpt>
      <trkpt lat="4.6264340" lon="-74.2014740">
        <ele>2540.0</ele>
        <time>2018-06-17T16:04:08Z</time>
      </trkpt>
      <trkpt lat="4.6268280" lon="-74.2017000">
        <ele>2535.3</ele>
        <time>2018-06-17T16:04:20Z</time>
      </trkpt>
      <trkpt lat="4.6269650" lon="-74.2018060">
        <ele>2534.7</ele>
        <time>2018-06-17T16:04:24Z</time>
      </trkpt>
      <trkpt lat="4.6272940" lon="-74.2020880">
        <ele>2543.0</ele>
        <time>2018-06-17T16:04:38Z</time>
      </trkpt>
      <trkpt lat="4.6274780" lon="-74.2021330">
        <ele>2543.0</ele>
        <time>2018-06-17T16:04:47Z</time>
      </trkpt>
      <trkpt lat="4.6276650" lon="-74.2022390">
        <ele>2542.3</ele>
        <time>2018-06-17T16:04:53Z</time>
      </trkpt>
      <trkpt lat="4.6281970" lon="-74.2024850">
        <ele>2543.8</ele>
        <time>2018-06-17T16:05:03Z</time>
      </trkpt>
      <trkpt lat="4.6287340" lon="-74.2027280">
        <ele>2540.5</ele>
        <time>2018-06-17T16:05:13Z</time>
      </trkpt>
      <trkpt lat="4.6292360" lon="-74.2029400">
        <ele>2542.0</ele>
        <time>2018-06-17T16:05:25Z</time>
      </trkpt>
      <trkpt lat="4.6297300" lon="-74.2031470">
        <ele>2540.9</ele>
        <time>2018-06-17T16:05:35Z</time>
      </trkpt>
      <trkpt lat="4.6299370" lon="-74.2032690">
        <ele>2541.1</ele>
        <time>2018-06-17T16:05:40Z</time>
      </trkpt>
      <trkpt lat="4.6303870" lon="-74.2034560">
        <ele>2541.1</ele>
        <time>2018-06-17T16:05:58Z</time>
      </trkpt>
      <trkpt lat="4.6305080" lon="-74.2035280">
        <ele>2541.2</ele>
        <time>2018-06-17T16:06:03Z</time>
      </trkpt>
      <trkpt lat="4.6306720" lon="-74.2036070">
        <ele>2541.3</ele>
        <time>2018-06-17T16:06:12Z</time>
      </trkpt>
      <trkpt lat="4.6308430" lon="-74.2035360">
        <ele>2541.3</ele>
        <time>2018-06-17T16:06:25Z</time>
      </trkpt>
      <trkpt lat="4.6308630" lon="-74.2035320">
        <ele>2542.0</ele>
        <time>2018-06-17T16:06:26Z</time>
      </trkpt>
      <trkpt lat="4.6309250" lon="-74.2035350">
        <ele>2541.4</ele>
        <time>2018-06-17T16:06:31Z</time>
      </trkpt>
      <trkpt lat="4.6309720" lon="-74.2034350">
        <ele>2540.8</ele>
        <time>2018-06-17T16:06:35Z</time>
      </trkpt>
      <trkpt lat="4.6311830" lon="-74.2029120">
        <ele>2541.2</ele>
        <time>2018-06-17T16:06:47Z</time>
      </trkpt>
      <trkpt lat="4.6314040" lon="-74.2023890">
        <ele>2541.5</ele>
        <time>2018-06-17T16:06:58Z</time>
      </trkpt>
      <trkpt lat="4.6316100" lon="-74.2018770">
        <ele>2544.1</ele>
        <time>2018-06-17T16:07:09Z</time>
      </trkpt>
      <trkpt lat="4.6318090" lon="-74.2013610">
        <ele>2547.0</ele>
        <time>2018-06-17T16:07:21Z</time>
      </trkpt>
      <trkpt lat="4.6318270" lon="-74.2013250">
        <ele>2547.4</ele>
        <time>2018-06-17T16:07:22Z</time>
      </trkpt>
      <trkpt lat="4.6320440" lon="-74.2008060">
        <ele>2547.2</ele>
        <time>2018-06-17T16:07:37Z</time>
      </trkpt>
      <trkpt lat="4.6322710" lon="-74.2002610">
        <ele>2546.6</ele>
        <time>2018-06-17T16:07:49Z</time>
      </trkpt>
      <trkpt lat="4.6324960" lon="-74.1997590">
        <ele>2543.8</ele>
        <time>2018-06-17T16:08:03Z</time>
      </trkpt>
      <trkpt lat="4.6326520" lon="-74.1993480">
        <ele>2540.9</ele>
        <time>2018-06-17T16:08:18Z</time>
      </trkpt>
      <trkpt lat="4.6328150" lon="-74.1989090">
        <ele>2543.1</ele>
        <time>2018-06-17T16:08:28Z</time>
      </trkpt>
      <trkpt lat="4.6330280" lon="-74.1983980">
        <ele>2541.8</ele>
        <time>2018-06-17T16:08:41Z</time>
      </trkpt>
      <trkpt lat="4.6332120" lon="-74.1981310">
        <ele>2545.0</ele>
        <time>2018-06-17T16:08:52Z</time>
      </trkpt>
      <trkpt lat="4.6337010" lon="-74.1983580">
        <ele>2537.7</ele>
        <time>2018-06-17T16:09:03Z</time>
      </trkpt>
      <trkpt lat="4.6341990" lon="-74.1986190">
        <ele>2540.9</ele>
        <time>2018-06-17T16:09:13Z</time>
      </trkpt>
      <trkpt lat="4.6347220" lon="-74.1988950">
        <ele>2538.6</ele>
        <time>2018-06-17T16:09:24Z</time>
      </trkpt>
      <trkpt lat="4.6352280" lon="-74.1991720">
        <ele>2540.4</ele>
        <time>2018-06-17T16:09:34Z</time>
      </trkpt>
      <trkpt lat="4.6357340" lon="-74.1994460">
        <ele>2541.9</ele>
        <time>2018-06-17T16:09:45Z</time>
      </trkpt>
      <trkpt lat="4.6362150" lon="-74.1997010">
        <ele>2544.7</ele>
        <time>2018-06-17T16:09:56Z</time>
      </trkpt>
      <trkpt lat="4.6367120" lon="-74.1999710">
        <ele>2544.0</ele>
        <time>2018-06-17T16:10:08Z</time>
      </trkpt>
      <trkpt lat="4.6369670" lon="-74.2001010">
        <ele>2543.7</ele>
        <time>2018-06-17T16:10:15Z</time>
      </trkpt>
      <trkpt lat="4.6371680" lon="-74.2001080">
        <ele>2543.9</ele>
        <time>2018-06-17T16:10:23Z</time>
      </trkpt>
      <trkpt lat="4.6374410" lon="-74.2001480">
        <ele>2545.0</ele>
        <time>2018-06-17T16:10:33Z</time>
      </trkpt>
      <trkpt lat="4.6377320" lon="-74.1996640">
        <ele>2542.0</ele>
        <time>2018-06-17T16:10:45Z</time>
      </trkpt>
      <trkpt lat="4.6380070" lon="-74.1992130">
        <ele>2539.7</ele>
        <time>2018-06-17T16:10:55Z</time>
      </trkpt>
      <trkpt lat="4.6381020" lon="-74.1990230">
        <ele>2540.3</ele>
        <time>2018-06-17T16:11:00Z</time>
      </trkpt>
      <trkpt lat="4.6382910" lon="-74.1987380">
        <ele>2543.8</ele>
        <time>2018-06-17T16:11:07Z</time>
      </trkpt>
      <trkpt lat="4.6385700" lon="-74.1982180">
        <ele>2543.3</ele>
        <time>2018-06-17T16:11:18Z</time>
      </trkpt>
      <trkpt lat="4.6387640" lon="-74.1978700">
        <ele>2541.7</ele>
        <time>2018-06-17T16:11:26Z</time>
      </trkpt>
      <trkpt lat="4.6388590" lon="-74.1977420">
        <ele>2542.0</ele>
        <time>2018-06-17T16:11:30Z</time>
      </trkpt>
      <trkpt lat="4.6390750" lon="-74.1974620">
        <ele>2541.2</ele>
        <time>2018-06-17T16:11:43Z</time>
      </trkpt>
      <trkpt lat="4.6391560" lon="-74.1974570">
        <ele>2540.0</ele>
        <time>2018-06-17T16:11:48Z</time>
      </trkpt>
      <trkpt lat="4.6392760" lon="-74.1975020">
        <ele>2540.0</ele>
        <time>2018-06-17T16:11:57Z</time>
      </trkpt>
      <trkpt lat="4.6387990" lon="-74.1971940">
        <ele>2541.0</ele>
        <time>2018-06-17T16:12:24Z</time>
      </trkpt>
      <trkpt lat="4.6383060" lon="-74.1969040">
        <ele>2540.3</ele>
        <time>2018-06-17T16:12:36Z</time>
      </trkpt>
      <trkpt lat="4.6377940" lon="-74.1966040">
        <ele>2540.3</ele>
        <time>2018-06-17T16:12:50Z</time>
      </trkpt>
      <trkpt lat="4.6372960" lon="-74.1963060">
        <ele>2539.5</ele>
        <time>2018-06-17T16:13:01Z</time>
      </trkpt>
      <trkpt lat="4.6368200" lon="-74.1960300">
        <ele>2537.7</ele>
        <time>2018-06-17T16:13:11Z</time>
      </trkpt>
      <trkpt lat="4.6363000" lon="-74.1957390">
        <ele>2539.9</ele>
        <time>2018-06-17T16:13:22Z</time>
      </trkpt>
      <trkpt lat="4.6358390" lon="-74.1954610">
        <ele>2540.0</ele>
        <time>2018-06-17T16:13:32Z</time>
      </trkpt>
      <trkpt lat="4.6356540" lon="-74.1953520">
        <ele>2536.9</ele>
        <time>2018-06-17T16:13:36Z</time>
      </trkpt>
      <trkpt lat="4.6353380" lon="-74.1951590">
        <ele>2536.8</ele>
        <time>2018-06-17T16:13:43Z</time>
      </trkpt>
      <trkpt lat="4.6350960" lon="-74.1950230">
        <ele>2539.0</ele>
        <time>2018-06-17T16:13:48Z</time>
      </trkpt>
      <trkpt lat="4.6346010" lon="-74.1947510">
        <ele>2539.0</ele>
        <time>2018-06-17T16:13:59Z</time>
      </trkpt>
      <trkpt lat="4.6341330" lon="-74.1944490">
        <ele>2540.0</ele>
        <time>2018-06-17T16:14:13Z</time>
      </trkpt>
      <trkpt lat="4.6341110" lon="-74.1944320">
        <ele>2540.5</ele>
        <time>2018-06-17T16:14:14Z</time>
      </trkpt>
      <trkpt lat="4.6339850" lon="-74.1943440">
        <ele>2542.6</ele>
        <time>2018-06-17T16:14:25Z</time>
      </trkpt>
      <trkpt lat="4.6337840" lon="-74.1942560">
        <ele>2542.4</ele>
        <time>2018-06-17T16:14:32Z</time>
      </trkpt>
      <trkpt lat="4.6334320" lon="-74.1939860">
        <ele>2541.6</ele>
        <time>2018-06-17T16:14:46Z</time>
      </trkpt>
      <trkpt lat="4.6335550" lon="-74.1936920">
        <ele>2542.5</ele>
        <time>2018-06-17T16:14:52Z</time>
      </trkpt>
      <trkpt lat="4.6338520" lon="-74.1931690">
        <ele>2545.7</ele>
        <time>2018-06-17T16:15:00Z</time>
      </trkpt>
      <trkpt lat="4.6341380" lon="-74.1926840">
        <ele>2543.0</ele>
        <time>2018-06-17T16:15:07Z</time>
      </trkpt>
      <trkpt lat="4.6344130" lon="-74.1922060">
        <ele>2541.4</ele>
        <time>2018-06-17T16:15:14Z</time>
      </trkpt>
      <trkpt lat="4.6347020" lon="-74.1917180">
        <ele>2540.8</ele>
        <time>2018-06-17T16:15:21Z</time>
      </trkpt>
      <trkpt lat="4.6349860" lon="-74.1912220">
        <ele>2541.0</ele>
        <time>2018-06-17T16:15:29Z</time>
      </trkpt>
      <trkpt lat="4.6352390" lon="-74.1906700">
        <ele>2541.6</ele>
        <time>2018-06-17T16:15:42Z</time>
      </trkpt>
      <trkpt lat="4.6354820" lon="-74.1901210">
        <ele>2542.7</ele>
        <time>2018-06-17T16:15:50Z</time>
      </trkpt>
      <trkpt lat="4.6357370" lon="-74.1895830">
        <ele>2541.1</ele>
        <time>2018-06-17T16:15:58Z</time>
      </trkpt>
      <trkpt lat="4.6359840" lon="-74.1890950">
        <ele>2538.0</ele>
        <time>2018-06-17T16:16:08Z</time>
      </trkpt>
      <trkpt lat="4.6360010" lon="-74.1890570">
        <ele>2538.0</ele>
        <time>2018-06-17T16:16:09Z</time>
      </trkpt>
      <trkpt lat="4.6362130" lon="-74.1885470">
        <ele>2541.2</ele>
        <time>2018-06-17T16:16:18Z</time>
      </trkpt>
      <trkpt lat="4.6364730" lon="-74.1880410">
        <ele>2543.4</ele>
        <time>2018-06-17T16:16:26Z</time>
      </trkpt>
      <trkpt lat="4.6365910" lon="-74.1877320">
        <ele>2542.1</ele>
        <time>2018-06-17T16:16:31Z</time>
      </trkpt>
      <trkpt lat="4.6366560" lon="-74.1873790">
        <ele>2543.1</ele>
        <time>2018-06-17T16:16:37Z</time>
      </trkpt>
      <trkpt lat="4.6368470" lon="-74.1871660">
        <ele>2539.0</ele>
        <time>2018-06-17T16:16:45Z</time>
      </trkpt>
      <trkpt lat="4.6370210" lon="-74.1872310">
        <ele>2538.9</ele>
        <time>2018-06-17T16:16:49Z</time>
      </trkpt>
      <trkpt lat="4.6375410" lon="-74.1875020">
        <ele>2540.1</ele>
        <time>2018-06-17T16:17:00Z</time>
      </trkpt>
      <trkpt lat="4.6380760" lon="-74.1877760">
        <ele>2540.0</ele>
        <time>2018-06-17T16:17:12Z</time>
      </trkpt>
      <trkpt lat="4.6385700" lon="-74.1880380">
        <ele>2536.6</ele>
        <time>2018-06-17T16:17:20Z</time>
      </trkpt>
      <trkpt lat="4.6391130" lon="-74.1883080">
        <ele>2538.8</ele>
        <time>2018-06-17T16:17:28Z</time>
      </trkpt>
      <trkpt lat="4.6396100" lon="-74.1885520">
        <ele>2536.5</ele>
        <time>2018-06-17T16:17:35Z</time>
      </trkpt>
      <trkpt lat="4.6401220" lon="-74.1887900">
        <ele>2537.1</ele>
        <time>2018-06-17T16:17:42Z</time>
      </trkpt>
      <trkpt lat="4.6406250" lon="-74.1890450">
        <ele>2534.8</ele>
        <time>2018-06-17T16:17:49Z</time>
      </trkpt>
      <trkpt lat="4.6411330" lon="-74.1893010">
        <ele>2539.6</ele>
        <time>2018-06-17T16:17:56Z</time>
      </trkpt>
      <trkpt lat="4.6416190" lon="-74.1895440">
        <ele>2543.7</ele>
        <time>2018-06-17T16:18:03Z</time>
      </trkpt>
      <trkpt lat="4.6421350" lon="-74.1898000">
        <ele>2544.2</ele>
        <time>2018-06-17T16:18:11Z</time>
      </trkpt>
      <trkpt lat="4.6424840" lon="-74.1899690">
        <ele>2545.1</ele>
        <time>2018-06-17T16:18:17Z</time>
      </trkpt>
      <trkpt lat="4.6426470" lon="-74.1900680">
        <ele>2544.2</ele>
        <time>2018-06-17T16:18:21Z</time>
      </trkpt>
      <trkpt lat="4.6427560" lon="-74.1901700">
        <ele>2542.5</ele>
        <time>2018-06-17T16:18:25Z</time>
      </trkpt>
      <trkpt lat="4.6429370" lon="-74.1902620">
        <ele>2543.3</ele>
        <time>2018-06-17T16:18:30Z</time>
      </trkpt>
      <trkpt lat="4.6433300" lon="-74.1905380">
        <ele>2542.4</ele>
        <time>2018-06-17T16:18:45Z</time>
      </trkpt>
      <trkpt lat="4.6432200" lon="-74.1905620">
        <ele>2542.5</ele>
        <time>2018-06-17T16:18:51Z</time>
      </trkpt>
      <trkpt lat="4.6427130" lon="-74.1903140">
        <ele>2539.9</ele>
        <time>2018-06-17T16:19:16Z</time>
      </trkpt>
      <trkpt lat="4.6426340" lon="-74.1902740">
        <ele>2540.7</ele>
        <time>2018-06-17T16:19:18Z</time>
      </trkpt>
      <trkpt lat="4.6421100" lon="-74.1900250">
        <ele>2539.8</ele>
        <time>2018-06-17T16:19:27Z</time>
      </trkpt>
      <trkpt lat="4.6415740" lon="-74.1897760">
        <ele>2540.4</ele>
        <time>2018-06-17T16:19:34Z</time>
      </trkpt>
      <trkpt lat="4.6410360" lon="-74.1895010">
        <ele>2538.4</ele>
        <time>2018-06-17T16:19:41Z</time>
      </trkpt>
      <trkpt lat="4.6405410" lon="-74.1892550">
        <ele>2533.9</ele>
        <time>2018-06-17T16:19:49Z</time>
      </trkpt>
      <trkpt lat="4.6400800" lon="-74.1890400">
        <ele>2536.7</ele>
        <time>2018-06-17T16:19:58Z</time>
      </trkpt>
      <trkpt lat="4.6398730" lon="-74.1888810">
        <ele>2538.0</ele>
        <time>2018-06-17T16:20:03Z</time>
      </trkpt>
      <trkpt lat="4.6394010" lon="-74.1885950">
        <ele>2541.4</ele>
        <time>2018-06-17T16:20:14Z</time>
      </trkpt>
      <trkpt lat="4.6389060" lon="-74.1883530">
        <ele>2541.0</ele>
        <time>2018-06-17T16:20:25Z</time>
      </trkpt>
      <trkpt lat="4.6384270" lon="-74.1880830">
        <ele>2537.0</ele>
        <time>2018-06-17T16:20:36Z</time>
      </trkpt>
      <trkpt lat="4.6379980" lon="-74.1878690">
        <ele>2540.0</ele>
        <time>2018-06-17T16:20:47Z</time>
      </trkpt>
      <trkpt lat="4.6379660" lon="-74.1876510">
        <ele>2540.0</ele>
        <time>2018-06-17T16:20:53Z</time>
      </trkpt>
      <trkpt lat="4.6379760" lon="-74.1876100">
        <ele>2539.9</ele>
        <time>2018-06-17T16:20:54Z</time>
      </trkpt>
      <trkpt lat="4.6380300" lon="-74.1874890">
        <ele>2539.1</ele>
        <time>2018-06-17T16:20:57Z</time>
      </trkpt>
      <trkpt lat="4.6383010" lon="-74.1869650">
        <ele>2540.9</ele>
        <time>2018-06-17T16:21:08Z</time>
      </trkpt>
      <trkpt lat="4.6385440" lon="-74.1864510">
        <ele>2542.9</ele>
        <time>2018-06-17T16:21:19Z</time>
      </trkpt>
      <trkpt lat="4.6387370" lon="-74.1860990">
        <ele>2543.0</ele>
        <time>2018-06-17T16:21:29Z</time>
      </trkpt>
      <trkpt lat="4.6387410" lon="-74.1863040">
        <ele>2543.0</ele>
        <time>2018-06-17T16:21:35Z</time>
      </trkpt>
      <trkpt lat="4.6384620" lon="-74.1868400">
        <ele>2542.0</ele>
        <time>2018-06-17T16:21:44Z</time>
      </trkpt>
      <trkpt lat="4.6382110" lon="-74.1873250">
        <ele>2538.3</ele>
        <time>2018-06-17T16:21:51Z</time>
      </trkpt>
      <trkpt lat="4.6379780" lon="-74.1878350">
        <ele>2540.0</ele>
        <time>2018-06-17T16:21:58Z</time>
      </trkpt>
      <trkpt lat="4.6377210" lon="-74.1883190">
        <ele>2540.7</ele>
        <time>2018-06-17T16:22:04Z</time>
      </trkpt>
      <trkpt lat="4.6374410" lon="-74.1888650">
        <ele>2540.0</ele>
        <time>2018-06-17T16:22:10Z</time>
      </trkpt>
      <trkpt lat="4.6371500" lon="-74.1894220">
        <ele>2540.1</ele>
        <time>2018-06-17T16:22:16Z</time>
      </trkpt>
      <trkpt lat="4.6369080" lon="-74.1899100">
        <ele>2541.0</ele>
        <time>2018-06-17T16:22:21Z</time>
      </trkpt>
      <trkpt lat="4.6366840" lon="-74.1905130">
        <ele>2540.8</ele>
        <time>2018-06-17T16:22:27Z</time>
      </trkpt>
      <trkpt lat="4.6365780" lon="-74.1911310">
        <ele>2541.7</ele>
        <time>2018-06-17T16:22:33Z</time>
      </trkpt>
      <trkpt lat="4.6364040" lon="-74.1916660">
        <ele>2543.0</ele>
        <time>2018-06-17T16:22:39Z</time>
      </trkpt>
      <trkpt lat="4.6365940" lon="-74.1918940">
        <ele>2543.1</ele>
        <time>2018-06-17T16:22:44Z</time>
      </trkpt>
      <trkpt lat="4.6370870" lon="-74.1921900">
        <ele>2541.3</ele>
        <time>2018-06-17T16:22:53Z</time>
      </trkpt>
      <trkpt lat="4.6372470" lon="-74.1922690">
        <ele>2541.5</ele>
        <time>2018-06-17T16:22:56Z</time>
      </trkpt>
      <trkpt lat="4.6377270" lon="-74.1925420">
        <ele>2544.2</ele>
        <time>2018-06-17T16:23:06Z</time>
      </trkpt>
      <trkpt lat="4.6381790" lon="-74.1928600">
        <ele>2542.5</ele>
        <time>2018-06-17T16:23:23Z</time>
      </trkpt>
      <trkpt lat="4.6383540" lon="-74.1930320">
        <ele>2540.9</ele>
        <time>2018-06-17T16:23:30Z</time>
      </trkpt>
      <trkpt lat="4.6386180" lon="-74.1931240">
        <ele>2539.6</ele>
        <time>2018-06-17T16:23:37Z</time>
      </trkpt>
      <trkpt lat="4.6391020" lon="-74.1934110">
        <ele>2539.7</ele>
        <time>2018-06-17T16:23:54Z</time>
      </trkpt>
      <trkpt lat="4.6396090" lon="-74.1936530">
        <ele>2542.0</ele>
        <time>2018-06-17T16:24:11Z</time>
      </trkpt>
      <trkpt lat="4.6400910" lon="-74.1939120">
        <ele>2539.9</ele>
        <time>2018-06-17T16:24:27Z</time>
      </trkpt>
      <trkpt lat="4.6404360" lon="-74.1940890">
        <ele>2541.0</ele>
        <time>2018-06-17T16:24:34Z</time>
      </trkpt>
      <trkpt lat="4.6405660" lon="-74.1939400">
        <ele>2538.8</ele>
        <time>2018-06-17T16:24:38Z</time>
      </trkpt>
      <trkpt lat="4.6408190" lon="-74.1934400">
        <ele>2534.7</ele>
        <time>2018-06-17T16:24:45Z</time>
      </trkpt>
      <trkpt lat="4.6410890" lon="-74.1929210">
        <ele>2536.0</ele>
        <time>2018-06-17T16:24:51Z</time>
      </trkpt>
      <trkpt lat="4.6413780" lon="-74.1923630">
        <ele>2538.9</ele>
        <time>2018-06-17T16:24:57Z</time>
      </trkpt>
      <trkpt lat="4.6416200" lon="-74.1918760">
        <ele>2537.3</ele>
        <time>2018-06-17T16:25:02Z</time>
      </trkpt>
      <trkpt lat="4.6419050" lon="-74.1913070">
        <ele>2540.4</ele>
        <time>2018-06-17T16:25:08Z</time>
      </trkpt>
      <trkpt lat="4.6421710" lon="-74.1907820">
        <ele>2539.4</ele>
        <time>2018-06-17T16:25:14Z</time>
      </trkpt>
      <trkpt lat="4.6424160" lon="-74.1903070">
        <ele>2541.4</ele>
        <time>2018-06-17T16:25:20Z</time>
      </trkpt>
      <trkpt lat="4.6420740" lon="-74.1899920">
        <ele>2539.2</ele>
        <time>2018-06-17T16:25:27Z</time>
      </trkpt>
      <trkpt lat="4.6415140" lon="-74.1897510">
        <ele>2540.8</ele>
        <time>2018-06-17T16:25:35Z</time>
      </trkpt>
      <trkpt lat="4.6409750" lon="-74.1894810">
        <ele>2537.1</ele>
        <time>2018-06-17T16:25:43Z</time>
      </trkpt>
      <trkpt lat="4.6404690" lon="-74.1892270">
        <ele>2534.5</ele>
        <time>2018-06-17T16:25:51Z</time>
      </trkpt>
      <trkpt lat="4.6399680" lon="-74.1889850">
        <ele>2537.1</ele>
        <time>2018-06-17T16:26:01Z</time>
      </trkpt>
      <trkpt lat="4.6394690" lon="-74.1887250">
        <ele>2539.9</ele>
        <time>2018-06-17T16:26:11Z</time>
      </trkpt>
      <trkpt lat="4.6389600" lon="-74.1884780">
        <ele>2541.5</ele>
        <time>2018-06-17T16:26:21Z</time>
      </trkpt>
      <trkpt lat="4.6384730" lon="-74.1882310">
        <ele>2536.8</ele>
        <time>2018-06-17T16:26:31Z</time>
      </trkpt>
      <trkpt lat="4.6379800" lon="-74.1879950">
        <ele>2540.0</ele>
        <time>2018-06-17T16:26:43Z</time>
      </trkpt>
      <trkpt lat="4.6374970" lon="-74.1877420">
        <ele>2540.0</ele>
        <time>2018-06-17T16:26:56Z</time>
      </trkpt>
      <trkpt lat="4.6370110" lon="-74.1874910">
        <ele>2540.6</ele>
        <time>2018-06-17T16:27:07Z</time>
      </trkpt>
      <trkpt lat="4.6366510" lon="-74.1873520">
        <ele>2542.3</ele>
        <time>2018-06-17T16:27:18Z</time>
      </trkpt>
      <trkpt lat="4.6366050" lon="-74.1874810">
        <ele>2542.8</ele>
        <time>2018-06-17T16:27:22Z</time>
      </trkpt>
      <trkpt lat="4.6365250" lon="-74.1878730">
        <ele>2542.4</ele>
        <time>2018-06-17T16:27:29Z</time>
      </trkpt>
      <trkpt lat="4.6362970" lon="-74.1883980">
        <ele>2541.9</ele>
        <time>2018-06-17T16:27:38Z</time>
      </trkpt>
      <trkpt lat="4.6361620" lon="-74.1886740">
        <ele>2540.5</ele>
        <time>2018-06-17T16:27:43Z</time>
      </trkpt>
      <trkpt lat="4.6359320" lon="-74.1891760">
        <ele>2540.1</ele>
        <time>2018-06-17T16:27:53Z</time>
      </trkpt>
      <trkpt lat="4.6356890" lon="-74.1896860">
        <ele>2543.2</ele>
        <time>2018-06-17T16:28:03Z</time>
      </trkpt>
      <trkpt lat="4.6356140" lon="-74.1898290">
        <ele>2543.2</ele>
        <time>2018-06-17T16:28:06Z</time>
      </trkpt>
      <trkpt lat="4.6353950" lon="-74.1903350">
        <ele>2542.6</ele>
        <time>2018-06-17T16:28:15Z</time>
      </trkpt>
      <trkpt lat="4.6351480" lon="-74.1908560">
        <ele>2541.0</ele>
        <time>2018-06-17T16:28:25Z</time>
      </trkpt>
      <trkpt lat="4.6350690" lon="-74.1909720">
        <ele>2541.0</ele>
        <time>2018-06-17T16:28:35Z</time>
      </trkpt>
      <trkpt lat="4.6349810" lon="-74.1912280">
        <ele>2542.4</ele>
        <time>2018-06-17T16:28:45Z</time>
      </trkpt>
      <trkpt lat="4.6347020" lon="-74.1917420">
        <ele>2540.8</ele>
        <time>2018-06-17T16:28:55Z</time>
      </trkpt>
      <trkpt lat="4.6344040" lon="-74.1922230">
        <ele>2541.4</ele>
        <time>2018-06-17T16:29:04Z</time>
      </trkpt>
      <trkpt lat="4.6341130" lon="-74.1927300">
        <ele>2542.3</ele>
        <time>2018-06-17T16:29:14Z</time>
      </trkpt>
      <trkpt lat="4.6338020" lon="-74.1932280">
        <ele>2545.2</ele>
        <time>2018-06-17T16:29:24Z</time>
      </trkpt>
      <trkpt lat="4.6337180" lon="-74.1933900">
        <ele>2545.6</ele>
        <time>2018-06-17T16:29:27Z</time>
      </trkpt>
      <trkpt lat="4.6334470" lon="-74.1938680">
        <ele>2545.7</ele>
        <time>2018-06-17T16:29:38Z</time>
      </trkpt>
      <trkpt lat="4.6333690" lon="-74.1940950">
        <ele>2544.4</ele>
        <time>2018-06-17T16:29:48Z</time>
      </trkpt>
      <trkpt lat="4.6335090" lon="-74.1942180">
        <ele>2544.0</ele>
        <time>2018-06-17T16:29:56Z</time>
      </trkpt>
      <trkpt lat="4.6334760" lon="-74.1945590">
        <ele>2544.4</ele>
        <time>2018-06-17T16:30:11Z</time>
      </trkpt>
      <trkpt lat="4.6339430" lon="-74.1948470">
        <ele>2535.4</ele>
        <time>2018-06-17T16:30:21Z</time>
      </trkpt>
      <trkpt lat="4.6344160" lon="-74.1951160">
        <ele>2536.0</ele>
        <time>2018-06-17T16:30:31Z</time>
      </trkpt>
      <trkpt lat="4.6349270" lon="-74.1954290">
        <ele>2532.1</ele>
        <time>2018-06-17T16:30:41Z</time>
      </trkpt>
      <trkpt lat="4.6353120" lon="-74.1956470">
        <ele>2536.5</ele>
        <time>2018-06-17T16:30:48Z</time>
      </trkpt>
      <trkpt lat="4.6358170" lon="-74.1959390">
        <ele>2539.3</ele>
        <time>2018-06-17T16:30:57Z</time>
      </trkpt>
      <trkpt lat="4.6362990" lon="-74.1962200">
        <ele>2533.0</ele>
        <time>2018-06-17T16:31:05Z</time>
      </trkpt>
      <trkpt lat="4.6368120" lon="-74.1965170">
        <ele>2542.1</ele>
        <time>2018-06-17T16:31:12Z</time>
      </trkpt>
      <trkpt lat="4.6373060" lon="-74.1968020">
        <ele>2543.3</ele>
        <time>2018-06-17T16:31:19Z</time>
      </trkpt>
      <trkpt lat="4.6377860" lon="-74.1970780">
        <ele>2545.3</ele>
        <time>2018-06-17T16:31:26Z</time>
      </trkpt>
      <trkpt lat="4.6383030" lon="-74.1973830">
        <ele>2542.8</ele>
        <time>2018-06-17T16:31:33Z</time>
      </trkpt>
      <trkpt lat="4.6388140" lon="-74.1976760">
        <ele>2542.0</ele>
        <time>2018-06-17T16:31:40Z</time>
      </trkpt>
      <trkpt lat="4.6388470" lon="-74.1977720">
        <ele>2542.0</ele>
        <time>2018-06-17T16:31:43Z</time>
      </trkpt>
      <trkpt lat="4.6386990" lon="-74.1980100">
        <ele>2541.8</ele>
        <time>2018-06-17T16:31:49Z</time>
      </trkpt>
      <trkpt lat="4.6384260" lon="-74.1984780">
        <ele>2544.6</ele>
        <time>2018-06-17T16:31:58Z</time>
      </trkpt>
      <trkpt lat="4.6381320" lon="-74.1989930">
        <ele>2540.6</ele>
        <time>2018-06-17T16:32:08Z</time>
      </trkpt>
      <trkpt lat="4.6381010" lon="-74.1990320">
        <ele>2540.3</ele>
        <time>2018-06-17T16:32:09Z</time>
      </trkpt>
      <trkpt lat="4.6378230" lon="-74.1995210">
        <ele>2541.3</ele>
        <time>2018-06-17T16:32:19Z</time>
      </trkpt>
      <trkpt lat="4.6377120" lon="-74.1997170">
        <ele>2542.0</ele>
        <time>2018-06-17T16:32:23Z</time>
      </trkpt>
      <trkpt lat="4.6375440" lon="-74.2000300">
        <ele>2545.1</ele>
        <time>2018-06-17T16:32:29Z</time>
      </trkpt>
      <trkpt lat="4.6373900" lon="-74.2002160">
        <ele>2545.6</ele>
        <time>2018-06-17T16:32:37Z</time>
      </trkpt>
      <trkpt lat="4.6375570" lon="-74.2003380">
        <ele>2545.0</ele>
        <time>2018-06-17T16:32:44Z</time>
      </trkpt>
      <trkpt lat="4.6380550" lon="-74.2005960">
        <ele>2545.1</ele>
        <time>2018-06-17T16:32:58Z</time>
      </trkpt>
      <trkpt lat="4.6382360" lon="-74.2007460">
        <ele>2552.7</ele>
        <time>2018-06-17T16:33:05Z</time>
      </trkpt>
      <trkpt lat="4.6383610" lon="-74.2008660">
        <ele>2553.6</ele>
        <time>2018-06-17T16:33:14Z</time>
      </trkpt>
      <trkpt lat="4.6385000" lon="-74.2009390">
        <ele>2548.9</ele>
        <time>2018-06-17T16:33:17Z</time>
      </trkpt>
      <trkpt lat="4.6390110" lon="-74.2012400">
        <ele>2547.0</ele>
        <time>2018-06-17T16:33:27Z</time>
      </trkpt>
      <trkpt lat="4.6389600" lon="-74.2015530">
        <ele>2546.3</ele>
        <time>2018-06-17T16:33:34Z</time>
      </trkpt>
      <trkpt lat="4.6388880" lon="-74.2017350">
        <ele>2548.0</ele>
        <time>2018-06-17T16:33:40Z</time>
      </trkpt>
      <trkpt lat="4.6390220" lon="-74.2018200">
        <ele>2547.3</ele>
        <time>2018-06-17T16:33:44Z</time>
      </trkpt>
      <trkpt lat="4.6395570" lon="-74.2020890">
        <ele>2542.8</ele>
        <time>2018-06-17T16:33:54Z</time>
      </trkpt>
      <trkpt lat="4.6396550" lon="-74.2021510">
        <ele>2542.4</ele>
        <time>2018-06-17T16:33:56Z</time>
      </trkpt>
      <trkpt lat="4.6396400" lon="-74.2024140">
        <ele>2540.9</ele>
        <time>2018-06-17T16:34:02Z</time>
      </trkpt>
      <trkpt lat="4.6393760" lon="-74.2029070">
        <ele>2540.1</ele>
        <time>2018-06-17T16:34:11Z</time>
      </trkpt>
      <trkpt lat="4.6391030" lon="-74.2033990">
        <ele>2535.2</ele>
        <time>2018-06-17T16:34:20Z</time>
      </trkpt>
      <trkpt lat="4.6388170" lon="-74.2039160">
        <ele>2542.2</ele>
        <time>2018-06-17T16:34:30Z</time>
      </trkpt>
      <trkpt lat="4.6387220" lon="-74.2040880">
        <ele>2541.3</ele>
        <time>2018-06-17T16:34:34Z</time>
      </trkpt>
      <trkpt lat="4.6386820" lon="-74.2041630">
        <ele>2540.9</ele>
        <time>2018-06-17T16:34:36Z</time>
      </trkpt>
      <trkpt lat="4.6385430" lon="-74.2044420">
        <ele>2538.8</ele>
        <time>2018-06-17T16:35:14Z</time>
      </trkpt>
      <trkpt lat="4.6384660" lon="-74.2045830">
        <ele>2537.4</ele>
        <time>2018-06-17T16:35:20Z</time>
      </trkpt>
      <trkpt lat="4.6382400" lon="-74.2050860">
        <ele>2543.1</ele>
        <time>2018-06-17T16:35:32Z</time>
      </trkpt>
      <trkpt lat="4.6380050" lon="-74.2055860">
        <ele>2545.2</ele>
        <time>2018-06-17T16:35:42Z</time>
      </trkpt>
      <trkpt lat="4.6377790" lon="-74.2061030">
        <ele>2542.3</ele>
        <time>2018-06-17T16:35:52Z</time>
      </trkpt>
      <trkpt lat="4.6375400" lon="-74.2066020">
        <ele>2542.5</ele>
        <time>2018-06-17T16:36:03Z</time>
      </trkpt>
      <trkpt lat="4.6375410" lon="-74.2066760">
        <ele>2541.1</ele>
        <time>2018-06-17T16:36:05Z</time>
      </trkpt>
      <trkpt lat="4.6377720" lon="-74.2067630">
        <ele>2541.0</ele>
        <time>2018-06-17T16:36:13Z</time>
      </trkpt>
      <trkpt lat="4.6379730" lon="-74.2069850">
        <ele>2542.3</ele>
        <time>2018-06-17T16:36:24Z</time>
      </trkpt>
      <trkpt lat="4.6377040" lon="-74.2074690">
        <ele>2538.7</ele>
        <time>2018-06-17T16:36:33Z</time>
      </trkpt>
      <trkpt lat="4.6374120" lon="-74.2079600">
        <ele>2539.9</ele>
        <time>2018-06-17T16:36:41Z</time>
      </trkpt>
      <trkpt lat="4.6370960" lon="-74.2084750">
        <ele>2539.6</ele>
        <time>2018-06-17T16:36:49Z</time>
      </trkpt>
      <trkpt lat="4.6368190" lon="-74.2089640">
        <ele>2537.6</ele>
        <time>2018-06-17T16:36:56Z</time>
      </trkpt>
      <trkpt lat="4.6365040" lon="-74.2094700">
        <ele>2544.7</ele>
        <time>2018-06-17T16:37:04Z</time>
      </trkpt>
      <trkpt lat="4.6362180" lon="-74.2099830">
        <ele>2545.4</ele>
        <time>2018-06-17T16:37:12Z</time>
      </trkpt>
      <trkpt lat="4.6359120" lon="-74.2105010">
        <ele>2534.0</ele>
        <time>2018-06-17T16:37:20Z</time>
      </trkpt>
      <trkpt lat="4.6356360" lon="-74.2109770">
        <ele>2544.4</ele>
        <time>2018-06-17T16:37:27Z</time>
      </trkpt>
      <trkpt lat="4.6353390" lon="-74.2114840">
        <ele>2543.2</ele>
        <time>2018-06-17T16:37:34Z</time>
      </trkpt>
      <trkpt lat="4.6350610" lon="-74.2119830">
        <ele>2540.0</ele>
        <time>2018-06-17T16:37:41Z</time>
      </trkpt>
      <trkpt lat="4.6348340" lon="-74.2124960">
        <ele>2537.9</ele>
        <time>2018-06-17T16:37:48Z</time>
      </trkpt>
      <trkpt lat="4.6346200" lon="-74.2130300">
        <ele>2543.3</ele>
        <time>2018-06-17T16:37:56Z</time>
      </trkpt>
      <trkpt lat="4.6344610" lon="-74.2135860">
        <ele>2541.8</ele>
        <time>2018-06-17T16:38:04Z</time>
      </trkpt>
      <trkpt lat="4.6343200" lon="-74.2141470">
        <ele>2541.1</ele>
        <time>2018-06-17T16:38:12Z</time>
      </trkpt>
      <trkpt lat="4.6342340" lon="-74.2147320">
        <ele>2543.2</ele>
        <time>2018-06-17T16:38:20Z</time>
      </trkpt>
      <trkpt lat="4.6341810" lon="-74.2153360">
        <ele>2547.2</ele>
        <time>2018-06-17T16:38:28Z</time>
      </trkpt>
      <trkpt lat="4.6341770" lon="-74.2159410">
        <ele>2548.2</ele>
        <time>2018-06-17T16:38:36Z</time>
      </trkpt>
      <trkpt lat="4.6341530" lon="-74.2164900">
        <ele>2545.4</ele>
        <time>2018-06-17T16:38:44Z</time>
      </trkpt>
      <trkpt lat="4.6341510" lon="-74.2166190">
        <ele>2544.1</ele>
        <time>2018-06-17T16:38:46Z</time>
      </trkpt>
      <trkpt lat="4.6342130" lon="-74.2171950">
        <ele>2549.0</ele>
        <time>2018-06-17T16:38:56Z</time>
      </trkpt>
      <trkpt lat="4.6342260" lon="-74.2177830">
        <ele>2540.2</ele>
        <time>2018-06-17T16:39:05Z</time>
      </trkpt>
      <trkpt lat="4.6342260" lon="-74.2179110">
        <ele>2539.0</ele>
        <time>2018-06-17T16:39:07Z</time>
      </trkpt>
      <trkpt lat="4.6342460" lon="-74.2184530">
        <ele>2537.1</ele>
        <time>2018-06-17T16:39:15Z</time>
      </trkpt>
      <trkpt lat="4.6342590" lon="-74.2190200">
        <ele>2542.1</ele>
        <time>2018-06-17T16:39:24Z</time>
      </trkpt>
      <trkpt lat="4.6342630" lon="-74.2191530">
        <ele>2542.8</ele>
        <time>2018-06-17T16:39:26Z</time>
      </trkpt>
      <trkpt lat="4.6342640" lon="-74.2193480">
        <ele>2545.3</ele>
        <time>2018-06-17T16:39:29Z</time>
      </trkpt>
      <trkpt lat="4.6342610" lon="-74.2196350">
        <ele>2543.9</ele>
        <time>2018-06-17T16:39:34Z</time>
      </trkpt>
      <trkpt lat="4.6342770" lon="-74.2197820">
        <ele>2542.7</ele>
        <time>2018-06-17T16:39:37Z</time>
      </trkpt>
      <trkpt lat="4.6342680" lon="-74.2204030">
        <ele>2543.6</ele>
        <time>2018-06-17T16:39:46Z</time>
      </trkpt>
      <trkpt lat="4.6342850" lon="-74.2209990">
        <ele>2538.3</ele>
        <time>2018-06-17T16:39:53Z</time>
      </trkpt>
      <trkpt lat="4.6342930" lon="-74.2216200">
        <ele>2541.2</ele>
        <time>2018-06-17T16:40:00Z</time>
      </trkpt>
      <trkpt lat="4.6343040" lon="-74.2221960">
        <ele>2538.6</ele>
        <time>2018-06-17T16:40:06Z</time>
      </trkpt>
      <trkpt lat="4.6343210" lon="-74.2227400">
        <ele>2543.5</ele>
        <time>2018-06-17T16:40:12Z</time>
      </trkpt>
      <trkpt lat="4.6343420" lon="-74.2232550">
        <ele>2540.2</ele>
        <time>2018-06-17T16:40:21Z</time>
      </trkpt>
      <trkpt lat="4.6343570" lon="-74.2234280">
        <ele>2539.2</ele>
        <time>2018-06-17T16:40:25Z</time>
      </trkpt>
      <trkpt lat="4.6343550" lon="-74.2234690">
        <ele>2539.2</ele>
        <time>2018-06-17T16:40:26Z</time>
      </trkpt>
      <trkpt lat="4.6343470" lon="-74.2235570">
        <ele>2539.4</ele>
        <time>2018-06-17T16:40:28Z</time>
      </trkpt>
      <trkpt lat="4.6343420" lon="-74.2236880">
        <ele>2539.6</ele>
        <time>2018-06-17T16:40:31Z</time>
      </trkpt>
      <trkpt lat="4.6343600" lon="-74.2239390">
        <ele>2538.7</ele>
        <time>2018-06-17T16:40:37Z</time>
      </trkpt>
      <trkpt lat="4.6343370" lon="-74.2242150">
        <ele>2539.5</ele>
        <time>2018-06-17T16:40:43Z</time>
      </trkpt>
      <trkpt lat="4.6343360" lon="-74.2247880">
        <ele>2541.3</ele>
        <time>2018-06-17T16:40:52Z</time>
      </trkpt>
      <trkpt lat="4.6343440" lon="-74.2253570">
        <ele>2537.5</ele>
        <time>2018-06-17T16:41:01Z</time>
      </trkpt>
      <trkpt lat="4.6343600" lon="-74.2257470">
        <ele>2543.4</ele>
        <time>2018-06-17T16:41:10Z</time>
      </trkpt>
      <trkpt lat="4.6343620" lon="-74.2259110">
        <ele>2546.6</ele>
        <time>2018-06-17T16:41:14Z</time>
      </trkpt>
      <trkpt lat="4.6343660" lon="-74.2264650">
        <ele>2543.8</ele>
        <time>2018-06-17T16:41:27Z</time>
      </trkpt>
      <trkpt lat="4.6343740" lon="-74.2266270">
        <ele>2541.7</ele>
        <time>2018-06-17T16:41:31Z</time>
      </trkpt>
      <trkpt lat="4.6343380" lon="-74.2272230">
        <ele>2540.1</ele>
        <time>2018-06-17T16:41:41Z</time>
      </trkpt>
      <trkpt lat="4.6343710" lon="-74.2277820">
        <ele>2537.6</ele>
        <time>2018-06-17T16:41:48Z</time>
      </trkpt>
      <trkpt lat="4.6343880" lon="-74.2283540">
        <ele>2538.6</ele>
        <time>2018-06-17T16:41:55Z</time>
      </trkpt>
      <trkpt lat="4.6343930" lon="-74.2289350">
        <ele>2539.5</ele>
        <time>2018-06-17T16:42:02Z</time>
      </trkpt>
      <trkpt lat="4.6343970" lon="-74.2295060">
        <ele>2544.2</ele>
        <time>2018-06-17T16:42:09Z</time>
      </trkpt>
      <trkpt lat="4.6344090" lon="-74.2300740">
        <ele>2542.2</ele>
        <time>2018-06-17T16:42:16Z</time>
      </trkpt>
      <trkpt lat="4.6344000" lon="-74.2307110">
        <ele>2542.7</ele>
        <time>2018-06-17T16:42:23Z</time>
      </trkpt>
      <trkpt lat="4.6344030" lon="-74.2313230">
        <ele>2535.4</ele>
        <time>2018-06-17T16:42:29Z</time>
      </trkpt>
      <trkpt lat="4.6344100" lon="-74.2319390">
        <ele>2536.5</ele>
        <time>2018-06-17T16:42:35Z</time>
      </trkpt>
      <trkpt lat="4.6344210" lon="-74.2325180">
        <ele>2540.0</ele>
        <time>2018-06-17T16:42:41Z</time>
      </trkpt>
      <trkpt lat="4.6344320" lon="-74.2331470">
        <ele>2540.6</ele>
        <time>2018-06-17T16:42:48Z</time>
      </trkpt>
      <trkpt lat="4.6344190" lon="-74.2336940">
        <ele>2540.9</ele>
        <time>2018-06-17T16:42:54Z</time>
      </trkpt>
      <trkpt lat="4.6344490" lon="-74.2342740">
        <ele>2543.0</ele>
        <time>2018-06-17T16:43:00Z</time>
      </trkpt>
      <trkpt lat="4.6344460" lon="-74.2348730">
        <ele>2551.7</ele>
        <time>2018-06-17T16:43:06Z</time>
      </trkpt>
      <trkpt lat="4.6344480" lon="-74.2354240">
        <ele>2549.3</ele>
        <time>2018-06-17T16:43:12Z</time>
      </trkpt>
      <trkpt lat="4.6344560" lon="-74.2360170">
        <ele>2542.2</ele>
        <time>2018-06-17T16:43:19Z</time>
      </trkpt>
      <trkpt lat="4.6344870" lon="-74.2365620">
        <ele>2540.9</ele>
        <time>2018-06-17T16:43:26Z</time>
      </trkpt>
      <trkpt lat="4.6345050" lon="-74.2371650">
        <ele>2543.0</ele>
        <time>2018-06-17T16:43:34Z</time>
      </trkpt>
      <trkpt lat="4.6345040" lon="-74.2377110">
        <ele>2539.2</ele>
        <time>2018-06-17T16:43:41Z</time>
      </trkpt>
      <trkpt lat="4.6345190" lon="-74.2382600">
        <ele>2541.1</ele>
        <time>2018-06-17T16:43:49Z</time>
      </trkpt>
      <trkpt lat="4.6345180" lon="-74.2388580">
        <ele>2543.1</ele>
        <time>2018-06-17T16:43:59Z</time>
      </trkpt>
      <trkpt lat="4.6345310" lon="-74.2394070">
        <ele>2549.7</ele>
        <time>2018-06-17T16:44:09Z</time>
      </trkpt>
      <trkpt lat="4.6345470" lon="-74.2399990">
        <ele>2541.3</ele>
        <time>2018-06-17T16:44:19Z</time>
      </trkpt>
      <trkpt lat="4.6345500" lon="-74.2405650">
        <ele>2539.9</ele>
        <time>2018-06-17T16:44:29Z</time>
      </trkpt>
      <trkpt lat="4.6345740" lon="-74.2407740">
        <ele>2540.5</ele>
        <time>2018-06-17T16:44:33Z</time>
      </trkpt>
      <trkpt lat="4.6346030" lon="-74.2413520">
        <ele>2538.9</ele>
        <time>2018-06-17T16:44:43Z</time>
      </trkpt>
      <trkpt lat="4.6345950" lon="-74.2414640">
        <ele>2539.0</ele>
        <time>2018-06-17T16:44:45Z</time>
      </trkpt>
      <trkpt lat="4.6345620" lon="-74.2416780">
        <ele>2538.9</ele>
        <time>2018-06-17T16:44:49Z</time>
      </trkpt>
      <trkpt lat="4.6345520" lon="-74.2422510">
        <ele>2539.9</ele>
        <time>2018-06-17T16:44:58Z</time>
      </trkpt>
      <trkpt lat="4.6345350" lon="-74.2423820">
        <ele>2540.0</ele>
        <time>2018-06-17T16:45:00Z</time>
      </trkpt>
      <trkpt lat="4.6344220" lon="-74.2429440">
        <ele>2542.3</ele>
        <time>2018-06-17T16:45:09Z</time>
      </trkpt>
      <trkpt lat="4.6343120" lon="-74.2434860">
        <ele>2542.0</ele>
        <time>2018-06-17T16:45:18Z</time>
      </trkpt>
      <trkpt lat="4.6341490" lon="-74.2440500">
        <ele>2539.9</ele>
        <time>2018-06-17T16:45:27Z</time>
      </trkpt>
      <trkpt lat="4.6339450" lon="-74.2445980">
        <ele>2539.9</ele>
        <time>2018-06-17T16:45:37Z</time>
      </trkpt>
      <trkpt lat="4.6338140" lon="-74.2449070">
        <ele>2540.1</ele>
        <time>2018-06-17T16:45:43Z</time>
      </trkpt>
      <trkpt lat="4.6337310" lon="-74.2450500">
        <ele>2539.6</ele>
        <time>2018-06-17T16:45:46Z</time>
      </trkpt>
      <trkpt lat="4.6334700" lon="-74.2455340">
        <ele>2540.1</ele>
        <time>2018-06-17T16:45:56Z</time>
      </trkpt>
      <trkpt lat="4.6334120" lon="-74.2456230">
        <ele>2540.2</ele>
        <time>2018-06-17T16:45:58Z</time>
      </trkpt>
      <trkpt lat="4.6331200" lon="-74.2460790">
        <ele>2538.9</ele>
        <time>2018-06-17T16:46:08Z</time>
      </trkpt>
      <trkpt lat="4.6327440" lon="-74.2465350">
        <ele>2539.9</ele>
        <time>2018-06-17T16:46:19Z</time>
      </trkpt>
      <trkpt lat="4.6323340" lon="-74.2469480">
        <ele>2539.5</ele>
        <time>2018-06-17T16:46:30Z</time>
      </trkpt>
      <trkpt lat="4.6321920" lon="-74.2470980">
        <ele>2539.4</ele>
        <time>2018-06-17T16:46:34Z</time>
      </trkpt>
      <trkpt lat="4.6317690" lon="-74.2474640">
        <ele>2541.2</ele>
        <time>2018-06-17T16:46:45Z</time>
      </trkpt>
      <trkpt lat="4.6316910" lon="-74.2475360">
        <ele>2541.2</ele>
        <time>2018-06-17T16:46:47Z</time>
      </trkpt>
      <trkpt lat="4.6313650" lon="-74.2477650">
        <ele>2539.0</ele>
        <time>2018-06-17T16:46:55Z</time>
      </trkpt>
      <trkpt lat="4.6308930" lon="-74.2480460">
        <ele>2539.2</ele>
        <time>2018-06-17T16:47:06Z</time>
      </trkpt>
      <trkpt lat="4.6308420" lon="-74.2480610">
        <ele>2539.2</ele>
        <time>2018-06-17T16:47:07Z</time>
      </trkpt>
      <trkpt lat="4.6306500" lon="-74.2481530">
        <ele>2539.7</ele>
        <time>2018-06-17T16:47:11Z</time>
      </trkpt>
      <trkpt lat="4.6306050" lon="-74.2481770">
        <ele>2539.9</ele>
        <time>2018-06-17T16:47:12Z</time>
      </trkpt>
      <trkpt lat="4.6300840" lon="-74.2484590">
        <ele>2540.2</ele>
        <time>2018-06-17T16:47:22Z</time>
      </trkpt>
      <trkpt lat="4.6295950" lon="-74.2486980">
        <ele>2540.7</ele>
        <time>2018-06-17T16:47:31Z</time>
      </trkpt>
      <trkpt lat="4.6293340" lon="-74.2488520">
        <ele>2540.1</ele>
        <time>2018-06-17T16:47:37Z</time>
      </trkpt>
      <trkpt lat="4.6292410" lon="-74.2489470">
        <ele>2539.5</ele>
        <time>2018-06-17T16:47:40Z</time>
      </trkpt>
      <trkpt lat="4.6291270" lon="-74.2490250">
        <ele>2538.6</ele>
        <time>2018-06-17T16:47:43Z</time>
      </trkpt>
      <trkpt lat="4.6288880" lon="-74.2491750">
        <ele>2538.9</ele>
        <time>2018-06-17T16:47:48Z</time>
      </trkpt>
      <trkpt lat="4.6283620" lon="-74.2494450">
        <ele>2539.1</ele>
        <time>2018-06-17T16:47:57Z</time>
      </trkpt>
      <trkpt lat="4.6278570" lon="-74.2497140">
        <ele>2540.9</ele>
        <time>2018-06-17T16:48:05Z</time>
      </trkpt>
      <trkpt lat="4.6273180" lon="-74.2499960">
        <ele>2541.3</ele>
        <time>2018-06-17T16:48:13Z</time>
      </trkpt>
      <trkpt lat="4.6268040" lon="-74.2502630">
        <ele>2540.6</ele>
        <time>2018-06-17T16:48:21Z</time>
      </trkpt>
      <trkpt lat="4.6262900" lon="-74.2505280">
        <ele>2541.7</ele>
        <time>2018-06-17T16:48:29Z</time>
      </trkpt>
      <trkpt lat="4.6257640" lon="-74.2508080">
        <ele>2542.2</ele>
        <time>2018-06-17T16:48:37Z</time>
      </trkpt>
      <trkpt lat="4.6252440" lon="-74.2510820">
        <ele>2540.4</ele>
        <time>2018-06-17T16:48:45Z</time>
      </trkpt>
      <trkpt lat="4.6247480" lon="-74.2513500">
        <ele>2541.4</ele>
        <time>2018-06-17T16:48:53Z</time>
      </trkpt>
      <trkpt lat="4.6242320" lon="-74.2516310">
        <ele>2544.3</ele>
        <time>2018-06-17T16:49:01Z</time>
      </trkpt>
      <trkpt lat="4.6236890" lon="-74.2519210">
        <ele>2545.3</ele>
        <time>2018-06-17T16:49:09Z</time>
      </trkpt>
      <trkpt lat="4.6231580" lon="-74.2522120">
        <ele>2545.0</ele>
        <time>2018-06-17T16:49:17Z</time>
      </trkpt>
      <trkpt lat="4.6226630" lon="-74.2524770">
        <ele>2542.9</ele>
        <time>2018-06-17T16:49:25Z</time>
      </trkpt>
      <trkpt lat="4.6221640" lon="-74.2527440">
        <ele>2545.6</ele>
        <time>2018-06-17T16:49:33Z</time>
      </trkpt>
      <trkpt lat="4.6216560" lon="-74.2530090">
        <ele>2545.6</ele>
        <time>2018-06-17T16:49:41Z</time>
      </trkpt>
      <trkpt lat="4.6211570" lon="-74.2532700">
        <ele>2546.4</ele>
        <time>2018-06-17T16:49:49Z</time>
      </trkpt>
      <trkpt lat="4.6206530" lon="-74.2535410">
        <ele>2546.1</ele>
        <time>2018-06-17T16:49:57Z</time>
      </trkpt>
      <trkpt lat="4.6201660" lon="-74.2537920">
        <ele>2548.4</ele>
        <time>2018-06-17T16:50:04Z</time>
      </trkpt>
      <trkpt lat="4.6196690" lon="-74.2540540">
        <ele>2549.2</ele>
        <time>2018-06-17T16:50:11Z</time>
      </trkpt>
      <trkpt lat="4.6191810" lon="-74.2543090">
        <ele>2546.3</ele>
        <time>2018-06-17T16:50:18Z</time>
      </trkpt>
      <trkpt lat="4.6186890" lon="-74.2545590">
        <ele>2551.5</ele>
        <time>2018-06-17T16:50:25Z</time>
      </trkpt>
      <trkpt lat="4.6182030" lon="-74.2548220">
        <ele>2550.0</ele>
        <time>2018-06-17T16:50:32Z</time>
      </trkpt>
      <trkpt lat="4.6177060" lon="-74.2550860">
        <ele>2547.1</ele>
        <time>2018-06-17T16:50:39Z</time>
      </trkpt>
      <trkpt lat="4.6172120" lon="-74.2553480">
        <ele>2545.4</ele>
        <time>2018-06-17T16:50:46Z</time>
      </trkpt>
      <trkpt lat="4.6167230" lon="-74.2556100">
        <ele>2545.6</ele>
        <time>2018-06-17T16:50:53Z</time>
      </trkpt>
      <trkpt lat="4.6162340" lon="-74.2558700">
        <ele>2549.7</ele>
        <time>2018-06-17T16:51:00Z</time>
      </trkpt>
      <trkpt lat="4.6157390" lon="-74.2561350">
        <ele>2551.9</ele>
        <time>2018-06-17T16:51:07Z</time>
      </trkpt>
      <trkpt lat="4.6152380" lon="-74.2564000">
        <ele>2551.9</ele>
        <time>2018-06-17T16:51:14Z</time>
      </trkpt>
      <trkpt lat="4.6147350" lon="-74.2566670">
        <ele>2552.5</ele>
        <time>2018-06-17T16:51:21Z</time>
      </trkpt>
      <trkpt lat="4.6142140" lon="-74.2569470">
        <ele>2545.2</ele>
        <time>2018-06-17T16:51:28Z</time>
      </trkpt>
      <trkpt lat="4.6136610" lon="-74.2572280">
        <ele>2550.3</ele>
        <time>2018-06-17T16:51:35Z</time>
      </trkpt>
      <trkpt lat="4.6131500" lon="-74.2575060">
        <ele>2543.7</ele>
        <time>2018-06-17T16:51:42Z</time>
      </trkpt>
      <trkpt lat="4.6126410" lon="-74.2577690">
        <ele>2548.7</ele>
        <time>2018-06-17T16:51:50Z</time>
      </trkpt>
      <trkpt lat="4.6121650" lon="-74.2580280">
        <ele>2549.7</ele>
        <time>2018-06-17T16:51:58Z</time>
      </trkpt>
      <trkpt lat="4.6116520" lon="-74.2583070">
        <ele>2544.2</ele>
        <time>2018-06-17T16:52:07Z</time>
      </trkpt>
      <trkpt lat="4.6111650" lon="-74.2585590">
        <ele>2547.7</ele>
        <time>2018-06-17T16:52:15Z</time>
      </trkpt>
      <trkpt lat="4.6106690" lon="-74.2588290">
        <ele>2549.0</ele>
        <time>2018-06-17T16:52:23Z</time>
      </trkpt>
      <trkpt lat="4.6101600" lon="-74.2590960">
        <ele>2550.9</ele>
        <time>2018-06-17T16:52:31Z</time>
      </trkpt>
      <trkpt lat="4.6096600" lon="-74.2593490">
        <ele>2551.4</ele>
        <time>2018-06-17T16:52:39Z</time>
      </trkpt>
      <trkpt lat="4.6091480" lon="-74.2596270">
        <ele>2554.0</ele>
        <time>2018-06-17T16:52:47Z</time>
      </trkpt>
      <trkpt lat="4.6086300" lon="-74.2599010">
        <ele>2553.5</ele>
        <time>2018-06-17T16:52:55Z</time>
      </trkpt>
      <trkpt lat="4.6081060" lon="-74.2601780">
        <ele>2551.7</ele>
        <time>2018-06-17T16:53:03Z</time>
      </trkpt>
      <trkpt lat="4.6075930" lon="-74.2604520">
        <ele>2553.0</ele>
        <time>2018-06-17T16:53:11Z</time>
      </trkpt>
      <trkpt lat="4.6070910" lon="-74.2607200">
        <ele>2552.0</ele>
        <time>2018-06-17T16:53:19Z</time>
      </trkpt>
      <trkpt lat="4.6065700" lon="-74.2609920">
        <ele>2548.5</ele>
        <time>2018-06-17T16:53:27Z</time>
      </trkpt>
      <trkpt lat="4.6060400" lon="-74.2612780">
        <ele>2550.6</ele>
        <time>2018-06-17T16:53:35Z</time>
      </trkpt>
      <trkpt lat="4.6055100" lon="-74.2615660">
        <ele>2552.5</ele>
        <time>2018-06-17T16:53:43Z</time>
      </trkpt>
      <trkpt lat="4.6050230" lon="-74.2618220">
        <ele>2554.1</ele>
        <time>2018-06-17T16:53:50Z</time>
      </trkpt>
      <trkpt lat="4.6045290" lon="-74.2620760">
        <ele>2557.1</ele>
        <time>2018-06-17T16:53:57Z</time>
      </trkpt>
      <trkpt lat="4.6040490" lon="-74.2623360">
        <ele>2558.9</ele>
        <time>2018-06-17T16:54:04Z</time>
      </trkpt>
      <trkpt lat="4.6035580" lon="-74.2625880">
        <ele>2559.0</ele>
        <time>2018-06-17T16:54:11Z</time>
      </trkpt>
      <trkpt lat="4.6030550" lon="-74.2628520">
        <ele>2558.2</ele>
        <time>2018-06-17T16:54:18Z</time>
      </trkpt>
      <trkpt lat="4.6025540" lon="-74.2631190">
        <ele>2554.8</ele>
        <time>2018-06-17T16:54:25Z</time>
      </trkpt>
      <trkpt lat="4.6020410" lon="-74.2633850">
        <ele>2551.6</ele>
        <time>2018-06-17T16:54:32Z</time>
      </trkpt>
      <trkpt lat="4.6015140" lon="-74.2636320">
        <ele>2549.6</ele>
        <time>2018-06-17T16:54:39Z</time>
      </trkpt>
      <trkpt lat="4.6009710" lon="-74.2638260">
        <ele>2547.1</ele>
        <time>2018-06-17T16:54:46Z</time>
      </trkpt>
      <trkpt lat="4.6003880" lon="-74.2639710">
        <ele>2548.3</ele>
        <time>2018-06-17T16:54:54Z</time>
      </trkpt>
      <trkpt lat="4.5998010" lon="-74.2640600">
        <ele>2553.0</ele>
        <time>2018-06-17T16:55:02Z</time>
      </trkpt>
      <trkpt lat="4.5992380" lon="-74.2641140">
        <ele>2558.5</ele>
        <time>2018-06-17T16:55:10Z</time>
      </trkpt>
      <trkpt lat="4.5986680" lon="-74.2640980">
        <ele>2556.1</ele>
        <time>2018-06-17T16:55:18Z</time>
      </trkpt>
      <trkpt lat="4.5980890" lon="-74.2640230">
        <ele>2555.0</ele>
        <time>2018-06-17T16:55:26Z</time>
      </trkpt>
      <trkpt lat="4.5974980" lon="-74.2639030">
        <ele>2557.8</ele>
        <time>2018-06-17T16:55:34Z</time>
      </trkpt>
      <trkpt lat="4.5969760" lon="-74.2637480">
        <ele>2560.5</ele>
        <time>2018-06-17T16:55:41Z</time>
      </trkpt>
      <trkpt lat="4.5964590" lon="-74.2635750">
        <ele>2558.2</ele>
        <time>2018-06-17T16:55:48Z</time>
      </trkpt>
      <trkpt lat="4.5958900" lon="-74.2633710">
        <ele>2554.9</ele>
        <time>2018-06-17T16:55:56Z</time>
      </trkpt>
      <trkpt lat="4.5953240" lon="-74.2631730">
        <ele>2558.8</ele>
        <time>2018-06-17T16:56:04Z</time>
      </trkpt>
      <trkpt lat="4.5947960" lon="-74.2629790">
        <ele>2565.9</ele>
        <time>2018-06-17T16:56:11Z</time>
      </trkpt>
      <trkpt lat="4.5942770" lon="-74.2627930">
        <ele>2568.6</ele>
        <time>2018-06-17T16:56:18Z</time>
      </trkpt>
      <trkpt lat="4.5937140" lon="-74.2625870">
        <ele>2564.5</ele>
        <time>2018-06-17T16:56:26Z</time>
      </trkpt>
      <trkpt lat="4.5931470" lon="-74.2623900">
        <ele>2556.5</ele>
        <time>2018-06-17T16:56:34Z</time>
      </trkpt>
      <trkpt lat="4.5925740" lon="-74.2621790">
        <ele>2553.6</ele>
        <time>2018-06-17T16:56:42Z</time>
      </trkpt>
      <trkpt lat="4.5920600" lon="-74.2620020">
        <ele>2550.5</ele>
        <time>2018-06-17T16:56:49Z</time>
      </trkpt>
      <trkpt lat="4.5915270" lon="-74.2618120">
        <ele>2552.6</ele>
        <time>2018-06-17T16:56:56Z</time>
      </trkpt>
      <trkpt lat="4.5909540" lon="-74.2616080">
        <ele>2550.5</ele>
        <time>2018-06-17T16:57:03Z</time>
      </trkpt>
      <trkpt lat="4.5903610" lon="-74.2613920">
        <ele>2551.7</ele>
        <time>2018-06-17T16:57:10Z</time>
      </trkpt>
      <trkpt lat="4.5898180" lon="-74.2611850">
        <ele>2550.5</ele>
        <time>2018-06-17T16:57:16Z</time>
      </trkpt>
      <trkpt lat="4.5892500" lon="-74.2609960">
        <ele>2550.4</ele>
        <time>2018-06-17T16:57:22Z</time>
      </trkpt>
      <trkpt lat="4.5886550" lon="-74.2608000">
        <ele>2550.3</ele>
        <time>2018-06-17T16:57:28Z</time>
      </trkpt>
      <trkpt lat="4.5881200" lon="-74.2606710">
        <ele>2547.0</ele>
        <time>2018-06-17T16:57:33Z</time>
      </trkpt>
      <trkpt lat="4.5875640" lon="-74.2605990">
        <ele>2545.5</ele>
        <time>2018-06-17T16:57:38Z</time>
      </trkpt>
      <trkpt lat="4.5869230" lon="-74.2605700">
        <ele>2548.9</ele>
        <time>2018-06-17T16:57:44Z</time>
      </trkpt>
      <trkpt lat="4.5866100" lon="-74.2605730">
        <ele>2550.9</ele>
        <time>2018-06-17T16:57:47Z</time>
      </trkpt>
      <trkpt lat="4.5860010" lon="-74.2606570">
        <ele>2550.5</ele>
        <time>2018-06-17T16:57:53Z</time>
      </trkpt>
      <trkpt lat="4.5854580" lon="-74.2607620">
        <ele>2551.5</ele>
        <time>2018-06-17T16:57:59Z</time>
      </trkpt>
      <trkpt lat="4.5849230" lon="-74.2608990">
        <ele>2553.6</ele>
        <time>2018-06-17T16:58:06Z</time>
      </trkpt>
      <trkpt lat="4.5844050" lon="-74.2610670">
        <ele>2553.3</ele>
        <time>2018-06-17T16:58:14Z</time>
      </trkpt>
      <trkpt lat="4.5838500" lon="-74.2612530">
        <ele>2550.4</ele>
        <time>2018-06-17T16:58:23Z</time>
      </trkpt>
      <trkpt lat="4.5833160" lon="-74.2614400">
        <ele>2554.3</ele>
        <time>2018-06-17T16:58:32Z</time>
      </trkpt>
      <trkpt lat="4.5827850" lon="-74.2616110">
        <ele>2554.4</ele>
        <time>2018-06-17T16:58:42Z</time>
      </trkpt>
      <trkpt lat="4.5822790" lon="-74.2618010">
        <ele>2553.5</ele>
        <time>2018-06-17T16:58:55Z</time>
      </trkpt>
      <trkpt lat="4.5821720" lon="-74.2620140">
        <ele>2552.9</ele>
        <time>2018-06-17T16:59:11Z</time>
      </trkpt>
      <trkpt lat="4.5821730" lon="-74.2620340">
        <ele>2552.9</ele>
        <time>2018-06-17T16:59:14Z</time>
      </trkpt>
      <trkpt lat="4.5821960" lon="-74.2621120">
        <ele>2553.3</ele>
        <time>2018-06-17T16:59:20Z</time>
      </trkpt>
      <trkpt lat="4.5821750" lon="-74.2621470">
        <ele>2553.6</ele>
        <time>2018-06-17T16:59:23Z</time>
      </trkpt>
      <trkpt lat="4.5816370" lon="-74.2619480">
        <ele>2552.0</ele>
        <time>2018-06-17T16:59:43Z</time>
      </trkpt>
      <trkpt lat="4.5815440" lon="-74.2619150">
        <ele>2552.1</ele>
        <time>2018-06-17T16:59:45Z</time>
      </trkpt>
      <trkpt lat="4.5810300" lon="-74.2616700">
        <ele>2553.0</ele>
        <time>2018-06-17T16:59:54Z</time>
      </trkpt>
      <trkpt lat="4.5804830" lon="-74.2613970">
        <ele>2554.5</ele>
        <time>2018-06-17T17:00:02Z</time>
      </trkpt>
      <trkpt lat="4.5799780" lon="-74.2611540">
        <ele>2556.0</ele>
        <time>2018-06-17T17:00:09Z</time>
      </trkpt>
      <trkpt lat="4.5797120" lon="-74.2609970">
        <ele>2557.3</ele>
        <time>2018-06-17T17:00:13Z</time>
      </trkpt>
      <trkpt lat="4.5794350" lon="-74.2606360">
        <ele>2559.4</ele>
        <time>2018-06-17T17:00:19Z</time>
      </trkpt>
      <trkpt lat="4.5791910" lon="-74.2601520">
        <ele>2559.7</ele>
        <time>2018-06-17T17:00:26Z</time>
      </trkpt>
      <trkpt lat="4.5790660" lon="-74.2595890">
        <ele>2558.3</ele>
        <time>2018-06-17T17:00:33Z</time>
      </trkpt>
      <trkpt lat="4.5792110" lon="-74.2592050">
        <ele>2555.3</ele>
        <time>2018-06-17T17:00:37Z</time>
      </trkpt>
      <trkpt lat="4.5794380" lon="-74.2586360">
        <ele>2549.9</ele>
        <time>2018-06-17T17:00:42Z</time>
      </trkpt>
      <trkpt lat="4.5795990" lon="-74.2580590">
        <ele>2546.5</ele>
        <time>2018-06-17T17:00:47Z</time>
      </trkpt>
      <trkpt lat="4.5797430" lon="-74.2575140">
        <ele>2545.1</ele>
        <time>2018-06-17T17:00:52Z</time>
      </trkpt>
      <trkpt lat="4.5798770" lon="-74.2569830">
        <ele>2542.8</ele>
        <time>2018-06-17T17:00:57Z</time>
      </trkpt>
      <trkpt lat="4.5798910" lon="-74.2568760">
        <ele>2542.4</ele>
        <time>2018-06-17T17:00:58Z</time>
      </trkpt>
      <trkpt lat="4.5797270" lon="-74.2563520">
        <ele>2541.5</ele>
        <time>2018-06-17T17:01:03Z</time>
      </trkpt>
      <trkpt lat="4.5793720" lon="-74.2559430">
        <ele>2541.2</ele>
        <time>2018-06-17T17:01:08Z</time>
      </trkpt>
      <trkpt lat="4.5788950" lon="-74.2555390">
        <ele>2540.9</ele>
        <time>2018-06-17T17:01:14Z</time>
      </trkpt>
      <trkpt lat="4.5784210" lon="-74.2551490">
        <ele>2541.2</ele>
        <time>2018-06-17T17:01:20Z</time>
      </trkpt>
      <trkpt lat="4.5779800" lon="-74.2547560">
        <ele>2541.7</ele>
        <time>2018-06-17T17:01:26Z</time>
      </trkpt>
      <trkpt lat="4.5777450" lon="-74.2544660">
        <ele>2541.5</ele>
        <time>2018-06-17T17:01:30Z</time>
      </trkpt>
      <trkpt lat="4.5776080" lon="-74.2539220">
        <ele>2541.1</ele>
        <time>2018-06-17T17:01:36Z</time>
      </trkpt>
      <trkpt lat="4.5776820" lon="-74.2534710">
        <ele>2540.7</ele>
        <time>2018-06-17T17:01:41Z</time>
      </trkpt>
      <trkpt lat="4.5779080" lon="-74.2528830">
        <ele>2540.2</ele>
        <time>2018-06-17T17:01:48Z</time>
      </trkpt>
      <trkpt lat="4.5781340" lon="-74.2522980">
        <ele>2539.1</ele>
        <time>2018-06-17T17:01:55Z</time>
      </trkpt>
      <trkpt lat="4.5783530" lon="-74.2517530">
        <ele>2538.1</ele>
        <time>2018-06-17T17:02:01Z</time>
      </trkpt>
      <trkpt lat="4.5785620" lon="-74.2511620">
        <ele>2538.2</ele>
        <time>2018-06-17T17:02:07Z</time>
      </trkpt>
      <trkpt lat="4.5787700" lon="-74.2506470">
        <ele>2538.2</ele>
        <time>2018-06-17T17:02:12Z</time>
      </trkpt>
      <trkpt lat="4.5789720" lon="-74.2501320">
        <ele>2537.9</ele>
        <time>2018-06-17T17:02:17Z</time>
      </trkpt>
      <trkpt lat="4.5791630" lon="-74.2495960">
        <ele>2539.7</ele>
        <time>2018-06-17T17:02:23Z</time>
      </trkpt>
      <trkpt lat="4.5793200" lon="-74.2490400">
        <ele>2542.1</ele>
        <time>2018-06-17T17:02:30Z</time>
      </trkpt>
      <trkpt lat="4.5794600" lon="-74.2484890">
        <ele>2547.0</ele>
        <time>2018-06-17T17:02:37Z</time>
      </trkpt>
      <trkpt lat="4.5796030" lon="-74.2479150">
        <ele>2548.7</ele>
        <time>2018-06-17T17:02:44Z</time>
      </trkpt>
      <trkpt lat="4.5797270" lon="-74.2473370">
        <ele>2550.1</ele>
        <time>2018-06-17T17:02:51Z</time>
      </trkpt>
      <trkpt lat="4.5798350" lon="-74.2467380">
        <ele>2551.8</ele>
        <time>2018-06-17T17:02:58Z</time>
      </trkpt>
      <trkpt lat="4.5799560" lon="-74.2461240">
        <ele>2553.6</ele>
        <time>2018-06-17T17:03:05Z</time>
      </trkpt>
      <trkpt lat="4.5800850" lon="-74.2455100">
        <ele>2558.4</ele>
        <time>2018-06-17T17:03:12Z</time>
      </trkpt>
      <trkpt lat="4.5802070" lon="-74.2449690">
        <ele>2557.4</ele>
        <time>2018-06-17T17:03:18Z</time>
      </trkpt>
      <trkpt lat="4.5803270" lon="-74.2444320">
        <ele>2554.6</ele>
        <time>2018-06-17T17:03:24Z</time>
      </trkpt>
      <trkpt lat="4.5804380" lon="-74.2439070">
        <ele>2552.5</ele>
        <time>2018-06-17T17:03:30Z</time>
      </trkpt>
      <trkpt lat="4.5805740" lon="-74.2433310">
        <ele>2549.8</ele>
        <time>2018-06-17T17:03:37Z</time>
      </trkpt>
      <trkpt lat="4.5807100" lon="-74.2427390">
        <ele>2549.2</ele>
        <time>2018-06-17T17:03:45Z</time>
      </trkpt>
      <trkpt lat="4.5808360" lon="-74.2422110">
        <ele>2551.8</ele>
        <time>2018-06-17T17:03:53Z</time>
      </trkpt>
      <trkpt lat="4.5809280" lon="-74.2419210">
        <ele>2555.0</ele>
        <time>2018-06-17T17:03:58Z</time>
      </trkpt>
      <trkpt lat="4.5810470" lon="-74.2413340">
        <ele>2561.1</ele>
        <time>2018-06-17T17:04:07Z</time>
      </trkpt>
      <trkpt lat="4.5811330" lon="-74.2409450">
        <ele>2559.0</ele>
        <time>2018-06-17T17:04:13Z</time>
      </trkpt>
      <trkpt lat="4.5812500" lon="-74.2403870">
        <ele>2555.7</ele>
        <time>2018-06-17T17:04:21Z</time>
      </trkpt>
      <trkpt lat="4.5813790" lon="-74.2397990">
        <ele>2554.0</ele>
        <time>2018-06-17T17:04:29Z</time>
      </trkpt>
      <trkpt lat="4.5814950" lon="-74.2392490">
        <ele>2551.9</ele>
        <time>2018-06-17T17:04:37Z</time>
      </trkpt>
      <trkpt lat="4.5816190" lon="-74.2386860">
        <ele>2550.7</ele>
        <time>2018-06-17T17:04:45Z</time>
      </trkpt>
      <trkpt lat="4.5817380" lon="-74.2380760">
        <ele>2550.0</ele>
        <time>2018-06-17T17:04:53Z</time>
      </trkpt>
      <trkpt lat="4.5817390" lon="-74.2375130">
        <ele>2549.1</ele>
        <time>2018-06-17T17:05:00Z</time>
      </trkpt>
      <trkpt lat="4.5816930" lon="-74.2368990">
        <ele>2552.0</ele>
        <time>2018-06-17T17:05:08Z</time>
      </trkpt>
      <trkpt lat="4.5816770" lon="-74.2363520">
        <ele>2554.3</ele>
        <time>2018-06-17T17:05:15Z</time>
      </trkpt>
      <trkpt lat="4.5816780" lon="-74.2358100">
        <ele>2556.2</ele>
        <time>2018-06-17T17:05:22Z</time>
      </trkpt>
      <trkpt lat="4.5817180" lon="-74.2352180">
        <ele>2558.9</ele>
        <time>2018-06-17T17:05:30Z</time>
      </trkpt>
      <trkpt lat="4.5817580" lon="-74.2346250">
        <ele>2561.9</ele>
        <time>2018-06-17T17:05:38Z</time>
      </trkpt>
      <trkpt lat="4.5817990" lon="-74.2340580">
        <ele>2564.7</ele>
        <time>2018-06-17T17:05:46Z</time>
      </trkpt>
      <trkpt lat="4.5818270" lon="-74.2336690">
        <ele>2566.7</ele>
        <time>2018-06-17T17:05:53Z</time>
      </trkpt>
      <trkpt lat="4.5819050" lon="-74.2331090">
        <ele>2564.9</ele>
        <time>2018-06-17T17:06:03Z</time>
      </trkpt>
      <trkpt lat="4.5819480" lon="-74.2325700">
        <ele>2563.2</ele>
        <time>2018-06-17T17:06:12Z</time>
      </trkpt>
      <trkpt lat="4.5819440" lon="-74.2325200">
        <ele>2563.1</ele>
        <time>2018-06-17T17:06:13Z</time>
      </trkpt>
      <trkpt lat="4.5819780" lon="-74.2319510">
        <ele>2562.5</ele>
        <time>2018-06-17T17:06:26Z</time>
      </trkpt>
      <trkpt lat="4.5820400" lon="-74.2313960">
        <ele>2561.4</ele>
        <time>2018-06-17T17:06:36Z</time>
      </trkpt>
      <trkpt lat="4.5821020" lon="-74.2308380">
        <ele>2559.6</ele>
        <time>2018-06-17T17:06:47Z</time>
      </trkpt>
      <trkpt lat="4.5821500" lon="-74.2302640">
        <ele>2559.6</ele>
        <time>2018-06-17T17:06:57Z</time>
      </trkpt>
      <trkpt lat="4.5821870" lon="-74.2297130">
        <ele>2560.6</ele>
        <time>2018-06-17T17:07:06Z</time>
      </trkpt>
      <trkpt lat="4.5822360" lon="-74.2291510">
        <ele>2561.8</ele>
        <time>2018-06-17T17:07:16Z</time>
      </trkpt>
      <trkpt lat="4.5822770" lon="-74.2285990">
        <ele>2563.4</ele>
        <time>2018-06-17T17:07:26Z</time>
      </trkpt>
      <trkpt lat="4.5823150" lon="-74.2280540">
        <ele>2564.8</ele>
        <time>2018-06-17T17:07:35Z</time>
      </trkpt>
      <trkpt lat="4.5823620" lon="-74.2274930">
        <ele>2565.0</ele>
        <time>2018-06-17T17:07:44Z</time>
      </trkpt>
      <trkpt lat="4.5824050" lon="-74.2269440">
        <ele>2562.0</ele>
        <time>2018-06-17T17:07:53Z</time>
      </trkpt>
      <trkpt lat="4.5824440" lon="-74.2263730">
        <ele>2560.3</ele>
        <time>2018-06-17T17:08:02Z</time>
      </trkpt>
      <trkpt lat="4.5824830" lon="-74.2258330">
        <ele>2561.5</ele>
        <time>2018-06-17T17:08:12Z</time>
      </trkpt>
      <trkpt lat="4.5825160" lon="-74.2252530">
        <ele>2560.9</ele>
        <time>2018-06-17T17:08:26Z</time>
      </trkpt>
      <trkpt lat="4.5825400" lon="-74.2247120">
        <ele>2559.8</ele>
        <time>2018-06-17T17:08:39Z</time>
      </trkpt>
      <trkpt lat="4.5825080" lon="-74.2241680">
        <ele>2549.0</ele>
        <time>2018-06-17T17:09:02Z</time>
      </trkpt>
      <trkpt lat="4.5823110" lon="-74.2236400">
        <ele>2557.0</ele>
        <time>2018-06-17T17:09:22Z</time>
      </trkpt>
      <trkpt lat="4.5821120" lon="-74.2233700">
        <ele>2556.6</ele>
        <time>2018-06-17T17:09:31Z</time>
      </trkpt>
      <trkpt lat="4.5817600" lon="-74.2229590">
        <ele>2555.0</ele>
        <time>2018-06-17T17:09:45Z</time>
      </trkpt>
      <trkpt lat="4.5814640" lon="-74.2226580">
        <ele>2557.0</ele>
        <time>2018-06-17T17:09:55Z</time>
      </trkpt>
      <trkpt lat="4.5810870" lon="-74.2222540">
        <ele>2555.5</ele>
        <time>2018-06-17T17:10:09Z</time>
      </trkpt>
      <trkpt lat="4.5808890" lon="-74.2217400">
        <ele>2554.2</ele>
        <time>2018-06-17T17:10:21Z</time>
      </trkpt>
      <trkpt lat="4.5807660" lon="-74.2215950">
        <ele>2556.0</ele>
        <time>2018-06-17T17:10:26Z</time>
      </trkpt>
      <trkpt lat="4.5805990" lon="-74.2216200">
        <ele>2556.5</ele>
        <time>2018-06-17T17:10:30Z</time>
      </trkpt>
      <trkpt lat="4.5804770" lon="-74.2216460">
        <ele>2556.8</ele>
        <time>2018-06-17T17:10:33Z</time>
      </trkpt>
      <trkpt lat="4.5802770" lon="-74.2217270">
        <ele>2557.4</ele>
        <time>2018-06-17T17:10:38Z</time>
      </trkpt>
      <trkpt lat="4.5801190" lon="-74.2217890">
        <ele>2557.8</ele>
        <time>2018-06-17T17:10:42Z</time>
      </trkpt>
      <trkpt lat="4.5799340" lon="-74.2218520">
        <ele>2558.5</ele>
        <time>2018-06-17T17:10:46Z</time>
      </trkpt>
      <trkpt lat="4.5797700" lon="-74.2219340">
        <ele>2559.0</ele>
        <time>2018-06-17T17:10:50Z</time>
      </trkpt>
      <trkpt lat="4.5795940" lon="-74.2219980">
        <ele>2559.0</ele>
        <time>2018-06-17T17:10:54Z</time>
      </trkpt>
      <trkpt lat="4.5794110" lon="-74.2220560">
        <ele>2557.4</ele>
        <time>2018-06-17T17:10:58Z</time>
      </trkpt>
      <trkpt lat="4.5791730" lon="-74.2221460">
        <ele>2554.4</ele>
        <time>2018-06-17T17:11:03Z</time>
      </trkpt>
      <trkpt lat="4.5789840" lon="-74.2222270">
        <ele>2554.5</ele>
        <time>2018-06-17T17:11:07Z</time>
      </trkpt>
      <trkpt lat="4.5784750" lon="-74.2224160">
        <ele>2556.5</ele>
        <time>2018-06-17T17:11:17Z</time>
      </trkpt>
      <trkpt lat="4.5779420" lon="-74.2226280">
        <ele>2558.6</ele>
        <time>2018-06-17T17:11:28Z</time>
      </trkpt>
      <trkpt lat="4.5774610" lon="-74.2227930">
        <ele>2560.0</ele>
        <time>2018-06-17T17:11:39Z</time>
      </trkpt>
      <trkpt lat="4.5773450" lon="-74.2228650">
        <ele>2560.0</ele>
        <time>2018-06-17T17:11:42Z</time>
      </trkpt>
      <trkpt lat="4.5768540" lon="-74.2231220">
        <ele>2563.2</ele>
        <time>2018-06-17T17:11:57Z</time>
      </trkpt>
      <trkpt lat="4.5764160" lon="-74.2229520">
        <ele>2563.7</ele>
        <time>2018-06-17T17:12:13Z</time>
      </trkpt>
      <trkpt lat="4.5765180" lon="-74.2227150">
        <ele>2563.4</ele>
        <time>2018-06-17T17:12:20Z</time>
      </trkpt>
      <trkpt lat="4.5767950" lon="-74.2222070">
        <ele>2562.4</ele>
        <time>2018-06-17T17:12:33Z</time>
      </trkpt>
      <trkpt lat="4.5770570" lon="-74.2217250">
        <ele>2561.7</ele>
        <time>2018-06-17T17:12:44Z</time>
      </trkpt>
      <trkpt lat="4.5773200" lon="-74.2212470">
        <ele>2561.0</ele>
        <time>2018-06-17T17:12:56Z</time>
      </trkpt>
      <trkpt lat="4.5773520" lon="-74.2211340">
        <ele>2561.0</ele>
        <time>2018-06-17T17:13:00Z</time>
      </trkpt>
      <trkpt lat="4.5770420" lon="-74.2210510">
        <ele>2560.8</ele>
        <time>2018-06-17T17:13:08Z</time>
      </trkpt>
      <trkpt lat="4.5769660" lon="-74.2209950">
        <ele>2560.8</ele>
        <time>2018-06-17T17:13:10Z</time>
      </trkpt>
      <trkpt lat="4.5767320" lon="-74.2208610">
        <ele>2560.7</ele>
        <time>2018-06-17T17:13:15Z</time>
      </trkpt>
      <trkpt lat="4.5765040" lon="-74.2206950">
        <ele>2560.6</ele>
        <time>2018-06-17T17:13:20Z</time>
      </trkpt>
      <trkpt lat="4.5764030" lon="-74.2205720">
        <ele>2560.6</ele>
        <time>2018-06-17T17:13:23Z</time>
      </trkpt>
      <trkpt lat="4.5763350" lon="-74.2204950">
        <ele>2560.5</ele>
        <time>2018-06-17T17:13:25Z</time>
      </trkpt>
      <trkpt lat="4.5762730" lon="-74.2204200">
        <ele>2560.3</ele>
        <time>2018-06-17T17:13:27Z</time>
      </trkpt>
      <trkpt lat="4.5761010" lon="-74.2201820">
        <ele>2559.2</ele>
        <time>2018-06-17T17:13:33Z</time>
      </trkpt>
      <trkpt lat="4.5760080" lon="-74.2200150">
        <ele>2558.5</ele>
        <time>2018-06-17T17:13:37Z</time>
      </trkpt>
      <trkpt lat="4.5757330" lon="-74.2195330">
        <ele>2558.2</ele>
        <time>2018-06-17T17:13:49Z</time>
      </trkpt>
      <trkpt lat="4.5754680" lon="-74.2191390">
        <ele>2558.0</ele>
        <time>2018-06-17T17:14:02Z</time>
      </trkpt>
      <trkpt lat="4.5754990" lon="-74.2190980">
        <ele>2558.0</ele>
        <time>2018-06-17T17:14:04Z</time>
      </trkpt>
      <trkpt lat="4.5757670" lon="-74.2188810">
        <ele>2558.0</ele>
        <time>2018-06-17T17:14:15Z</time>
      </trkpt>
      <trkpt lat="4.5758100" lon="-74.2188220">
        <ele>2558.0</ele>
        <time>2018-06-17T17:16:23Z</time>
      </trkpt>
      <trkpt lat="4.5753140" lon="-74.2185890">
        <ele>2558.0</ele>
        <time>2018-06-17T17:16:44Z</time>
      </trkpt>
    </trkseg>
  </trk>
</gpx>
